Wetterdaten: Donnerstag, 05.04.2018
Datum Zeit Temp. A. Pool Temp. Feuchte A. Luftdruck Regen Wind Richtung Richtung Sonnenschein ET UV Solar Taupunkt Windchill Windben Empfang
05.04.2018 00:00 12,2 C 7,2 C 66 % 1007,7 hPa 0,0 l/m 8,6 km/h (2 Bft) W 261 0 min 0,000 mm 0,0 UV-I 0 W/m 6,0 C 10,8 C 12,9 km/h (3 Bft) 96,00 %
05.04.2018 00:02 12,1 C 7,2 C 66 % 1007,7 hPa 0,0 l/m 6,5 km/h (2 Bft) W-SW 243 0 min 0,000 mm 0,0 UV-I 0 W/m 5,9 C 12,1 C 8,0 km/h (2 Bft) 94,59 %
05.04.2018 00:04 11,9 C 7,2 C 66 % 1007,7 hPa 0,0 l/m 8,4 km/h (2 Bft) SW 232 0 min 0,000 mm 0,0 UV-I 0 W/m 5,8 C 10,6 C 14,5 km/h (3 Bft) 100,00 %
05.04.2018 00:06 11,8 C 7,2 C 67 % 1007,7 hPa 0,0 l/m 6,6 km/h (2 Bft) SW 221 0 min 0,000 mm 0,0 UV-I 0 W/m 5,9 C 11,7 C 9,7 km/h (2 Bft) 100,00 %
05.04.2018 00:08 11,8 C 7,2 C 67 % 1007,7 hPa 0,0 l/m 6,7 km/h (2 Bft) SW 227 0 min 0,000 mm 0,0 UV-I 0 W/m 5,9 C 11,6 C 11,3 km/h (2 Bft) 96,00 %
05.04.2018 00:10 11,7 C 7,2 C 68 % 1007,7 hPa 0,0 l/m 7,6 km/h (2 Bft) W-SW 252 0 min 0,000 mm 0,0 UV-I 0 W/m 6,0 C 10,9 C 11,3 km/h (2 Bft) 100,00 %
05.04.2018 00:12 11,6 C 7,2 C 68 % 1007,7 hPa 0,0 l/m 8,0 km/h (2 Bft) SW 218 0 min 0,000 mm 0,0 UV-I 0 W/m 5,9 C 10,5 C 12,9 km/h (3 Bft) 100,00 %
05.04.2018 00:14 11,6 C 7,2 C 68 % 1007,7 hPa 0,0 l/m 7,9 km/h (2 Bft) SW 224 0 min 0,000 mm 0,0 UV-I 0 W/m 5,9 C 10,6 C 11,3 km/h (2 Bft) 100,00 %
05.04.2018 00:16 11,6 C 7,2 C 68 % 1007,7 hPa 0,0 l/m 9,5 km/h (2 Bft) W-SW 241 0 min 0,000 mm 0,0 UV-I 0 W/m 5,9 C 9,6 C 17,7 km/h (3 Bft) 100,00 %
05.04.2018 00:18 11,6 C 7,2 C 68 % 1007,7 hPa 0,0 l/m 10,8 km/h (2 Bft) W-SW 254 0 min 0,000 mm 0,0 UV-I 0 W/m 5,9 C 8,9 C 17,7 km/h (3 Bft) 100,00 %
05.04.2018 00:20 11,7 C 7,2 C 68 % 1007,6 hPa 0,0 l/m 8,0 km/h (2 Bft) W 265 0 min 0,000 mm 0,0 UV-I 0 W/m 6,0 C 10,6 C 12,9 km/h (3 Bft) 97,56 %
05.04.2018 00:22 11,6 C 7,2 C 68 % 1007,6 hPa 0,0 l/m 10,4 km/h (2 Bft) W 259 0 min 0,000 mm 0,0 UV-I 0 W/m 5,9 C 9,1 C 12,9 km/h (3 Bft) 96,23 %
05.04.2018 00:24 11,4 C 7,2 C 69 % 1007,6 hPa 0,0 l/m 11,2 km/h (2 Bft) W 274 0 min 0,000 mm 0,0 UV-I 0 W/m 5,9 C 8,5 C 12,9 km/h (3 Bft) 100,00 %
05.04.2018 00:26 11,3 C 7,2 C 69 % 1007,7 hPa 0,0 l/m 9,1 km/h (2 Bft) W 267 0 min 0,000 mm 0,0 UV-I 0 W/m 5,8 C 9,5 C 11,3 km/h (2 Bft) 100,00 %
05.04.2018 00:28 11,2 C 7,2 C 69 % 1007,7 hPa 0,0 l/m 8,4 km/h (2 Bft) W-SW 257 0 min 0,000 mm 0,0 UV-I 0 W/m 5,7 C 9,9 C 12,9 km/h (3 Bft) 100,00 %
05.04.2018 00:30 11,3 C 7,2 C 69 % 1007,8 hPa 0,0 l/m 7,9 km/h (2 Bft) W 259 0 min 0,000 mm 0,0 UV-I 0 W/m 5,8 C 10,3 C 12,9 km/h (3 Bft) 100,00 %
05.04.2018 00:32 11,4 C 7,2 C 68 % 1007,8 hPa 0,0 l/m 7,0 km/h (2 Bft) SW 224 0 min 0,000 mm 0,0 UV-I 0 W/m 5,7 C 11,0 C 12,9 km/h (3 Bft) 100,00 %
05.04.2018 00:34 11,4 C 7,2 C 68 % 1007,7 hPa 0,0 l/m 5,3 km/h (1 Bft) SW 228 0 min 0,000 mm 0,0 UV-I 0 W/m 5,7 C 11,4 C 9,7 km/h (2 Bft) 98,11 %
05.04.2018 00:36 11,3 C 7,2 C 68 % 1007,8 hPa 0,0 l/m 4,2 km/h (1 Bft) SW 226 0 min 0,000 mm 0,0 UV-I 0 W/m 5,6 C 11,3 C 8,0 km/h (2 Bft) 97,37 %
05.04.2018 00:38 11,1 C 7,2 C 70 % 1007,8 hPa 0,0 l/m 4,5 km/h (1 Bft) S-SW 202 0 min 0,000 mm 0,0 UV-I 0 W/m 5,8 C 11,1 C 6,4 km/h (2 Bft) 100,00 %
05.04.2018 00:40 10,6 C 7,2 C 72 % 1007,8 hPa 0,0 l/m 3,6 km/h (1 Bft) S-SW 200 0 min 0,000 mm 0,0 UV-I 0 W/m 5,8 C 10,6 C 4,8 km/h (1 Bft) 98,11 %
05.04.2018 00:42 10,2 C 7,2 C 74 % 1007,7 hPa 0,0 l/m 3,6 km/h (1 Bft) S-SW 200 0 min 0,000 mm 0,0 UV-I 0 W/m 5,8 C 10,2 C 4,8 km/h (1 Bft) 100,00 %
05.04.2018 00:44 10,1 C 7,2 C 74 % 1007,7 hPa 0,0 l/m 3,6 km/h (1 Bft) S-SW 200 0 min 0,000 mm 0,0 UV-I 0 W/m 5,7 C 10,1 C 4,8 km/h (1 Bft) 97,73 %
05.04.2018 00:46 10,2 C 7,2 C 74 % 1007,7 hPa 0,0 l/m 2,8 km/h (1 Bft) S-SW 200 0 min 0,000 mm 0,0 UV-I 0 W/m 5,8 C 10,2 C 3,2 km/h (1 Bft) 100,00 %
05.04.2018 00:48 10,3 C 7,2 C 74 % 1007,6 hPa 0,0 l/m 1,9 km/h (1 Bft) S-SW 200 0 min 0,000 mm 0,0 UV-I 0 W/m 5,9 C 10,3 C 3,2 km/h (1 Bft) 95,74 %
05.04.2018 00:50 10,6 C 7,2 C 72 % 1007,6 hPa 0,0 l/m 0,5 km/h (0 Bft) S-SW 200 0 min 0,000 mm 0,0 UV-I 0 W/m 5,8 C 10,6 C 1,6 km/h (1 Bft) 98,00 %
05.04.2018 00:52 10,6 C 7,2 C 71 % 1007,5 hPa 0,0 l/m 0,1 km/h (0 Bft) S-SW 200 0 min 0,000 mm 0,0 UV-I 0 W/m 5,6 C 10,6 C 1,6 km/h (1 Bft) 100,00 %
05.04.2018 00:54 10,8 C 7,2 C 71 % 1007,5 hPa 0,0 l/m 0,0 km/h (0 Bft) S-SW 200 0 min 0,000 mm 0,0 UV-I 0 W/m 5,8 C 10,8 C 0,0 km/h (0 Bft) 100,00 %
05.04.2018 00:56 10,8 C 7,2 C 71 % 1007,5 hPa 0,0 l/m 1,3 km/h (1 Bft) S-SW 200 0 min 0,000 mm 0,0 UV-I 0 W/m 5,8 C 10,8 C 3,2 km/h (1 Bft) 97,14 %
05.04.2018 00:58 10,6 C 7,2 C 72 % 1007,5 hPa 0,0 l/m 3,9 km/h (1 Bft) S-SW 201 0 min 0,000 mm 0,0 UV-I 0 W/m 5,8 C 10,6 C 4,8 km/h (1 Bft) 96,00 %
05.04.2018 01:00 10,4 C 7,2 C 73 % 1007,5 hPa 0,0 l/m 4,6 km/h (1 Bft) S-SW 201 0 min 0,025 mm 0,0 UV-I 0 W/m 5,8 C 10,4 C 6,4 km/h (2 Bft) 98,00 %
05.04.2018 01:02 10,3 C 7,2 C 74 % 1007,5 hPa 0,0 l/m 4,9 km/h (1 Bft) S-SW 201 0 min 0,000 mm 0,0 UV-I 0 W/m 5,9 C 10,3 C 6,4 km/h (2 Bft) 98,00 %
05.04.2018 01:04 10,2 C 7,2 C 75 % 1007,3 hPa 0,0 l/m 4,5 km/h (1 Bft) S-SW 201 0 min 0,000 mm 0,0 UV-I 0 W/m 6,0 C 10,2 C 4,8 km/h (1 Bft) 94,00 %
05.04.2018 01:06 10,1 C 7,2 C 75 % 1007,3 hPa 0,0 l/m 4,4 km/h (1 Bft) S-SW 201 0 min 0,000 mm 0,0 UV-I 0 W/m 5,9 C 10,1 C 6,4 km/h (2 Bft) 94,74 %
05.04.2018 01:08 9,8 C 7,2 C 77 % 1007,3 hPa 0,0 l/m 4,9 km/h (1 Bft) S-SW 200 0 min 0,000 mm 0,0 UV-I 0 W/m 6,0 C 9,8 C 6,4 km/h (2 Bft) 97,87 %
05.04.2018 01:10 9,6 C 7,2 C 78 % 1007,2 hPa 0,0 l/m 4,4 km/h (1 Bft) S-SW 197 0 min 0,000 mm 0,0 UV-I 0 W/m 6,0 C 9,6 C 6,4 km/h (2 Bft) 90,57 %
05.04.2018 01:12 9,7 C 7,2 C 78 % 1007,2 hPa 0,0 l/m 4,9 km/h (1 Bft) S-SO 166 0 min 0,000 mm 0,0 UV-I 0 W/m 6,1 C 9,7 C 6,4 km/h (2 Bft) 97,22 %
05.04.2018 01:14 9,9 C 7,2 C 76 % 1007,2 hPa 0,0 l/m 5,8 km/h (2 Bft) S-SO 166 0 min 0,000 mm 0,0 UV-I 0 W/m 5,9 C 9,9 C 8,0 km/h (2 Bft) 98,00 %
05.04.2018 01:16 10,3 C 7,2 C 74 % 1007,1 hPa 0,0 l/m 5,6 km/h (1 Bft) S 169 0 min 0,000 mm 0,0 UV-I 0 W/m 5,9 C 10,3 C 8,0 km/h (2 Bft) 94,00 %
05.04.2018 01:18 10,6 C 7,2 C 73 % 1007,1 hPa 0,0 l/m 6,0 km/h (2 Bft) S-SO 167 0 min 0,000 mm 0,0 UV-I 0 W/m 6,0 C 10,6 C 8,0 km/h (2 Bft) 93,62 %
05.04.2018 01:20 10,8 C 7,2 C 72 % 1007,1 hPa 0,0 l/m 4,6 km/h (1 Bft) S-SO 165 0 min 0,000 mm 0,0 UV-I 0 W/m 6,0 C 10,8 C 6,4 km/h (2 Bft) 96,23 %
05.04.2018 01:22 10,8 C 7,2 C 72 % 1007,2 hPa 0,0 l/m 1,6 km/h (1 Bft) S-SO 165 0 min 0,000 mm 0,0 UV-I 0 W/m 6,0 C 10,8 C 3,2 km/h (1 Bft) 95,12 %
05.04.2018 01:24 10,7 C 7,2 C 73 % 1007,3 hPa 0,0 l/m 3,0 km/h (1 Bft) SW 234 0 min 0,000 mm 0,0 UV-I 0 W/m 6,1 C 10,7 C 4,8 km/h (1 Bft) 96,00 %
05.04.2018 01:26 10,3 C 7,2 C 75 % 1007,3 hPa 0,0 l/m 2,6 km/h (1 Bft) SW 234 0 min 0,000 mm 0,0 UV-I 0 W/m 6,1 C 10,3 C 3,2 km/h (1 Bft) 100,00 %
05.04.2018 01:28 9,9 C 7,2 C 76 % 1007,5 hPa 0,0 l/m 4,0 km/h (1 Bft) SW 234 0 min 0,000 mm 0,0 UV-I 0 W/m 5,9 C 9,9 C 6,4 km/h (2 Bft) 94,34 %
05.04.2018 01:30 9,8 C 7,2 C 77 % 1007,6 hPa 0,0 l/m 4,8 km/h (1 Bft) SW 234 0 min 0,000 mm 0,0 UV-I 0 W/m 6,0 C 9,8 C 6,4 km/h (2 Bft) 94,34 %
05.04.2018 01:32 9,7 C 7,2 C 78 % 1007,7 hPa 0,0 l/m 5,4 km/h (1 Bft) W-SW 238 0 min 0,000 mm 0,0 UV-I 0 W/m 6,1 C 9,7 C 6,4 km/h (2 Bft) 97,37 %
05.04.2018 01:34 9,6 C 7,2 C 78 % 1007,6 hPa 0,0 l/m 5,8 km/h (2 Bft) W-SW 237 0 min 0,000 mm 0,0 UV-I 0 W/m 6,0 C 9,6 C 6,4 km/h (2 Bft) 100,00 %
05.04.2018 01:36 9,6 C 7,2 C 78 % 1007,6 hPa 0,0 l/m 7,4 km/h (2 Bft) SW 217 0 min 0,000 mm 0,0 UV-I 0 W/m 6,0 C 8,9 C 9,7 km/h (2 Bft) 100,00 %
05.04.2018 01:38 9,5 C 7,2 C 78 % 1007,5 hPa 0,0 l/m 6,8 km/h (2 Bft) SW 236 0 min 0,000 mm 0,0 UV-I 0 W/m 5,9 C 9,2 C 8,0 km/h (2 Bft) 98,11 %
05.04.2018 01:40 9,5 C 7,2 C 78 % 1007,5 hPa 0,0 l/m 6,5 km/h (2 Bft) SW 230 0 min 0,000 mm 0,0 UV-I 0 W/m 5,9 C 9,5 C 8,0 km/h (2 Bft) 100,00 %
05.04.2018 01:42 9,6 C 7,2 C 78 % 1007,5 hPa 0,0 l/m 6,2 km/h (2 Bft) SW 234 0 min 0,000 mm 0,0 UV-I 0 W/m 6,0 C 9,6 C 8,0 km/h (2 Bft) 98,00 %
05.04.2018 01:44 9,7 C 7,2 C 77 % 1007,5 hPa 0,0 l/m 6,7 km/h (2 Bft) W-SW 244 0 min 0,000 mm 0,0 UV-I 0 W/m 5,9 C 9,5 C 8,0 km/h (2 Bft) 97,73 %
05.04.2018 01:46 9,8 C 7,2 C 77 % 1007,5 hPa 0,0 l/m 5,5 km/h (1 Bft) W-SW 248 0 min 0,000 mm 0,0 UV-I 0 W/m 6,0 C 9,8 C 8,0 km/h (2 Bft) 96,00 %
05.04.2018 01:48 9,8 C 7,8 C 77 % 1007,6 hPa 0,0 l/m 6,7 km/h (2 Bft) W-SW 257 0 min 0,000 mm 0,0 UV-I 0 W/m 6,0 C 9,6 C 11,3 km/h (2 Bft) 100,00 %
05.04.2018 01:50 9,8 C 7,8 C 77 % 1007,5 hPa 0,0 l/m 5,9 km/h (2 Bft) W-SW 258 0 min 0,000 mm 0,0 UV-I 0 W/m 6,0 C 9,8 C 8,0 km/h (2 Bft) 100,00 %
05.04.2018 01:52 9,8 C 7,8 C 77 % 1007,5 hPa 0,0 l/m 5,7 km/h (1 Bft) W-SW 253 0 min 0,000 mm 0,0 UV-I 0 W/m 6,0 C 9,8 C 8,0 km/h (2 Bft) 98,00 %
05.04.2018 01:54 9,9 C 7,8 C 76 % 1007,5 hPa 0,0 l/m 6,8 km/h (2 Bft) W-SW 254 0 min 0,000 mm 0,0 UV-I 0 W/m 5,9 C 9,6 C 11,3 km/h (2 Bft) 100,00 %
05.04.2018 01:56 9,9 C 7,8 C 76 % 1007,5 hPa 0,0 l/m 6,1 km/h (2 Bft) W-SW 248 0 min 0,000 mm 0,0 UV-I 0 W/m 5,9 C 9,9 C 9,7 km/h (2 Bft) 100,00 %
05.04.2018 01:58 9,9 C 7,8 C 76 % 1007,5 hPa 0,0 l/m 5,4 km/h (1 Bft) W-SW 248 0 min 0,000 mm 0,0 UV-I 0 W/m 5,9 C 9,9 C 9,7 km/h (2 Bft) 98,18 %
05.04.2018 02:00 9,9 C 7,8 C 76 % 1007,5 hPa 0,0 l/m 5,8 km/h (2 Bft) W-SW 246 0 min 0,026 mm 0,0 UV-I 0 W/m 5,9 C 9,9 C 8,0 km/h (2 Bft) 100,00 %
05.04.2018 02:02 9,9 C 7,8 C 76 % 1007,5 hPa 0,0 l/m 5,7 km/h (1 Bft) W-SW 246 0 min 0,000 mm 0,0 UV-I 0 W/m 5,9 C 9,9 C 8,0 km/h (2 Bft) 100,00 %
05.04.2018 02:04 9,9 C 7,8 C 76 % 1007,6 hPa 0,0 l/m 6,5 km/h (2 Bft) SW 227 0 min 0,000 mm 0,0 UV-I 0 W/m 5,9 C 9,9 C 9,7 km/h (2 Bft) 100,00 %
05.04.2018 02:06 9,8 C 7,8 C 76 % 1007,7 hPa 0,0 l/m 6,4 km/h (2 Bft) SW 219 0 min 0,000 mm 0,0 UV-I 0 W/m 5,8 C 9,8 C 8,0 km/h (2 Bft) 98,00 %
05.04.2018 02:08 9,6 C 7,8 C 77 % 1007,7 hPa 0,0 l/m 7,1 km/h (2 Bft) S-SW 212 0 min 0,000 mm 0,0 UV-I 0 W/m 5,8 C 9,1 C 8,0 km/h (2 Bft) 100,00 %
05.04.2018 02:10 9,4 C 7,8 C 77 % 1007,7 hPa 0,0 l/m 7,5 km/h (2 Bft) SW 228 0 min 0,000 mm 0,0 UV-I 0 W/m 5,6 C 8,6 C 11,3 km/h (2 Bft) 97,14 %
05.04.2018 02:12 9,5 C 7,8 C 77 % 1007,7 hPa 0,0 l/m 6,6 km/h (2 Bft) W-SW 242 0 min 0,000 mm 0,0 UV-I 0 W/m 5,7 C 9,4 C 9,7 km/h (2 Bft) 100,00 %
05.04.2018 02:14 9,6 C 7,8 C 77 % 1007,6 hPa 0,0 l/m 5,8 km/h (2 Bft) SW 227 0 min 0,000 mm 0,0 UV-I 0 W/m 5,8 C 9,6 C 8,0 km/h (2 Bft) 100,00 %
05.04.2018 02:16 9,7 C 7,8 C 76 % 1007,7 hPa 0,0 l/m 6,6 km/h (2 Bft) S-SW 213 0 min 0,000 mm 0,0 UV-I 0 W/m 5,7 C 9,6 C 8,0 km/h (2 Bft) 98,00 %
05.04.2018 02:18 9,6 C 7,8 C 76 % 1007,7 hPa 0,0 l/m 7,5 km/h (2 Bft) SW 216 0 min 0,000 mm 0,0 UV-I 0 W/m 5,6 C 8,8 C 9,7 km/h (2 Bft) 97,73 %
05.04.2018 02:20 9,6 C 7,8 C 77 % 1007,7 hPa 0,0 l/m 6,8 km/h (2 Bft) S-SW 211 0 min 0,000 mm 0,0 UV-I 0 W/m 5,8 C 9,3 C 9,7 km/h (2 Bft) 94,00 %
05.04.2018 02:22 9,6 C 7,8 C 77 % 1007,7 hPa 0,0 l/m 5,1 km/h (1 Bft) SW 234 0 min 0,000 mm 0,0 UV-I 0 W/m 5,8 C 9,6 C 8,0 km/h (2 Bft) 98,00 %
05.04.2018 02:24 9,5 C 7,8 C 77 % 1007,7 hPa 0,0 l/m 7,1 km/h (2 Bft) W-SW 242 0 min 0,000 mm 0,0 UV-I 0 W/m 5,7 C 9,0 C 11,3 km/h (2 Bft) 97,56 %
05.04.2018 02:26 9,5 C 7,8 C 77 % 1007,6 hPa 0,0 l/m 6,1 km/h (2 Bft) SW 217 0 min 0,000 mm 0,0 UV-I 0 W/m 5,7 C 9,5 C 8,0 km/h (2 Bft) 98,11 %
05.04.2018 02:28 9,5 C 7,8 C 77 % 1007,7 hPa 0,0 l/m 7,2 km/h (2 Bft) SW 217 0 min 0,000 mm 0,0 UV-I 0 W/m 5,7 C 8,9 C 9,7 km/h (2 Bft) 100,00 %
05.04.2018 02:30 9,4 C 7,8 C 77 % 1007,6 hPa 0,0 l/m 6,9 km/h (2 Bft) SW 215 0 min 0,000 mm 0,0 UV-I 0 W/m 5,6 C 9,0 C 11,3 km/h (2 Bft) 96,92 %
05.04.2018 02:32 9,4 C 7,8 C 77 % 1007,6 hPa 0,0 l/m 6,8 km/h (2 Bft) S-SW 205 0 min 0,000 mm 0,0 UV-I 0 W/m 5,6 C 9,1 C 8,0 km/h (2 Bft) 97,87 %
05.04.2018 02:34 9,1 C 7,8 C 77 % 1007,6 hPa 0,0 l/m 5,5 km/h (1 Bft) S-SW 199 0 min 0,000 mm 0,0 UV-I 0 W/m 5,3 C 9,1 C 6,4 km/h (2 Bft) 98,00 %
05.04.2018 02:36 8,7 C 7,8 C 80 % 1007,6 hPa 0,0 l/m 5,4 km/h (1 Bft) S-SW 199 0 min 0,000 mm 0,0 UV-I 0 W/m 5,4 C 8,7 C 6,4 km/h (2 Bft) 96,00 %
05.04.2018 02:38 8,7 C 7,8 C 80 % 1007,6 hPa 0,0 l/m 6,7 km/h (2 Bft) S-SW 207 0 min 0,000 mm 0,0 UV-I 0 W/m 5,4 C 8,5 C 8,0 km/h (2 Bft) 97,14 %
05.04.2018 02:40 8,8 C 7,8 C 80 % 1007,6 hPa 0,0 l/m 6,4 km/h (2 Bft) S-SW 207 0 min 0,000 mm 0,0 UV-I 0 W/m 5,5 C 8,8 C 8,0 km/h (2 Bft) 98,00 %
05.04.2018 02:42 9,1 C 7,8 C 78 % 1007,7 hPa 0,0 l/m 7,0 km/h (2 Bft) S-SW 209 0 min 0,000 mm 0,0 UV-I 0 W/m 5,5 C 8,7 C 9,7 km/h (2 Bft) 96,43 %
05.04.2018 02:44 9,2 C 7,8 C 78 % 1007,7 hPa 0,0 l/m 6,9 km/h (2 Bft) S-SW 202 0 min 0,000 mm 0,0 UV-I 0 W/m 5,6 C 8,8 C 9,7 km/h (2 Bft) 97,87 %
05.04.2018 02:46 9,3 C 7,8 C 77 % 1007,7 hPa 0,0 l/m 7,2 km/h (2 Bft) SW 216 0 min 0,000 mm 0,0 UV-I 0 W/m 5,5 C 8,7 C 9,7 km/h (2 Bft) 95,74 %
05.04.2018 02:48 9,2 C 7,8 C 77 % 1007,8 hPa 0,0 l/m 7,6 km/h (2 Bft) SW 227 0 min 0,000 mm 0,0 UV-I 0 W/m 5,4 C 8,3 C 9,7 km/h (2 Bft) 95,12 %
05.04.2018 02:50 9,2 C 7,8 C 77 % 1007,8 hPa 0,0 l/m 8,1 km/h (2 Bft) SW 223 0 min 0,000 mm 0,0 UV-I 0 W/m 5,4 C 7,9 C 9,7 km/h (2 Bft) 96,00 %
05.04.2018 02:52 9,1 C 7,8 C 78 % 1007,8 hPa 0,0 l/m 5,4 km/h (1 Bft) SW 227 0 min 0,000 mm 0,0 UV-I 0 W/m 5,5 C 9,1 C 6,4 km/h (2 Bft) 95,45 %
05.04.2018 02:54 9,0 C 7,8 C 78 % 1007,8 hPa 0,0 l/m 6,9 km/h (2 Bft) SW 232 0 min 0,000 mm 0,0 UV-I 0 W/m 5,4 C 8,6 C 9,7 km/h (2 Bft) 98,00 %
05.04.2018 02:56 8,9 C 7,8 C 78 % 1007,8 hPa 0,0 l/m 6,5 km/h (2 Bft) SW 234 0 min 0,000 mm 0,0 UV-I 0 W/m 5,3 C 8,9 C 9,7 km/h (2 Bft) 97,37 %
05.04.2018 02:58 8,9 C 7,8 C 79 % 1007,8 hPa 0,0 l/m 6,3 km/h (2 Bft) SW 227 0 min 0,000 mm 0,0 UV-I 0 W/m 5,5 C 8,9 C 8,0 km/h (2 Bft) 96,00 %
05.04.2018 03:00 8,9 C 7,8 C 79 % 1007,7 hPa 0,0 l/m 5,9 km/h (2 Bft) SW 227 0 min 0,000 mm 0,0 UV-I 0 W/m 5,5 C 8,9 C 6,4 km/h (2 Bft) 95,74 %
05.04.2018 03:02 8,8 C 7,8 C 79 % 1007,8 hPa 0,0 l/m 6,1 km/h (2 Bft) SW 226 0 min 0,025 mm 0,0 UV-I 0 W/m 5,4 C 8,8 C 6,4 km/h (2 Bft) 98,00 %
05.04.2018 03:04 8,7 C 7,8 C 80 % 1007,9 hPa 0,0 l/m 7,0 km/h (2 Bft) S-SW 209 0 min 0,000 mm 0,0 UV-I 0 W/m 5,4 C 8,2 C 9,7 km/h (2 Bft) 97,56 %
05.04.2018 03:06 8,5 C 7,8 C 80 % 1007,9 hPa 0,0 l/m 7,4 km/h (2 Bft) S-SW 194 0 min 0,000 mm 0,0 UV-I 0 W/m 5,3 C 7,7 C 12,9 km/h (3 Bft) 96,00 %
05.04.2018 03:08 8,7 C 7,8 C 80 % 1008,0 hPa 0,0 l/m 6,8 km/h (2 Bft) SW 219 0 min 0,000 mm 0,0 UV-I 0 W/m 5,4 C 8,4 C 12,9 km/h (3 Bft) 98,11 %
05.04.2018 03:10 8,8 C 7,8 C 79 % 1008,0 hPa 0,0 l/m 5,0 km/h (1 Bft) S-SW 207 0 min 0,000 mm 0,0 UV-I 0 W/m 5,4 C 8,8 C 8,0 km/h (2 Bft) 97,22 %
05.04.2018 03:12 9,0 C 7,8 C 78 % 1008,1 hPa 0,0 l/m 6,6 km/h (2 Bft) S-SW 201 0 min 0,000 mm 0,0 UV-I 0 W/m 5,4 C 8,9 C 9,7 km/h (2 Bft) 98,11 %
05.04.2018 03:14 9,1 C 7,8 C 77 % 1008,1 hPa 0,0 l/m 6,0 km/h (2 Bft) S-SW 201 0 min 0,000 mm 0,0 UV-I 0 W/m 5,3 C 9,1 C 8,0 km/h (2 Bft) 96,00 %
05.04.2018 03:16 9,0 C 7,8 C 77 % 1008,1 hPa 0,0 l/m 5,2 km/h (1 Bft) S-SW 202 0 min 0,000 mm 0,0 UV-I 0 W/m 5,2 C 9,0 C 6,4 km/h (2 Bft) 94,74 %
05.04.2018 03:18 8,8 C 7,8 C 78 % 1008,1 hPa 0,0 l/m 4,3 km/h (1 Bft) S-SW 205 0 min 0,000 mm 0,0 UV-I 0 W/m 5,2 C 8,8 C 6,4 km/h (2 Bft) 96,00 %
05.04.2018 03:21 8,8 C 7,8 C 79 % 1008,2 hPa 0,0 l/m 5,4 km/h (1 Bft) S-SW 200 0 min 0,000 mm 0,0 UV-I 0 W/m 5,4 C 8,8 C 6,4 km/h (2 Bft) 96,34 %
05.04.2018 03:22 8,8 C 7,8 C 79 % 1008,2 hPa 0,0 l/m 5,6 km/h (1 Bft) S-SW 196 0 min 0,000 mm 0,0 UV-I 0 W/m 5,4 C 8,8 C 6,4 km/h (2 Bft) 100,00 %
05.04.2018 03:24 8,8 C 7,8 C 79 % 1008,2 hPa 0,0 l/m 4,9 km/h (1 Bft) S-SW 197 0 min 0,000 mm 0,0 UV-I 0 W/m 5,4 C 8,8 C 6,4 km/h (2 Bft) 96,00 %
05.04.2018 03:26 8,9 C 7,8 C 78 % 1008,2 hPa 0,0 l/m 4,7 km/h (1 Bft) S-SW 197 0 min 0,000 mm 0,0 UV-I 0 W/m 5,3 C 8,9 C 6,4 km/h (2 Bft) 95,45 %
05.04.2018 03:28 8,8 C 7,8 C 79 % 1008,2 hPa 0,0 l/m 5,1 km/h (1 Bft) S-SW 197 0 min 0,000 mm 0,0 UV-I 0 W/m 5,4 C 8,8 C 6,4 km/h (2 Bft) 100,00 %
05.04.2018 03:30 8,4 C 7,8 C 79 % 1008,2 hPa 0,0 l/m 5,3 km/h (1 Bft) S-SW 192 0 min 0,000 mm 0,0 UV-I 0 W/m 5,0 C 8,4 C 6,4 km/h (2 Bft) 96,23 %
05.04.2018 03:32 8,4 C 7,8 C 81 % 1008,2 hPa 0,0 l/m 4,7 km/h (1 Bft) S-SW 201 0 min 0,000 mm 0,0 UV-I 0 W/m 5,3 C 8,4 C 6,4 km/h (2 Bft) 96,00 %
05.04.2018 03:34 8,5 C 7,8 C 81 % 1008,1 hPa 0,0 l/m 3,5 km/h (1 Bft) S-SW 201 0 min 0,000 mm 0,0 UV-I 0 W/m 5,4 C 8,5 C 4,8 km/h (1 Bft) 97,87 %
05.04.2018 03:36 8,6 C 7,8 C 80 % 1008,1 hPa 0,0 l/m 3,4 km/h (1 Bft) S-SW 200 0 min 0,000 mm 0,0 UV-I 0 W/m 5,3 C 8,6 C 4,8 km/h (1 Bft) 97,87 %
05.04.2018 03:38 8,7 C 7,8 C 80 % 1008,0 hPa 0,0 l/m 5,5 km/h (1 Bft) S-SW 213 0 min 0,000 mm 0,0 UV-I 0 W/m 5,4 C 8,7 C 9,7 km/h (2 Bft) 94,74 %
05.04.2018 03:40 8,8 C 7,8 C 79 % 1008,1 hPa 0,0 l/m 3,5 km/h (1 Bft) SW 224 0 min 0,000 mm 0,0 UV-I 0 W/m 5,4 C 8,8 C 6,4 km/h (2 Bft) 97,87 %
05.04.2018 03:42 8,9 C 7,8 C 79 % 1008,1 hPa 0,0 l/m 4,4 km/h (1 Bft) W-SW 245 0 min 0,000 mm 0,0 UV-I 0 W/m 5,5 C 8,9 C 6,4 km/h (2 Bft) 94,00 %
05.04.2018 03:44 8,8 C 7,8 C 79 % 1008,1 hPa 0,0 l/m 4,3 km/h (1 Bft) W-SW 245 0 min 0,000 mm 0,0 UV-I 0 W/m 5,4 C 8,8 C 4,8 km/h (1 Bft) 96,00 %
05.04.2018 03:46 8,6 C 7,8 C 80 % 1008,1 hPa 0,0 l/m 7,0 km/h (2 Bft) SW 215 0 min 0,000 mm 0,0 UV-I 0 W/m 5,3 C 8,1 C 9,7 km/h (2 Bft) 95,74 %
05.04.2018 03:48 8,5 C 7,8 C 81 % 1008,1 hPa 0,0 l/m 6,6 km/h (2 Bft) S-SW 206 0 min 0,000 mm 0,0 UV-I 0 W/m 5,4 C 8,4 C 9,7 km/h (2 Bft) 96,00 %
05.04.2018 03:50 8,4 C 7,8 C 81 % 1008,1 hPa 0,0 l/m 5,3 km/h (1 Bft) S-SW 206 0 min 0,000 mm 0,0 UV-I 0 W/m 5,3 C 8,4 C 6,4 km/h (2 Bft) 97,44 %
05.04.2018 03:52 8,4 C 7,8 C 81 % 1008,1 hPa 0,0 l/m 6,1 km/h (2 Bft) SW 221 0 min 0,000 mm 0,0 UV-I 0 W/m 5,3 C 8,4 C 8,0 km/h (2 Bft) 97,87 %
05.04.2018 03:54 8,4 C 7,8 C 81 % 1008,1 hPa 0,0 l/m 5,8 km/h (2 Bft) SW 220 0 min 0,000 mm 0,0 UV-I 0 W/m 5,3 C 8,4 C 8,0 km/h (2 Bft) 98,11 %
05.04.2018 03:56 8,6 C 7,8 C 81 % 1008,1 hPa 0,0 l/m 7,2 km/h (2 Bft) S-SW 205 0 min 0,000 mm 0,0 UV-I 0 W/m 5,5 C 8,0 C 8,0 km/h (2 Bft) 100,00 %
05.04.2018 03:58 8,6 C 7,8 C 81 % 1008,2 hPa 0,0 l/m 7,9 km/h (2 Bft) S-SW 210 0 min 0,000 mm 0,0 UV-I 0 W/m 5,5 C 7,5 C 9,7 km/h (2 Bft) 100,00 %
05.04.2018 04:00 8,6 C 7,8 C 80 % 1008,2 hPa 0,0 l/m 5,1 km/h (1 Bft) SW 231 0 min 0,026 mm 0,0 UV-I 0 W/m 5,3 C 8,6 C 8,0 km/h (2 Bft) 95,12 %
05.04.2018 04:02 8,6 C 7,8 C 81 % 1008,3 hPa 0,0 l/m 4,8 km/h (1 Bft) SW 231 0 min 0,000 mm 0,0 UV-I 0 W/m 5,5 C 8,6 C 6,4 km/h (2 Bft) 100,00 %
05.04.2018 04:04 8,6 C 7,8 C 81 % 1008,2 hPa 0,0 l/m 6,4 km/h (2 Bft) SW 217 0 min 0,000 mm 0,0 UV-I 0 W/m 5,5 C 8,6 C 8,0 km/h (2 Bft) 100,00 %
05.04.2018 04:06 8,5 C 7,8 C 81 % 1008,2 hPa 0,0 l/m 5,0 km/h (1 Bft) SW 218 0 min 0,000 mm 0,0 UV-I 0 W/m 5,4 C 8,5 C 9,7 km/h (2 Bft) 100,00 %
05.04.2018 04:08 8,4 C 7,8 C 82 % 1008,2 hPa 0,0 l/m 4,0 km/h (1 Bft) SW 218 0 min 0,000 mm 0,0 UV-I 0 W/m 5,5 C 8,4 C 4,8 km/h (1 Bft) 100,00 %
05.04.2018 04:10 8,4 C 7,8 C 82 % 1008,2 hPa 0,0 l/m 5,4 km/h (1 Bft) SW 219 0 min 0,000 mm 0,0 UV-I 0 W/m 5,5 C 8,4 C 8,0 km/h (2 Bft) 100,00 %
05.04.2018 04:12 8,5 C 7,8 C 82 % 1008,3 hPa 0,0 l/m 5,5 km/h (1 Bft) SW 219 0 min 0,000 mm 0,0 UV-I 0 W/m 5,6 C 8,5 C 8,0 km/h (2 Bft) 100,00 %
05.04.2018 04:14 8,6 C 7,8 C 81 % 1008,4 hPa 0,0 l/m 6,3 km/h (2 Bft) SW 219 0 min 0,000 mm 0,0 UV-I 0 W/m 5,5 C 8,6 C 8,0 km/h (2 Bft) 100,00 %
05.04.2018 04:16 8,8 C 7,8 C 80 % 1008,4 hPa 0,0 l/m 5,4 km/h (1 Bft) SW 219 0 min 0,000 mm 0,0 UV-I 0 W/m 5,5 C 8,8 C 6,4 km/h (2 Bft) 100,00 %
05.04.2018 04:18 8,8 C 7,8 C 80 % 1008,4 hPa 0,0 l/m 5,4 km/h (1 Bft) SW 218 0 min 0,000 mm 0,0 UV-I 0 W/m 5,5 C 8,8 C 6,4 km/h (2 Bft) 100,00 %
05.04.2018 04:20 8,8 C 7,8 C 80 % 1008,4 hPa 0,0 l/m 4,5 km/h (1 Bft) SW 221 0 min 0,000 mm 0,0 UV-I 0 W/m 5,5 C 8,8 C 4,8 km/h (1 Bft) 97,87 %
05.04.2018 04:22 8,9 C 7,8 C 80 % 1008,4 hPa 0,0 l/m 4,3 km/h (1 Bft) SW 221 0 min 0,000 mm 0,0 UV-I 0 W/m 5,6 C 8,9 C 4,8 km/h (1 Bft) 100,00 %
05.04.2018 04:24 8,9 C 7,8 C 80 % 1008,3 hPa 0,0 l/m 5,6 km/h (1 Bft) SW 220 0 min 0,000 mm 0,0 UV-I 0 W/m 5,6 C 8,9 C 8,0 km/h (2 Bft) 100,00 %
05.04.2018 04:26 9,1 C 7,8 C 79 % 1008,3 hPa 0,0 l/m 5,8 km/h (2 Bft) SW 219 0 min 0,000 mm 0,0 UV-I 0 W/m 5,7 C 9,1 C 6,4 km/h (2 Bft) 100,00 %
05.04.2018 04:28 9,1 C 7,8 C 79 % 1008,3 hPa 0,0 l/m 5,2 km/h (1 Bft) SW 218 0 min 0,000 mm 0,0 UV-I 0 W/m 5,7 C 9,1 C 6,4 km/h (2 Bft) 100,00 %
05.04.2018 04:30 9,0 C 7,8 C 80 % 1008,3 hPa 0,0 l/m 3,9 km/h (1 Bft) SW 218 0 min 0,000 mm 0,0 UV-I 0 W/m 5,7 C 9,0 C 4,8 km/h (1 Bft) 100,00 %
05.04.2018 04:32 8,9 C 7,8 C 80 % 1008,4 hPa 0,0 l/m 5,4 km/h (1 Bft) SW 219 0 min 0,000 mm 0,0 UV-I 0 W/m 5,6 C 8,9 C 8,0 km/h (2 Bft) 100,00 %
05.04.2018 04:34 9,0 C 7,8 C 80 % 1008,5 hPa 0,0 l/m 4,9 km/h (1 Bft) SW 220 0 min 0,000 mm 0,0 UV-I 0 W/m 5,7 C 9,0 C 6,4 km/h (2 Bft) 97,92 %
05.04.2018 04:36 9,1 C 7,8 C 80 % 1008,4 hPa 0,0 l/m 5,0 km/h (1 Bft) SW 219 0 min 0,000 mm 0,0 UV-I 0 W/m 5,8 C 9,1 C 6,4 km/h (2 Bft) 100,00 %
05.04.2018 04:38 9,1 C 7,8 C 80 % 1008,4 hPa 0,0 l/m 4,0 km/h (1 Bft) SW 228 0 min 0,000 mm 0,0 UV-I 0 W/m 5,8 C 9,1 C 6,4 km/h (2 Bft) 100,00 %
05.04.2018 04:40 9,1 C 7,8 C 80 % 1008,4 hPa 0,0 l/m 3,4 km/h (1 Bft) SW 228 0 min 0,000 mm 0,0 UV-I 0 W/m 5,8 C 9,1 C 4,8 km/h (1 Bft) 100,00 %
05.04.2018 04:42 9,1 C 7,8 C 80 % 1008,4 hPa 0,0 l/m 5,4 km/h (1 Bft) W-SW 240 0 min 0,000 mm 0,0 UV-I 0 W/m 5,8 C 9,1 C 8,0 km/h (2 Bft) 100,00 %
05.04.2018 04:44 9,1 C 7,8 C 80 % 1008,6 hPa 0,0 l/m 5,2 km/h (1 Bft) SW 220 0 min 0,000 mm 0,0 UV-I 0 W/m 5,8 C 9,1 C 8,0 km/h (2 Bft) 100,00 %
05.04.2018 04:46 9,0 C 7,8 C 80 % 1008,6 hPa 0,0 l/m 6,3 km/h (2 Bft) S-SW 209 0 min 0,000 mm 0,0 UV-I 0 W/m 5,7 C 9,0 C 9,7 km/h (2 Bft) 100,00 %
05.04.2018 04:48 8,9 C 7,8 C 81 % 1008,6 hPa 0,0 l/m 5,8 km/h (2 Bft) S-SW 194 0 min 0,000 mm 0,0 UV-I 0 W/m 5,8 C 8,9 C 8,0 km/h (2 Bft) 100,00 %
05.04.2018 04:50 8,8 C 7,8 C 81 % 1008,6 hPa 0,0 l/m 5,4 km/h (1 Bft) S-SW 197 0 min 0,000 mm 0,0 UV-I 0 W/m 5,7 C 8,8 C 6,4 km/h (2 Bft) 100,00 %
05.04.2018 04:52 8,9 C 7,8 C 81 % 1008,6 hPa 0,0 l/m 5,1 km/h (1 Bft) S-SW 198 0 min 0,000 mm 0,0 UV-I 0 W/m 5,8 C 8,9 C 8,0 km/h (2 Bft) 100,00 %
05.04.2018 04:54 8,9 C 7,8 C 80 % 1008,7 hPa 0,0 l/m 5,1 km/h (1 Bft) S-SW 205 0 min 0,000 mm 0,0 UV-I 0 W/m 5,6 C 8,9 C 6,4 km/h (2 Bft) 98,11 %
05.04.2018 04:56 8,9 C 7,8 C 81 % 1008,7 hPa 0,0 l/m 5,5 km/h (1 Bft) SW 217 0 min 0,000 mm 0,0 UV-I 0 W/m 5,8 C 8,9 C 6,4 km/h (2 Bft) 97,37 %
05.04.2018 04:58 8,8 C 7,8 C 81 % 1008,7 hPa 0,0 l/m 4,4 km/h (1 Bft) SW 218 0 min 0,000 mm 0,0 UV-I 0 W/m 5,7 C 8,8 C 6,4 km/h (2 Bft) 100,00 %
05.04.2018 05:00 8,8 C 7,8 C 81 % 1008,7 hPa 0,0 l/m 4,6 km/h (1 Bft) W-SW 244 0 min 0,025 mm 0,0 UV-I 0 W/m 5,7 C 8,8 C 6,4 km/h (2 Bft) 100,00 %
05.04.2018 05:02 8,9 C 7,8 C 81 % 1008,7 hPa 0,0 l/m 4,7 km/h (1 Bft) SW 233 0 min 0,000 mm 0,0 UV-I 0 W/m 5,8 C 8,9 C 8,0 km/h (2 Bft) 100,00 %
05.04.2018 05:04 8,9 C 7,8 C 81 % 1008,8 hPa 0,0 l/m 6,0 km/h (2 Bft) SW 225 0 min 0,000 mm 0,0 UV-I 0 W/m 5,8 C 8,9 C 9,7 km/h (2 Bft) 97,56 %
05.04.2018 05:06 9,1 C 7,8 C 80 % 1008,7 hPa 0,0 l/m 5,9 km/h (2 Bft) SW 218 0 min 0,000 mm 0,0 UV-I 0 W/m 5,8 C 9,1 C 8,0 km/h (2 Bft) 100,00 %
05.04.2018 05:08 9,1 C 7,8 C 80 % 1008,6 hPa 0,0 l/m 6,6 km/h (2 Bft) S-SW 211 0 min 0,000 mm 0,0 UV-I 0 W/m 5,8 C 9,0 C 8,0 km/h (2 Bft) 100,00 %
05.04.2018 05:10 9,1 C 7,8 C 80 % 1008,6 hPa 0,0 l/m 6,1 km/h (2 Bft) S-SW 202 0 min 0,000 mm 0,0 UV-I 0 W/m 5,8 C 9,1 C 8,0 km/h (2 Bft) 100,00 %
05.04.2018 05:12 9,1 C 7,8 C 80 % 1008,6 hPa 0,0 l/m 8,7 km/h (2 Bft) SW 215 0 min 0,000 mm 0,0 UV-I 0 W/m 5,8 C 7,4 C 11,3 km/h (2 Bft) 100,00 %
05.04.2018 05:14 9,1 C 7,8 C 80 % 1008,6 hPa 0,0 l/m 7,5 km/h (2 Bft) S-SW 211 0 min 0,000 mm 0,0 UV-I 0 W/m 5,8 C 8,3 C 11,3 km/h (2 Bft) 97,87 %
05.04.2018 05:16 9,1 C 7,8 C 80 % 1008,6 hPa 0,0 l/m 7,6 km/h (2 Bft) S-SW 213 0 min 0,000 mm 0,0 UV-I 0 W/m 5,8 C 8,2 C 11,3 km/h (2 Bft) 94,29 %
05.04.2018 05:18 9,1 C 7,8 C 80 % 1008,6 hPa 0,0 l/m 7,5 km/h (2 Bft) SW 221 0 min 0,000 mm 0,0 UV-I 0 W/m 5,8 C 8,3 C 11,3 km/h (2 Bft) 100,00 %
05.04.2018 05:20 9,1 C 7,8 C 80 % 1008,7 hPa 0,0 l/m 7,9 km/h (2 Bft) SW 225 0 min 0,000 mm 0,0 UV-I 0 W/m 5,8 C 8,0 C 11,3 km/h (2 Bft) 98,11 %
05.04.2018 05:22 9,2 C 7,8 C 80 % 1008,7 hPa 0,0 l/m 9,3 km/h (2 Bft) S-SW 209 0 min 0,000 mm 0,0 UV-I 0 W/m 5,9 C 7,1 C 12,9 km/h (3 Bft) 100,00 %
05.04.2018 05:24 9,1 C 7,8 C 80 % 1008,7 hPa 0,0 l/m 8,9 km/h (2 Bft) S-SW 201 0 min 0,000 mm 0,0 UV-I 0 W/m 5,8 C 7,3 C 12,9 km/h (3 Bft) 100,00 %
05.04.2018 05:26 9,1 C 7,8 C 81 % 1008,8 hPa 0,0 l/m 6,3 km/h (2 Bft) SW 219 0 min 0,000 mm 0,0 UV-I 0 W/m 6,0 C 9,1 C 9,7 km/h (2 Bft) 96,30 %
05.04.2018 05:28 9,0 C 7,8 C 81 % 1008,8 hPa 0,0 l/m 4,9 km/h (1 Bft) S-SW 205 0 min 0,000 mm 0,0 UV-I 0 W/m 5,9 C 9,0 C 6,4 km/h (2 Bft) 100,00 %
05.04.2018 05:30 9,1 C 7,8 C 81 % 1008,8 hPa 0,0 l/m 6,6 km/h (2 Bft) SW 215 0 min 0,000 mm 0,0 UV-I 0 W/m 6,0 C 9,0 C 9,7 km/h (2 Bft) 96,23 %
05.04.2018 05:32 9,1 C 7,8 C 81 % 1008,9 hPa 0,0 l/m 5,5 km/h (1 Bft) S-SW 208 0 min 0,000 mm 0,0 UV-I 0 W/m 6,0 C 9,1 C 8,0 km/h (2 Bft) 95,74 %
05.04.2018 05:34 9,2 C 7,8 C 80 % 1008,9 hPa 0,0 l/m 4,9 km/h (1 Bft) SW 215 0 min 0,000 mm 0,0 UV-I 0 W/m 5,9 C 9,2 C 6,4 km/h (2 Bft) 97,56 %
05.04.2018 05:36 9,2 C 7,8 C 80 % 1009,0 hPa 0,0 l/m 5,1 km/h (1 Bft) S-SW 212 0 min 0,000 mm 0,0 UV-I 0 W/m 5,9 C 9,2 C 6,4 km/h (2 Bft) 97,73 %
05.04.2018 05:38 9,2 C 7,8 C 80 % 1009,0 hPa 0,0 l/m 4,2 km/h (1 Bft) S-SW 211 0 min 0,000 mm 0,0 UV-I 0 W/m 5,9 C 9,2 C 6,4 km/h (2 Bft) 98,00 %
05.04.2018 05:40 9,2 C 7,8 C 80 % 1009,0 hPa 0,0 l/m 4,4 km/h (1 Bft) S-SW 211 0 min 0,000 mm 0,0 UV-I 0 W/m 5,9 C 9,2 C 6,4 km/h (2 Bft) 96,00 %
05.04.2018 05:42 9,2 C 7,8 C 80 % 1009,0 hPa 0,0 l/m 3,9 km/h (1 Bft) S-SW 211 0 min 0,000 mm 0,0 UV-I 0 W/m 5,9 C 9,2 C 6,4 km/h (2 Bft) 97,62 %
05.04.2018 05:44 9,3 C 7,8 C 80 % 1009,0 hPa 0,0 l/m 4,7 km/h (1 Bft) SW 226 0 min 0,000 mm 0,0 UV-I 0 W/m 6,0 C 9,3 C 8,0 km/h (2 Bft) 97,87 %
05.04.2018 05:46 9,2 C 7,8 C 80 % 1009,0 hPa 0,0 l/m 4,6 km/h (1 Bft) S-SW 192 0 min 0,000 mm 0,0 UV-I 0 W/m 5,9 C 9,2 C 6,4 km/h (2 Bft) 95,74 %
05.04.2018 05:48 9,2 C 7,8 C 80 % 1009,0 hPa 0,0 l/m 4,4 km/h (1 Bft) SW 215 0 min 0,000 mm 0,0 UV-I 0 W/m 5,9 C 9,2 C 6,4 km/h (2 Bft) 97,87 %
05.04.2018 05:50 9,2 C 7,8 C 80 % 1009,0 hPa 0,0 l/m 6,2 km/h (2 Bft) S-SW 210 0 min 0,000 mm 0,0 UV-I 0 W/m 5,9 C 9,2 C 8,0 km/h (2 Bft) 98,00 %
05.04.2018 05:52 9,2 C 7,8 C 80 % 1009,0 hPa 0,0 l/m 4,8 km/h (1 Bft) S-SW 207 0 min 0,000 mm 0,0 UV-I 0 W/m 5,9 C 9,2 C 8,0 km/h (2 Bft) 95,74 %
05.04.2018 05:54 9,2 C 7,8 C 80 % 1009,0 hPa 0,0 l/m 6,0 km/h (2 Bft) S-SW 197 0 min 0,000 mm 0,0 UV-I 0 W/m 5,9 C 9,2 C 9,7 km/h (2 Bft) 97,37 %
05.04.2018 05:56 9,3 C 7,8 C 80 % 1009,0 hPa 0,0 l/m 5,8 km/h (2 Bft) S 180 0 min 0,000 mm 0,0 UV-I 0 W/m 6,0 C 9,3 C 8,0 km/h (2 Bft) 98,00 %
05.04.2018 05:58 9,3 C 7,8 C 79 % 1008,9 hPa 0,0 l/m 5,2 km/h (1 Bft) S 184 0 min 0,000 mm 0,0 UV-I 0 W/m 5,8 C 9,3 C 6,4 km/h (2 Bft) 98,00 %
05.04.2018 06:00 9,3 C 7,8 C 79 % 1008,9 hPa 0,0 l/m 6,0 km/h (2 Bft) S 184 0 min 0,025 mm 0,0 UV-I 0 W/m 5,8 C 9,3 C 8,0 km/h (2 Bft) 98,00 %
05.04.2018 06:02 9,4 C 7,8 C 79 % 1008,9 hPa 0,0 l/m 3,9 km/h (1 Bft) S 184 0 min 0,000 mm 0,0 UV-I 0 W/m 5,9 C 9,4 C 6,4 km/h (2 Bft) 94,00 %
05.04.2018 06:04 9,3 C 7,8 C 79 % 1008,8 hPa 0,0 l/m 3,8 km/h (1 Bft) S-SW 198 0 min 0,000 mm 0,0 UV-I 0 W/m 5,8 C 9,3 C 4,8 km/h (1 Bft) 94,74 %
05.04.2018 06:06 9,3 C 7,8 C 79 % 1008,9 hPa 0,0 l/m 4,5 km/h (1 Bft) SW 217 0 min 0,000 mm 0,0 UV-I 0 W/m 5,8 C 9,3 C 6,4 km/h (2 Bft) 98,11 %
05.04.2018 06:08 9,2 C 7,8 C 79 % 1008,8 hPa 0,0 l/m 5,1 km/h (1 Bft) SW 215 0 min 0,000 mm 0,0 UV-I 0 W/m 5,8 C 9,2 C 6,4 km/h (2 Bft) 100,00 %
05.04.2018 06:10 9,2 C 7,8 C 79 % 1008,8 hPa 0,0 l/m 4,6 km/h (1 Bft) SW 220 0 min 0,000 mm 0,0 UV-I 0 W/m 5,8 C 9,2 C 6,4 km/h (2 Bft) 100,00 %
05.04.2018 06:12 9,1 C 7,8 C 80 % 1008,9 hPa 0,0 l/m 5,5 km/h (1 Bft) S-SW 208 0 min 0,000 mm 0,0 UV-I 0 W/m 5,8 C 9,1 C 6,4 km/h (2 Bft) 100,00 %
05.04.2018 06:14 8,9 C 7,8 C 81 % 1009,0 hPa 0,0 l/m 5,6 km/h (1 Bft) S-SW 208 0 min 0,000 mm 0,0 UV-I 0 W/m 5,8 C 8,9 C 6,4 km/h (2 Bft) 96,00 %
05.04.2018 06:16 8,8 C 7,8 C 81 % 1009,0 hPa 0,0 l/m 5,8 km/h (2 Bft) S-SW 208 0 min 0,000 mm 0,0 UV-I 0 W/m 5,7 C 8,8 C 8,0 km/h (2 Bft) 97,37 %
05.04.2018 06:18 8,8 C 7,8 C 81 % 1009,0 hPa 0,0 l/m 5,4 km/h (1 Bft) S-SW 211 0 min 0,000 mm 0,0 UV-I 0 W/m 5,7 C 8,8 C 6,4 km/h (2 Bft) 93,75 %
05.04.2018 06:20 9,0 C 7,8 C 80 % 1009,0 hPa 0,0 l/m 4,6 km/h (1 Bft) S-SW 211 0 min 0,000 mm 0,0 UV-I 0 W/m 5,7 C 9,0 C 6,4 km/h (2 Bft) 96,00 %
05.04.2018 06:22 9,1 C 7,8 C 80 % 1009,1 hPa 0,0 l/m 4,9 km/h (1 Bft) S-SW 211 0 min 0,000 mm 0,0 UV-I 0 W/m 5,8 C 9,1 C 6,4 km/h (2 Bft) 98,08 %
05.04.2018 06:24 9,0 C 7,8 C 80 % 1009,1 hPa 0,0 l/m 4,5 km/h (1 Bft) S-SW 211 0 min 0,000 mm 0,0 UV-I 0 W/m 5,7 C 9,0 C 6,4 km/h (2 Bft) 97,87 %
05.04.2018 06:26 8,9 C 7,8 C 80 % 1009,1 hPa 0,0 l/m 3,4 km/h (1 Bft) S-SW 211 0 min 0,000 mm 0,0 UV-I 5 W/m 5,6 C 8,9 C 4,8 km/h (1 Bft) 97,44 %
05.04.2018 06:28 8,9 C 7,8 C 80 % 1009,1 hPa 0,0 l/m 4,4 km/h (1 Bft) S-SW 211 0 min 0,000 mm 0,0 UV-I 5 W/m 5,6 C 8,9 C 4,8 km/h (1 Bft) 97,87 %
05.04.2018 06:30 8,8 C 7,8 C 80 % 1009,2 hPa 0,0 l/m 5,1 km/h (1 Bft) S-SW 212 0 min 0,000 mm 0,0 UV-I 5 W/m 5,5 C 8,8 C 6,4 km/h (2 Bft) 96,00 %
05.04.2018 06:32 8,6 C 7,8 C 81 % 1009,2 hPa 0,0 l/m 5,5 km/h (1 Bft) SW 215 0 min 0,000 mm 0,0 UV-I 5 W/m 5,5 C 8,6 C 8,0 km/h (2 Bft) 97,87 %
05.04.2018 06:34 8,5 C 7,8 C 81 % 1009,4 hPa 0,0 l/m 6,3 km/h (2 Bft) SW 218 0 min 0,000 mm 0,0 UV-I 5 W/m 5,4 C 8,5 C 8,0 km/h (2 Bft) 98,00 %
05.04.2018 06:36 8,4 C 7,8 C 82 % 1009,4 hPa 0,0 l/m 6,8 km/h (2 Bft) S-SW 212 0 min 0,000 mm 0,0 UV-I 5 W/m 5,5 C 8,1 C 8,0 km/h (2 Bft) 97,73 %
05.04.2018 06:38 8,4 C 7,8 C 82 % 1009,4 hPa 0,0 l/m 6,9 km/h (2 Bft) SW 216 0 min 0,000 mm 0,0 UV-I 6 W/m 5,5 C 8,0 C 8,0 km/h (2 Bft) 97,56 %
05.04.2018 06:40 8,4 C 7,8 C 82 % 1009,5 hPa 0,0 l/m 6,9 km/h (2 Bft) S-SW 207 0 min 0,000 mm 0,0 UV-I 7 W/m 5,5 C 8,0 C 8,0 km/h (2 Bft) 95,74 %
05.04.2018 06:42 8,4 C 7,8 C 82 % 1009,6 hPa 0,0 l/m 5,9 km/h (2 Bft) S-SW 207 0 min 0,000 mm 0,0 UV-I 7 W/m 5,5 C 8,4 C 6,4 km/h (2 Bft) 98,21 %
05.04.2018 06:44 8,6 C 7,8 C 82 % 1009,8 hPa 0,0 l/m 6,5 km/h (2 Bft) S-SW 205 0 min 0,000 mm 0,0 UV-I 7 W/m 5,7 C 8,5 C 8,0 km/h (2 Bft) 97,56 %
05.04.2018 06:46 8,7 C 7,8 C 82 % 1009,8 hPa 0,0 l/m 5,8 km/h (2 Bft) S 190 0 min 0,000 mm 0,0 UV-I 7 W/m 5,8 C 8,7 C 8,0 km/h (2 Bft) 98,00 %
05.04.2018 06:48 8,8 C 7,8 C 81 % 1009,8 hPa 0,0 l/m 5,5 km/h (1 Bft) S-SW 196 0 min 0,000 mm 0,0 UV-I 7 W/m 5,7 C 8,8 C 6,4 km/h (2 Bft) 95,12 %
05.04.2018 06:50 8,9 C 7,8 C 80 % 1009,8 hPa 0,0 l/m 4,9 km/h (1 Bft) S-SW 195 0 min 0,000 mm 0,0 UV-I 7 W/m 5,6 C 8,9 C 6,4 km/h (2 Bft) 98,00 %
05.04.2018 06:52 8,9 C 7,8 C 80 % 1009,9 hPa 0,0 l/m 3,2 km/h (1 Bft) S-SW 196 0 min 0,000 mm 0,0 UV-I 7 W/m 5,6 C 8,9 C 6,4 km/h (2 Bft) 97,56 %
05.04.2018 06:54 9,1 C 7,8 C 80 % 1009,9 hPa 0,0 l/m 3,5 km/h (1 Bft) S-SW 196 0 min 0,000 mm 0,0 UV-I 9 W/m 5,8 C 9,1 C 6,4 km/h (2 Bft) 98,21 %
05.04.2018 06:56 9,1 C 7,8 C 80 % 1009,9 hPa 0,0 l/m 4,6 km/h (1 Bft) S-SW 199 0 min 0,000 mm 0,0 UV-I 9 W/m 5,8 C 9,1 C 6,4 km/h (2 Bft) 98,00 %
05.04.2018 06:58 9,1 C 7,8 C 80 % 1009,9 hPa 0,0 l/m 4,6 km/h (1 Bft) S-SW 199 0 min 0,000 mm 0,0 UV-I 9 W/m 5,8 C 9,1 C 6,4 km/h (2 Bft) 95,74 %
05.04.2018 07:00 9,0 C 7,8 C 80 % 1009,9 hPa 0,0 l/m 4,7 km/h (1 Bft) S-SW 202 0 min 0,026 mm 0,0 UV-I 9 W/m 5,7 C 9,0 C 6,4 km/h (2 Bft) 100,00 %
05.04.2018 07:02 8,8 C 7,8 C 81 % 1010,0 hPa 0,0 l/m 4,9 km/h (1 Bft) SW 214 0 min 0,000 mm 0,0 UV-I 10 W/m 5,7 C 8,8 C 6,4 km/h (2 Bft) 96,67 %
05.04.2018 07:04 8,7 C 7,8 C 81 % 1010,0 hPa 0,0 l/m 3,5 km/h (1 Bft) SW 214 0 min 0,000 mm 0,0 UV-I 11 W/m 5,6 C 8,7 C 4,8 km/h (1 Bft) 97,18 %
05.04.2018 07:06 8,7 C 7,8 C 82 % 1010,0 hPa 0,0 l/m 3,6 km/h (1 Bft) SW 215 0 min 0,000 mm 0,0 UV-I 14 W/m 5,8 C 8,7 C 6,4 km/h (2 Bft) 98,00 %
05.04.2018 07:08 8,6 C 7,8 C 83 % 1010,0 hPa 0,0 l/m 3,1 km/h (1 Bft) SW 215 0 min 0,000 mm 0,0 UV-I 16 W/m 5,9 C 8,6 C 4,8 km/h (1 Bft) 95,12 %
05.04.2018 07:10 8,6 C 7,8 C 83 % 1010,0 hPa 0,0 l/m 3,1 km/h (1 Bft) SW 215 0 min 0,000 mm 0,0 UV-I 9 W/m 5,9 C 8,6 C 4,8 km/h (1 Bft) 97,87 %
05.04.2018 07:12 8,6 C 7,8 C 83 % 1009,9 hPa 0,0 l/m 1,8 km/h (1 Bft) SW 215 0 min 0,000 mm 0,0 UV-I 16 W/m 5,9 C 8,6 C 3,2 km/h (1 Bft) 98,00 %
05.04.2018 07:14 8,7 C 7,8 C 83 % 1010,0 hPa 0,0 l/m 1,9 km/h (1 Bft) SW 215 0 min 0,000 mm 0,0 UV-I 23 W/m 6,0 C 8,7 C 3,2 km/h (1 Bft) 97,37 %
05.04.2018 07:16 8,7 C 7,8 C 83 % 1010,0 hPa 0,0 l/m 0,8 km/h (0 Bft) SW 215 0 min 0,000 mm 0,0 UV-I 25 W/m 6,0 C 8,7 C 3,2 km/h (1 Bft) 96,15 %
05.04.2018 07:18 8,8 C 7,8 C 82 % 1010,1 hPa 0,0 l/m 0,0 km/h (0 Bft) SW 215 0 min 0,000 mm 0,0 UV-I 24 W/m 5,9 C 8,8 C 0,0 km/h (0 Bft) 98,00 %
05.04.2018 07:20 8,9 C 7,8 C 81 % 1010,2 hPa 0,0 l/m 0,0 km/h (0 Bft) SW 215 0 min 0,000 mm 0,0 UV-I 21 W/m 5,8 C 8,9 C 1,6 km/h (1 Bft) 96,00 %
05.04.2018 07:22 9,0 C 7,8 C 81 % 1010,2 hPa 0,0 l/m 0,0 km/h (0 Bft) SW 215 0 min 0,000 mm 0,0 UV-I 19 W/m 5,9 C 9,0 C 0,0 km/h (0 Bft) 97,87 %
05.04.2018 07:24 9,1 C 7,8 C 81 % 1010,2 hPa 0,0 l/m 2,1 km/h (1 Bft) SW 215 0 min 0,000 mm 0,0 UV-I 15 W/m 6,0 C 9,1 C 3,2 km/h (1 Bft) 100,00 %
05.04.2018 07:26 9,2 C 7,8 C 80 % 1010,3 hPa 0,0 l/m 3,9 km/h (1 Bft) SW 214 0 min 0,000 mm 0,0 UV-I 13 W/m 5,9 C 9,2 C 4,8 km/h (1 Bft) 93,62 %
05.04.2018 07:28 9,2 C 7,8 C 81 % 1010,4 hPa 0,0 l/m 4,5 km/h (1 Bft) SW 214 0 min 0,000 mm 0,0 UV-I 12 W/m 6,1 C 9,2 C 4,8 km/h (1 Bft) 100,00 %
05.04.2018 07:30 9,0 C 7,8 C 82 % 1010,4 hPa 0,0 l/m 5,0 km/h (1 Bft) S-SW 208 0 min 0,000 mm 0,0 UV-I 11 W/m 6,1 C 9,0 C 6,4 km/h (2 Bft) 100,00 %
05.04.2018 07:32 8,9 C 7,8 C 83 % 1010,5 hPa 0,0 l/m 4,7 km/h (1 Bft) S-SW 207 0 min 0,000 mm 0,0 UV-I 12 W/m 6,2 C 8,9 C 6,4 km/h (2 Bft) 100,00 %
05.04.2018 07:34 8,8 C 7,8 C 83 % 1010,5 hPa 0,0 l/m 2,7 km/h (1 Bft) S-SW 207 0 min 0,000 mm 0,0 UV-I 12 W/m 6,1 C 8,8 C 4,8 km/h (1 Bft) 100,00 %
05.04.2018 07:36 8,8 C 7,8 C 83 % 1010,5 hPa 0,0 l/m 1,9 km/h (1 Bft) S-SW 207 0 min 0,000 mm 0,0 UV-I 13 W/m 6,1 C 8,8 C 3,2 km/h (1 Bft) 100,00 %
05.04.2018 07:38 8,9 C 7,8 C 83 % 1010,5 hPa 0,0 l/m 0,4 km/h (0 Bft) S-SW 207 0 min 0,000 mm 0,0 UV-I 15 W/m 6,2 C 8,9 C 3,2 km/h (1 Bft) 100,00 %
05.04.2018 07:40 8,9 C 7,8 C 83 % 1010,5 hPa 0,0 l/m 0,9 km/h (0 Bft) S-SW 207 0 min 0,000 mm 0,0 UV-I 18 W/m 6,2 C 8,9 C 3,2 km/h (1 Bft) 96,23 %
05.04.2018 07:42 8,9 C 7,8 C 83 % 1010,5 hPa 0,0 l/m 2,8 km/h (1 Bft) S-SW 207 0 min 0,000 mm 0,0 UV-I 23 W/m 6,2 C 8,9 C 4,8 km/h (1 Bft) 97,87 %
05.04.2018 07:44 8,9 C 7,8 C 83 % 1010,5 hPa 0,0 l/m 2,1 km/h (1 Bft) S-SW 207 0 min 0,000 mm 0,0 UV-I 29 W/m 6,2 C 8,9 C 3,2 km/h (1 Bft) 96,00 %
05.04.2018 07:46 9,0 C 7,8 C 82 % 1010,5 hPa 0,0 l/m 1,6 km/h (1 Bft) S-SW 207 0 min 0,000 mm 0,0 UV-I 35 W/m 6,1 C 9,0 C 3,2 km/h (1 Bft) 94,74 %
05.04.2018 07:48 9,1 C 7,8 C 82 % 1010,5 hPa 0,0 l/m 2,1 km/h (1 Bft) S-SW 207 0 min 0,000 mm 0,0 UV-I 42 W/m 6,2 C 9,1 C 3,2 km/h (1 Bft) 96,23 %
05.04.2018 07:50 8,9 C 7,8 C 83 % 1010,5 hPa 0,0 l/m 2,7 km/h (1 Bft) S-SW 207 0 min 0,000 mm 0,0 UV-I 46 W/m 6,2 C 8,9 C 3,2 km/h (1 Bft) 97,37 %
05.04.2018 07:52 8,8 C 7,8 C 84 % 1010,5 hPa 0,0 l/m 1,8 km/h (1 Bft) S-SW 207 0 min 0,000 mm 0,0 UV-I 50 W/m 6,2 C 8,8 C 3,2 km/h (1 Bft) 98,21 %
05.04.2018 07:54 8,7 C 7,8 C 85 % 1010,4 hPa 0,0 l/m 2,4 km/h (1 Bft) S-SW 207 0 min 0,000 mm 0,0 UV-I 53 W/m 6,3 C 8,7 C 3,2 km/h (1 Bft) 97,37 %
05.04.2018 07:56 8,7 C 7,8 C 85 % 1010,5 hPa 0,0 l/m 2,7 km/h (1 Bft) S-SW 207 0 min 0,000 mm 0,0 UV-I 54 W/m 6,3 C 8,7 C 4,8 km/h (1 Bft) 98,11 %
05.04.2018 07:58 8,7 C 7,8 C 85 % 1010,5 hPa 0,0 l/m 3,1 km/h (1 Bft) S-SW 208 0 min 0,000 mm 0,0 UV-I 49 W/m 6,3 C 8,7 C 4,8 km/h (1 Bft) 98,00 %
05.04.2018 08:00 8,7 C 7,8 C 85 % 1010,5 hPa 0,0 l/m 3,1 km/h (1 Bft) S-SW 209 0 min 0,025 mm 0,0 UV-I 51 W/m 6,3 C 8,7 C 4,8 km/h (1 Bft) 95,12 %
05.04.2018 08:02 8,8 C 7,8 C 85 % 1010,5 hPa 0,0 l/m 4,8 km/h (1 Bft) SW 227 0 min 0,000 mm 0,0 UV-I 57 W/m 6,4 C 8,8 C 8,0 km/h (2 Bft) 97,87 %
05.04.2018 08:04 8,9 C 7,8 C 85 % 1010,5 hPa 0,0 l/m 3,7 km/h (1 Bft) SW 226 0 min 0,000 mm 0,0 UV-I 52 W/m 6,5 C 8,9 C 4,8 km/h (1 Bft) 95,74 %
05.04.2018 08:06 8,9 C 7,8 C 84 % 1010,5 hPa 0,0 l/m 3,7 km/h (1 Bft) SW 227 0 min 0,000 mm 0,0 UV-I 45 W/m 6,3 C 8,9 C 4,8 km/h (1 Bft) 93,62 %
05.04.2018 08:08 9,1 C 7,8 C 84 % 1010,5 hPa 0,0 l/m 5,0 km/h (1 Bft) W-SW 248 0 min 0,000 mm 0,0 UV-I 41 W/m 6,5 C 9,1 C 8,0 km/h (2 Bft) 96,00 %
05.04.2018 08:10 9,2 C 7,8 C 82 % 1010,5 hPa 0,0 l/m 4,5 km/h (1 Bft) W-SW 244 0 min 0,000 mm 0,0 UV-I 40 W/m 6,3 C 9,2 C 6,4 km/h (2 Bft) 97,87 %
05.04.2018 08:12 9,3 C 7,8 C 81 % 1010,5 hPa 0,0 l/m 3,0 km/h (1 Bft) W-SW 244 0 min 0,000 mm 0,0 UV-I 41 W/m 6,2 C 9,3 C 4,8 km/h (1 Bft) 97,73 %
05.04.2018 08:14 9,4 C 7,8 C 80 % 1010,5 hPa 0,0 l/m 3,9 km/h (1 Bft) W-SW 244 0 min 0,000 mm 0,0 UV-I 46 W/m 6,1 C 9,4 C 4,8 km/h (1 Bft) 98,00 %
05.04.2018 08:16 9,4 C 7,8 C 81 % 1010,5 hPa 0,0 l/m 3,7 km/h (1 Bft) W-SW 244 0 min 0,000 mm 0,0 UV-I 55 W/m 6,3 C 9,4 C 6,4 km/h (2 Bft) 97,44 %
05.04.2018 08:18 9,5 C 7,8 C 81 % 1010,6 hPa 0,0 l/m 4,6 km/h (1 Bft) W-SW 238 0 min 0,000 mm 0,0 UV-I 56 W/m 6,4 C 9,5 C 6,4 km/h (2 Bft) 97,73 %
05.04.2018 08:20 9,6 C 7,8 C 80 % 1010,6 hPa 0,0 l/m 4,8 km/h (1 Bft) W-SW 238 0 min 0,000 mm 0,0 UV-I 54 W/m 6,3 C 9,6 C 6,4 km/h (2 Bft) 96,00 %
05.04.2018 08:22 9,7 C 7,8 C 80 % 1010,7 hPa 0,0 l/m 5,0 km/h (1 Bft) W-SW 244 0 min 0,000 mm 0,0 UV-I 49 W/m 6,4 C 9,7 C 6,4 km/h (2 Bft) 98,00 %
05.04.2018 08:24 9,8 C 7,8 C 79 % 1010,7 hPa 0,0 l/m 4,8 km/h (1 Bft) W-SW 239 0 min 0,000 mm 0,0 UV-I 46 W/m 6,3 C 9,8 C 6,4 km/h (2 Bft) 100,00 %
05.04.2018 08:26 9,9 C 7,8 C 78 % 1010,8 hPa 0,0 l/m 4,8 km/h (1 Bft) W-SW 242 0 min 0,000 mm 0,0 UV-I 46 W/m 6,2 C 9,9 C 8,0 km/h (2 Bft) 100,00 %
05.04.2018 08:28 10,0 C 7,8 C 78 % 1010,8 hPa 0,0 l/m 6,2 km/h (2 Bft) SW 225 0 min 0,000 mm 0,0 UV-I 49 W/m 6,3 C 10,0 C 8,0 km/h (2 Bft) 100,00 %
05.04.2018 08:30 10,1 C 7,8 C 78 % 1010,9 hPa 0,0 l/m 6,4 km/h (2 Bft) S-SW 211 0 min 0,000 mm 0,0 UV-I 49 W/m 6,4 C 10,1 C 8,0 km/h (2 Bft) 100,00 %
05.04.2018 08:32 10,2 C 7,8 C 77 % 1011,0 hPa 0,0 l/m 7,3 km/h (2 Bft) S-SW 209 0 min 0,000 mm 0,0 UV-I 46 W/m 6,4 C 9,6 C 11,3 km/h (2 Bft) 100,00 %
05.04.2018 08:34 10,2 C 7,8 C 77 % 1011,1 hPa 0,0 l/m 6,9 km/h (2 Bft) SW 234 0 min 0,000 mm 0,0 UV-I 43 W/m 6,4 C 9,8 C 11,3 km/h (2 Bft) 95,65 %
05.04.2018 08:36 10,2 C 7,8 C 77 % 1011,0 hPa 0,0 l/m 8,3 km/h (2 Bft) W-SW 254 0 min 0,000 mm 0,0 UV-I 45 W/m 6,4 C 8,9 C 12,9 km/h (3 Bft) 100,00 %
05.04.2018 08:38 10,2 C 7,8 C 77 % 1011,0 hPa 0,0 l/m 6,7 km/h (2 Bft) W-SW 237 0 min 0,000 mm 0,0 UV-I 51 W/m 6,4 C 10,0 C 9,7 km/h (2 Bft) 97,56 %
05.04.2018 08:40 10,2 C 7,8 C 78 % 1011,0 hPa 0,0 l/m 7,6 km/h (2 Bft) W-SW 241 0 min 0,000 mm 0,0 UV-I 57 W/m 6,5 C 9,3 C 12,9 km/h (3 Bft) 98,11 %
05.04.2018 08:42 10,1 C 7,8 C 78 % 1011,0 hPa 0,0 l/m 6,7 km/h (2 Bft) W-SW 250 0 min 0,000 mm 0,0 UV-I 56 W/m 6,4 C 9,9 C 9,7 km/h (2 Bft) 100,00 %
05.04.2018 08:44 10,1 C 7,8 C 78 % 1011,0 hPa 0,0 l/m 6,1 km/h (2 Bft) W-SW 254 0 min 0,000 mm 0,0 UV-I 54 W/m 6,4 C 10,1 C 9,7 km/h (2 Bft) 100,00 %
05.04.2018 08:46 10,1 C 7,8 C 78 % 1011,0 hPa 0,0 l/m 8,2 km/h (2 Bft) W 259 0 min 0,000 mm 0,0 UV-I 55 W/m 6,4 C 8,8 C 12,9 km/h (3 Bft) 97,73 %
05.04.2018 08:48 10,2 C 7,8 C 78 % 1011,0 hPa 0,0 l/m 9,2 km/h (2 Bft) W 261 0 min 0,000 mm 0,0 UV-I 62 W/m 6,5 C 8,3 C 12,9 km/h (3 Bft) 100,00 %
05.04.2018 08:50 10,3 C 7,8 C 75 % 1011,1 hPa 0,0 l/m 11,5 km/h (2 Bft) W 272 0 min 0,000 mm 0,0 UV-I 68 W/m 6,1 C 7,1 C 17,7 km/h (3 Bft) 100,00 %
05.04.2018 08:52 10,5 C 7,8 C 75 % 1011,0 hPa 0,0 l/m 11,6 km/h (2 Bft) W 270 0 min 0,000 mm 0,0 UV-I 71 W/m 6,3 C 7,3 C 19,3 km/h (3 Bft) 100,00 %
05.04.2018 08:54 10,6 C 7,8 C 74 % 1011,1 hPa 0,0 l/m 9,2 km/h (2 Bft) W 269 0 min 0,000 mm 0,0 UV-I 77 W/m 6,2 C 8,7 C 16,1 km/h (3 Bft) 100,00 %
05.04.2018 08:56 10,7 C 7,8 C 73 % 1011,0 hPa 0,0 l/m 11,8 km/h (2 Bft) W 281 0 min 0,000 mm 0,0 UV-I 87 W/m 6,1 C 7,4 C 16,1 km/h (3 Bft) 100,00 %
05.04.2018 08:58 10,8 C 7,8 C 73 % 1011,0 hPa 0,0 l/m 11,3 km/h (2 Bft) W 263 0 min 0,000 mm 0,0 UV-I 97 W/m 6,2 C 7,8 C 16,1 km/h (3 Bft) 97,56 %
05.04.2018 09:00 10,8 C 7,8 C 72 % 1011,1 hPa 0,0 l/m 9,4 km/h (2 Bft) W-SW 250 0 min 0,000 mm 0,0 UV-I 97 W/m 6,0 C 8,8 C 14,5 km/h (3 Bft) 100,00 %
05.04.2018 09:02 10,9 C 7,8 C 72 % 1011,2 hPa 0,0 l/m 8,3 km/h (2 Bft) SW 228 0 min 0,051 mm 0,0 UV-I 86 W/m 6,1 C 9,6 C 12,9 km/h (3 Bft) 100,00 %
05.04.2018 09:04 11,0 C 7,8 C 72 % 1011,2 hPa 0,0 l/m 10,9 km/h (2 Bft) W-SW 249 0 min 0,000 mm 0,0 UV-I 79 W/m 6,2 C 8,2 C 16,1 km/h (3 Bft) 100,00 %
05.04.2018 09:06 11,1 C 7,8 C 72 % 1011,2 hPa 0,0 l/m 9,2 km/h (2 Bft) W-SW 251 0 min 0,000 mm 0,0 UV-I 79 W/m 6,2 C 9,3 C 14,5 km/h (3 Bft) 97,87 %
05.04.2018 09:08 11,1 C 7,8 C 71 % 1011,3 hPa 0,0 l/m 9,4 km/h (2 Bft) W-SW 242 0 min 0,000 mm 0,0 UV-I 85 W/m 6,0 C 9,1 C 14,5 km/h (3 Bft) 100,00 %
05.04.2018 09:10 11,1 C 7,8 C 72 % 1011,4 hPa 0,0 l/m 6,4 km/h (2 Bft) W 262 0 min 0,000 mm 0,0 UV-I 103 W/m 6,2 C 11,1 C 9,7 km/h (2 Bft) 100,00 %
05.04.2018 09:12 11,1 C 7,8 C 72 % 1011,3 hPa 0,0 l/m 7,4 km/h (2 Bft) SW 236 0 min 0,000 mm 0,0 UV-I 125 W/m 6,2 C 10,4 C 9,7 km/h (2 Bft) 100,00 %
05.04.2018 09:14 11,1 C 7,8 C 73 % 1011,3 hPa 0,0 l/m 7,6 km/h (2 Bft) W 261 0 min 0,000 mm 0,4 UV-I 141 W/m 6,4 C 10,3 C 11,3 km/h (2 Bft) 98,00 %
05.04.2018 09:16 11,1 C 7,8 C 73 % 1011,3 hPa 0,0 l/m 10,8 km/h (2 Bft) SW 228 0 min 0,000 mm 0,5 UV-I 163 W/m 6,4 C 8,4 C 16,1 km/h (3 Bft) 100,00 %
05.04.2018 09:18 11,2 C 7,8 C 73 % 1011,3 hPa 0,0 l/m 10,9 km/h (2 Bft) SW 229 0 min 0,000 mm 0,5 UV-I 175 W/m 6,5 C 8,4 C 16,1 km/h (3 Bft) 100,00 %
05.04.2018 09:20 11,2 C 7,8 C 73 % 1011,1 hPa 0,0 l/m 11,0 km/h (2 Bft) W-SW 246 2 min 0,000 mm 0,6 UV-I 254 W/m 6,5 C 8,4 C 14,5 km/h (3 Bft) 97,56 %
05.04.2018 09:22 11,3 C 7,8 C 73 % 1011,2 hPa 0,0 l/m 11,1 km/h (2 Bft) S-SW 198 2 min 0,000 mm 0,6 UV-I 264 W/m 6,6 C 8,5 C 17,7 km/h (3 Bft) 100,00 %
05.04.2018 09:24 11,4 C 7,8 C 73 % 1011,2 hPa 0,0 l/m 11,4 km/h (2 Bft) W-SW 243 0 min 0,000 mm 0,6 UV-I 246 W/m 6,7 C 8,4 C 19,3 km/h (3 Bft) 97,44 %
05.04.2018 09:26 11,4 C 7,8 C 73 % 1011,3 hPa 0,0 l/m 10,6 km/h (2 Bft) W-SW 252 0 min 0,000 mm 0,6 UV-I 219 W/m 6,7 C 8,8 C 16,1 km/h (3 Bft) 100,00 %
05.04.2018 09:28 11,4 C 7,8 C 73 % 1011,3 hPa 0,0 l/m 10,1 km/h (2 Bft) W-SW 252 0 min 0,000 mm 0,6 UV-I 191 W/m 6,7 C 9,1 C 17,7 km/h (3 Bft) 97,87 %
05.04.2018 09:30 11,3 C 7,8 C 73 % 1011,3 hPa 0,0 l/m 13,2 km/h (3 Bft) SW 227 0 min 0,000 mm 0,6 UV-I 194 W/m 6,6 C 7,5 C 17,7 km/h (3 Bft) 100,00 %
05.04.2018 09:32 11,4 C 7,8 C 73 % 1011,3 hPa 0,0 l/m 11,0 km/h (2 Bft) W-SW 257 2 min 0,000 mm 0,7 UV-I 268 W/m 6,7 C 8,6 C 14,5 km/h (3 Bft) 100,00 %
05.04.2018 09:34 11,4 C 7,8 C 73 % 1011,3 hPa 0,0 l/m 15,9 km/h (3 Bft) W-SW 240 2 min 0,000 mm 0,7 UV-I 296 W/m 6,7 C 6,5 C 20,9 km/h (4 Bft) 100,00 %
05.04.2018 09:36 11,5 C 7,8 C 73 % 1011,3 hPa 0,0 l/m 11,7 km/h (2 Bft) W-SW 254 0 min 0,000 mm 0,7 UV-I 230 W/m 6,8 C 8,4 C 16,1 km/h (3 Bft) 100,00 %
05.04.2018 09:38 11,6 C 7,8 C 73 % 1011,4 hPa 0,0 l/m 11,3 km/h (2 Bft) W-SW 241 0 min 0,000 mm 0,7 UV-I 212 W/m 6,9 C 8,7 C 19,3 km/h (3 Bft) 100,00 %
05.04.2018 09:40 11,7 C 7,8 C 73 % 1011,4 hPa 0,0 l/m 10,9 km/h (2 Bft) S-SW 204 0 min 0,000 mm 0,8 UV-I 259 W/m 7,0 C 9,0 C 17,7 km/h (3 Bft) 100,00 %
05.04.2018 09:42 11,7 C 7,8 C 72 % 1011,4 hPa 0,0 l/m 12,0 km/h (2 Bft) W-SW 241 2 min 0,000 mm 0,8 UV-I 316 W/m 6,8 C 8,5 C 19,3 km/h (3 Bft) 97,14 %
05.04.2018 09:44 11,8 C 7,8 C 73 % 1011,5 hPa 0,0 l/m 10,3 km/h (2 Bft) S-SW 196 2 min 0,000 mm 0,8 UV-I 301 W/m 7,1 C 9,4 C 16,1 km/h (3 Bft) 96,43 %
05.04.2018 09:46 11,9 C 7,8 C 72 % 1011,4 hPa 0,0 l/m 7,8 km/h (2 Bft) SW 214 2 min 0,000 mm 0,9 UV-I 295 W/m 7,0 C 11,0 C 14,5 km/h (3 Bft) 96,43 %
05.04.2018 09:48 12,0 C 7,8 C 71 % 1011,5 hPa 0,0 l/m 13,5 km/h (3 Bft) W-SW 250 2 min 0,000 mm 0,9 UV-I 357 W/m 6,9 C 8,2 C 20,9 km/h (4 Bft) 97,73 %
05.04.2018 09:50 12,1 C 7,8 C 71 % 1011,5 hPa 0,0 l/m 9,1 km/h (2 Bft) W-SW 257 2 min 0,000 mm 1,0 UV-I 411 W/m 7,0 C 10,4 C 12,9 km/h (3 Bft) 100,00 %
05.04.2018 09:52 12,3 C 7,8 C 71 % 1011,5 hPa 0,0 l/m 13,6 km/h (3 Bft) W-SW 248 2 min 0,000 mm 0,9 UV-I 301 W/m 7,2 C 8,5 C 19,3 km/h (3 Bft) 96,36 %
05.04.2018 09:54 12,3 C 7,8 C 70 % 1011,5 hPa 0,0 l/m 15,5 km/h (3 Bft) W 263 0 min 0,000 mm 0,9 UV-I 284 W/m 7,0 C 7,7 C 20,9 km/h (4 Bft) 100,00 %
05.04.2018 09:56 12,4 C 7,8 C 71 % 1011,6 hPa 0,0 l/m 11,9 km/h (2 Bft) W-SW 245 0 min 0,000 mm 0,8 UV-I 229 W/m 7,3 C 9,3 C 20,9 km/h (4 Bft) 94,34 %
05.04.2018 09:58 12,4 C 7,8 C 70 % 1011,7 hPa 0,0 l/m 17,4 km/h (3 Bft) W-SW 239 0 min 0,000 mm 0,8 UV-I 174 W/m 7,1 C 7,2 C 25,7 km/h (4 Bft) 96,88 %
05.04.2018 10:00 12,2 C 7,8 C 70 % 1011,7 hPa 0,0 l/m 14,7 km/h (3 Bft) W 263 0 min 0,000 mm 0,8 UV-I 169 W/m 6,9 C 7,9 C 24,1 km/h (4 Bft) 97,62 %
05.04.2018 10:02 12,1 C 7,8 C 70 % 1011,7 hPa 0,0 l/m 15,2 km/h (3 Bft) W-SW 245 0 min 0,127 mm 0,8 UV-I 199 W/m 6,8 C 7,6 C 20,9 km/h (4 Bft) 97,87 %
05.04.2018 10:04 12,0 C 7,8 C 71 % 1011,7 hPa 0,0 l/m 15,9 km/h (3 Bft) SW 219 0 min 0,000 mm 0,9 UV-I 200 W/m 6,9 C 7,2 C 25,7 km/h (4 Bft) 96,00 %
05.04.2018 10:06 11,9 C 7,8 C 73 % 1011,7 hPa 0,0 l/m 15,3 km/h (3 Bft) W-SW 238 0 min 0,000 mm 1,0 UV-I 219 W/m 7,2 C 7,3 C 22,5 km/h (4 Bft) 97,56 %
05.04.2018 10:08 11,8 C 7,8 C 73 % 1011,8 hPa 0,0 l/m 16,9 km/h (3 Bft) SW 224 0 min 0,000 mm 1,1 UV-I 283 W/m 7,1 C 6,6 C 22,5 km/h (4 Bft) 100,00 %
05.04.2018 10:10 11,8 C 7,8 C 73 % 1011,8 hPa 0,0 l/m 15,6 km/h (3 Bft) W-SW 245 0 min 0,000 mm 1,1 UV-I 265 W/m 7,1 C 7,1 C 20,9 km/h (4 Bft) 96,23 %
05.04.2018 10:12 11,8 C 7,8 C 72 % 1011,8 hPa 0,0 l/m 17,6 km/h (3 Bft) W-SW 251 0 min 0,000 mm 1,1 UV-I 248 W/m 6,9 C 6,4 C 27,4 km/h (4 Bft) 100,00 %
05.04.2018 10:14 11,7 C 7,8 C 72 % 1011,8 hPa 0,0 l/m 18,1 km/h (3 Bft) W-SW 244 0 min 0,000 mm 1,1 UV-I 236 W/m 6,8 C 6,1 C 25,7 km/h (4 Bft) 100,00 %
05.04.2018 10:16 11,7 C 7,8 C 73 % 1011,8 hPa 0,0 l/m 13,3 km/h (3 Bft) W-SW 240 2 min 0,000 mm 1,3 UV-I 334 W/m 7,0 C 7,9 C 19,3 km/h (3 Bft) 100,00 %
05.04.2018 10:18 11,9 C 7,8 C 74 % 1011,7 hPa 0,0 l/m 14,8 km/h (3 Bft) SW 223 2 min 0,000 mm 1,4 UV-I 427 W/m 7,4 C 7,5 C 20,9 km/h (4 Bft) 96,55 %
05.04.2018 10:20 12,1 C 7,8 C 72 % 1011,7 hPa 0,0 l/m 17,0 km/h (3 Bft) SW 231 2 min 0,000 mm 1,5 UV-I 525 W/m 7,2 C 7,0 C 25,7 km/h (4 Bft) 92,68 %
05.04.2018 10:22 12,3 C 7,8 C 73 % 1011,8 hPa 0,0 l/m 18,3 km/h (3 Bft) SW 216 2 min 0,000 mm 1,6 UV-I 570 W/m 7,6 C 6,8 C 27,4 km/h (4 Bft) 100,00 %
05.04.2018 10:24 12,3 C 7,8 C 70 % 1011,8 hPa 0,0 l/m 17,1 km/h (3 Bft) SW 215 2 min 0,000 mm 1,5 UV-I 541 W/m 7,0 C 7,2 C 27,4 km/h (4 Bft) 100,00 %
05.04.2018 10:26 12,3 C 7,8 C 71 % 1011,8 hPa 0,0 l/m 15,1 km/h (3 Bft) SW 216 2 min 0,000 mm 1,5 UV-I 530 W/m 7,2 C 7,9 C 22,5 km/h (4 Bft) 100,00 %
05.04.2018 10:28 12,3 C 7,8 C 71 % 1011,9 hPa 0,0 l/m 21,4 km/h (4 Bft) SW 218 2 min 0,000 mm 1,6 UV-I 540 W/m 7,2 C 5,9 C 29,0 km/h (5 Bft) 98,11 %
05.04.2018 10:30 12,3 C 7,8 C 72 % 1011,9 hPa 0,0 l/m 12,9 km/h (3 Bft) SW 236 2 min 0,000 mm 1,6 UV-I 582 W/m 7,4 C 8,8 C 19,3 km/h (3 Bft) 97,37 %
05.04.2018 10:32 12,5 C 7,8 C 74 % 1011,9 hPa 0,0 l/m 12,7 km/h (3 Bft) W-NW 288 2 min 0,000 mm 1,6 UV-I 572 W/m 8,0 C 9,1 C 20,9 km/h (4 Bft) 100,00 %
05.04.2018 10:34 12,7 C 7,8 C 73 % 1011,9 hPa 0,0 l/m 15,2 km/h (3 Bft) W 259 2 min 0,000 mm 1,5 UV-I 526 W/m 8,0 C 8,3 C 22,5 km/h (4 Bft) 95,74 %
05.04.2018 10:36 12,7 C 7,8 C 70 % 1011,9 hPa 0,0 l/m 16,5 km/h (3 Bft) W 273 2 min 0,000 mm 1,5 UV-I 474 W/m 7,4 C 7,9 C 24,1 km/h (4 Bft) 96,23 %
05.04.2018 10:38 12,7 C 7,8 C 71 % 1011,9 hPa 0,0 l/m 16,5 km/h (3 Bft) W 273 2 min 0,000 mm 1,5 UV-I 502 W/m 7,6 C 7,9 C 25,7 km/h (4 Bft) 94,74 %
05.04.2018 10:40 12,8 C 7,8 C 71 % 1011,9 hPa 0,0 l/m 16,6 km/h (3 Bft) W 265 2 min 0,000 mm 1,6 UV-I 518 W/m 7,7 C 8,0 C 24,1 km/h (4 Bft) 98,00 %
05.04.2018 10:42 12,8 C 7,8 C 69 % 1011,9 hPa 0,0 l/m 17,7 km/h (3 Bft) W 270 2 min 0,000 mm 1,6 UV-I 489 W/m 7,3 C 7,6 C 24,1 km/h (4 Bft) 95,12 %
05.04.2018 10:44 12,8 C 7,8 C 69 % 1011,9 hPa 0,0 l/m 15,7 km/h (3 Bft) W-SW 256 2 min 0,000 mm 1,6 UV-I 464 W/m 7,3 C 8,3 C 24,1 km/h (4 Bft) 98,11 %
05.04.2018 10:46 12,8 C 7,8 C 69 % 1011,9 hPa 0,0 l/m 17,1 km/h (3 Bft) W 261 2 min 0,000 mm 1,6 UV-I 453 W/m 7,3 C 7,8 C 27,4 km/h (4 Bft) 98,11 %
05.04.2018 10:48 12,9 C 7,8 C 69 % 1011,8 hPa 0,0 l/m 16,0 km/h (3 Bft) NW 309 2 min 0,000 mm 1,7 UV-I 478 W/m 7,4 C 8,3 C 22,5 km/h (4 Bft) 97,14 %
05.04.2018 10:50 13,0 C 7,8 C 70 % 1011,9 hPa 0,0 l/m 14,1 km/h (3 Bft) W-SW 252 2 min 0,000 mm 1,8 UV-I 451 W/m 7,7 C 9,1 C 22,5 km/h (4 Bft) 97,37 %
05.04.2018 10:52 13,0 C 7,8 C 68 % 1011,9 hPa 0,0 l/m 18,5 km/h (3 Bft) SW 235 2 min 0,000 mm 1,9 UV-I 544 W/m 7,2 C 7,6 C 27,4 km/h (4 Bft) 98,53 %
05.04.2018 10:54 12,9 C 7,8 C 68 % 1011,9 hPa 0,0 l/m 18,1 km/h (3 Bft) W-SW 241 2 min 0,000 mm 1,8 UV-I 532 W/m 7,1 C 7,6 C 25,7 km/h (4 Bft) 95,45 %
05.04.2018 10:56 12,9 C 7,8 C 68 % 1012,0 hPa 0,0 l/m 17,2 km/h (3 Bft) SW 222 2 min 0,000 mm 1,7 UV-I 448 W/m 7,1 C 7,9 C 24,1 km/h (4 Bft) 97,56 %
05.04.2018 10:58 13,0 C 7,8 C 69 % 1012,0 hPa 0,0 l/m 15,7 km/h (3 Bft) W-SW 243 2 min 0,000 mm 1,8 UV-I 508 W/m 7,4 C 8,5 C 24,1 km/h (4 Bft) 96,23 %
05.04.2018 11:00 13,2 C 7,8 C 70 % 1012,0 hPa 0,0 l/m 14,2 km/h (3 Bft) SW 224 2 min 0,279 mm 1,9 UV-I 506 W/m 7,9 C 9,3 C 19,3 km/h (3 Bft) 98,00 %
05.04.2018 11:02 13,3 C 7,8 C 67 % 1012,0 hPa 0,0 l/m 22,9 km/h (4 Bft) W-SW 250 2 min 0,000 mm 2,1 UV-I 712 W/m 7,3 C 6,8 C 33,8 km/h (5 Bft) 97,56 %
05.04.2018 11:04 13,2 C 7,8 C 67 % 1012,0 hPa 0,0 l/m 16,1 km/h (3 Bft) W-SW 255 2 min 0,000 mm 2,0 UV-I 596 W/m 7,2 C 8,6 C 24,1 km/h (4 Bft) 97,56 %
05.04.2018 11:06 13,3 C 7,8 C 67 % 1011,9 hPa 0,0 l/m 15,3 km/h (3 Bft) S-SW 204 2 min 0,000 mm 2,0 UV-I 593 W/m 7,3 C 9,0 C 25,7 km/h (4 Bft) 98,00 %
05.04.2018 11:08 13,2 C 7,8 C 66 % 1012,0 hPa 0,0 l/m 20,0 km/h (4 Bft) W-SW 237 2 min 0,000 mm 2,0 UV-I 586 W/m 7,0 C 7,4 C 30,6 km/h (5 Bft) 98,11 %
05.04.2018 11:10 13,2 C 7,8 C 67 % 1012,0 hPa 0,0 l/m 19,1 km/h (3 Bft) S-SW 211 2 min 0,000 mm 1,9 UV-I 568 W/m 7,2 C 7,7 C 27,4 km/h (4 Bft) 97,44 %
05.04.2018 11:12 12,9 C 7,8 C 66 % 1012,0 hPa 0,0 l/m 24,6 km/h (4 Bft) SW 218 2 min 0,000 mm 1,9 UV-I 529 W/m 6,7 C 5,9 C 38,6 km/h (5 Bft) 98,18 %
05.04.2018 11:14 12,8 C 7,8 C 67 % 1012,0 hPa 0,0 l/m 22,2 km/h (4 Bft) SW 236 2 min 0,000 mm 1,8 UV-I 524 W/m 6,8 C 6,3 C 33,8 km/h (5 Bft) 94,44 %
05.04.2018 11:16 12,6 C 7,8 C 69 % 1012,0 hPa 0,0 l/m 28,8 km/h (4 Bft) SW 219 2 min 0,000 mm 1,6 UV-I 461 W/m 7,1 C 4,5 C 40,2 km/h (6 Bft) 98,11 %
05.04.2018 11:18 12,3 C 7,8 C 70 % 1012,1 hPa 0,0 l/m 22,7 km/h (4 Bft) SW 222 0 min 0,000 mm 1,5 UV-I 359 W/m 7,0 C 5,5 C 33,8 km/h (5 Bft) 97,73 %
05.04.2018 11:20 12,1 C 7,8 C 69 % 1012,1 hPa 0,0 l/m 25,0 km/h (4 Bft) SW 228 0 min 0,000 mm 1,5 UV-I 358 W/m 6,6 C 4,7 C 35,4 km/h (5 Bft) 97,73 %
05.04.2018 11:22 12,1 C 7,8 C 72 % 1012,1 hPa 0,0 l/m 19,8 km/h (3 Bft) SW 235 0 min 0,000 mm 1,5 UV-I 327 W/m 7,2 C 6,1 C 27,4 km/h (4 Bft) 92,86 %
05.04.2018 11:24 11,9 C 7,8 C 73 % 1012,1 hPa 0,0 l/m 24,1 km/h (4 Bft) S-SW 204 0 min 0,000 mm 1,4 UV-I 273 W/m 7,2 C 4,6 C 30,6 km/h (5 Bft) 95,45 %
05.04.2018 11:26 11,8 C 7,8 C 73 % 1012,0 hPa 0,0 l/m 18,7 km/h (3 Bft) W-SW 242 0 min 0,000 mm 1,5 UV-I 278 W/m 7,1 C 6,0 C 25,7 km/h (4 Bft) 96,23 %
05.04.2018 11:28 11,7 C 7,8 C 75 % 1012,0 hPa 0,0 l/m 17,8 km/h (3 Bft) SW 215 0 min 0,000 mm 1,7 UV-I 327 W/m 7,4 C 6,2 C 27,4 km/h (4 Bft) 94,74 %
05.04.2018 11:30 11,7 C 7,8 C 75 % 1012,0 hPa 0,0 l/m 22,5 km/h (4 Bft) W-SW 246 2 min 0,000 mm 1,9 UV-I 439 W/m 7,4 C 4,8 C 32,2 km/h (5 Bft) 96,00 %
05.04.2018 11:32 11,8 C 7,8 C 75 % 1012,0 hPa 0,0 l/m 15,6 km/h (3 Bft) S-SW 194 2 min 0,000 mm 2,0 UV-I 465 W/m 7,5 C 7,1 C 27,4 km/h (4 Bft) 94,00 %
05.04.2018 11:34 11,9 C 7,8 C 74 % 1012,0 hPa 0,0 l/m 18,4 km/h (3 Bft) S-SW 205 2 min 0,000 mm 2,3 UV-I 644 W/m 7,4 C 6,2 C 30,6 km/h (5 Bft) 94,74 %
05.04.2018 11:36 12,1 C 7,8 C 75 % 1011,9 hPa 0,0 l/m 17,6 km/h (3 Bft) S-SW 193 2 min 0,000 mm 2,2 UV-I 558 W/m 7,8 C 6,8 C 29,0 km/h (5 Bft) 94,34 %
05.04.2018 11:39 12,1 C 7,8 C 74 % 1012,0 hPa 0,0 l/m 18,4 km/h (3 Bft) S-SW 196 3 min 0,000 mm 1,9 UV-I 409 W/m 7,6 C 6,5 C 27,4 km/h (4 Bft) 95,59 %
05.04.2018 11:40 12,1 C 7,8 C 73 % 1012,0 hPa 0,0 l/m 19,0 km/h (3 Bft) S-SW 205 0 min 0,000 mm 2,0 UV-I 343 W/m 7,4 C 6,3 C 22,5 km/h (4 Bft) 92,31 %
05.04.2018 11:42 12,1 C 7,8 C 73 % 1011,9 hPa 0,0 l/m 17,2 km/h (3 Bft) S 186 2 min 0,000 mm 2,3 UV-I 528 W/m 7,4 C 6,9 C 32,2 km/h (5 Bft) 94,00 %
05.04.2018 11:44 12,4 C 7,8 C 75 % 1012,0 hPa 0,0 l/m 16,3 km/h (3 Bft) SW 225 2 min 0,000 mm 2,2 UV-I 531 W/m 8,1 C 7,6 C 20,9 km/h (4 Bft) 94,74 %
05.04.2018 11:46 12,6 C 7,8 C 73 % 1011,9 hPa 0,0 l/m 14,6 km/h (3 Bft) W-SW 255 2 min 0,000 mm 2,2 UV-I 504 W/m 7,9 C 8,4 C 22,5 km/h (4 Bft) 95,74 %
05.04.2018 11:48 12,5 C 7,8 C 72 % 1011,9 hPa 0,0 l/m 18,8 km/h (3 Bft) SW 230 2 min 0,000 mm 2,2 UV-I 508 W/m 7,6 C 6,9 C 32,2 km/h (5 Bft) 96,08 %
05.04.2018 11:50 12,4 C 7,8 C 73 % 1011,9 hPa 0,0 l/m 13,5 km/h (3 Bft) W-SW 240 2 min 0,000 mm 2,4 UV-I 567 W/m 7,7 C 8,6 C 20,9 km/h (4 Bft) 94,23 %
05.04.2018 11:52 12,5 C 7,8 C 72 % 1011,8 hPa 0,0 l/m 15,9 km/h (3 Bft) SW 225 2 min 0,000 mm 2,3 UV-I 579 W/m 7,6 C 7,8 C 25,7 km/h (4 Bft) 95,24 %
05.04.2018 11:54 12,3 C 7,8 C 71 % 1011,9 hPa 0,0 l/m 17,9 km/h (3 Bft) S-SW 210 2 min 0,000 mm 2,2 UV-I 524 W/m 7,2 C 6,9 C 30,6 km/h (5 Bft) 100,00 %
05.04.2018 11:56 12,3 C 7,8 C 70 % 1011,8 hPa 0,0 l/m 19,9 km/h (4 Bft) SW 220 2 min 0,000 mm 2,3 UV-I 565 W/m 7,0 C 6,3 C 32,2 km/h (5 Bft) 96,92 %
05.04.2018 11:58 12,4 C 7,8 C 72 % 1011,8 hPa 0,0 l/m 17,8 km/h (3 Bft) SW 235 2 min 0,000 mm 2,4 UV-I 597 W/m 7,5 C 7,1 C 27,4 km/h (4 Bft) 100,00 %
05.04.2018 12:00 12,6 C 7,8 C 72 % 1011,9 hPa 0,0 l/m 14,4 km/h (3 Bft) S-SW 196 2 min 0,305 mm 2,2 UV-I 540 W/m 7,7 C 8,5 C 20,9 km/h (4 Bft) 100,00 %
05.04.2018 12:02 12,6 C 7,8 C 71 % 1011,9 hPa 0,0 l/m 15,4 km/h (3 Bft) SW 225 2 min 0,000 mm 2,2 UV-I 544 W/m 7,5 C 8,1 C 24,1 km/h (4 Bft) 100,00 %
05.04.2018 12:04 12,8 C 7,8 C 70 % 1011,8 hPa 0,0 l/m 15,6 km/h (3 Bft) W 261 2 min 0,000 mm 2,2 UV-I 626 W/m 7,5 C 8,3 C 29,0 km/h (5 Bft) 100,00 %
05.04.2018 12:06 12,7 C 7,8 C 70 % 1011,8 hPa 0,0 l/m 20,6 km/h (4 Bft) S-SW 199 2 min 0,000 mm 2,5 UV-I 649 W/m 7,4 C 6,6 C 30,6 km/h (5 Bft) 100,00 %
05.04.2018 12:08 12,6 C 7,8 C 70 % 1011,8 hPa 0,0 l/m 19,1 km/h (3 Bft) S-SW 198 2 min 0,000 mm 2,8 UV-I 732 W/m 7,3 C 6,9 C 30,6 km/h (5 Bft) 100,00 %
05.04.2018 12:10 12,7 C 7,8 C 70 % 1011,8 hPa 0,0 l/m 20,0 km/h (4 Bft) S-SW 207 2 min 0,000 mm 2,8 UV-I 738 W/m 7,4 C 6,8 C 29,0 km/h (5 Bft) 100,00 %
05.04.2018 12:12 12,8 C 7,8 C 70 % 1011,8 hPa 0,0 l/m 20,2 km/h (4 Bft) S 186 2 min 0,000 mm 2,9 UV-I 790 W/m 7,5 C 6,8 C 32,2 km/h (5 Bft) 100,00 %
05.04.2018 12:14 12,9 C 7,8 C 69 % 1011,8 hPa 0,0 l/m 18,2 km/h (3 Bft) S 186 2 min 0,000 mm 2,8 UV-I 779 W/m 7,4 C 7,6 C 25,7 km/h (4 Bft) 100,00 %
05.04.2018 12:16 12,7 C 7,8 C 69 % 1011,7 hPa 0,0 l/m 19,8 km/h (3 Bft) SW 225 2 min 0,000 mm 2,9 UV-I 757 W/m 7,2 C 6,8 C 32,2 km/h (5 Bft) 98,00 %
05.04.2018 12:18 12,8 C 7,8 C 69 % 1011,7 hPa 0,0 l/m 19,4 km/h (3 Bft) SW 229 2 min 0,000 mm 2,9 UV-I 761 W/m 7,3 C 7,1 C 33,8 km/h (5 Bft) 100,00 %
05.04.2018 12:20 12,9 C 7,8 C 69 % 1011,6 hPa 0,0 l/m 20,0 km/h (4 Bft) S 186 2 min 0,000 mm 3,0 UV-I 785 W/m 7,4 C 7,0 C 29,0 km/h (5 Bft) 97,56 %
05.04.2018 12:22 13,1 C 7,8 C 67 % 1011,7 hPa 0,0 l/m 16,5 km/h (3 Bft) W-SW 240 2 min 0,000 mm 3,1 UV-I 799 W/m 7,1 C 8,4 C 29,0 km/h (5 Bft) 98,21 %
05.04.2018 12:24 13,2 C 7,8 C 66 % 1011,7 hPa 0,0 l/m 23,6 km/h (4 Bft) SW 236 2 min 0,000 mm 3,1 UV-I 815 W/m 7,0 C 6,5 C 33,8 km/h (5 Bft) 100,00 %
05.04.2018 12:26 13,3 C 7,8 C 66 % 1011,6 hPa 0,0 l/m 15,2 km/h (3 Bft) W-SW 257 2 min 0,000 mm 3,0 UV-I 794 W/m 7,1 C 9,1 C 30,6 km/h (5 Bft) 100,00 %
05.04.2018 12:28 13,4 C 7,8 C 65 % 1011,5 hPa 0,0 l/m 19,7 km/h (3 Bft) W-SW 238 2 min 0,000 mm 3,0 UV-I 761 W/m 7,0 C 7,8 C 30,6 km/h (5 Bft) 100,00 %
05.04.2018 12:30 13,3 C 7,8 C 63 % 1011,6 hPa 0,0 l/m 13,6 km/h (3 Bft) SW 226 2 min 0,000 mm 3,1 UV-I 819 W/m 6,4 C 9,7 C 24,1 km/h (4 Bft) 100,00 %
05.04.2018 12:32 13,5 C 7,8 C 65 % 1011,6 hPa 0,0 l/m 18,7 km/h (3 Bft) SW 214 2 min 0,000 mm 3,1 UV-I 826 W/m 7,1 C 8,2 C 25,7 km/h (4 Bft) 100,00 %
05.04.2018 12:34 13,7 C 7,8 C 65 % 1011,6 hPa 0,0 l/m 15,8 km/h (3 Bft) SW 219 2 min 0,000 mm 3,1 UV-I 817 W/m 7,2 C 9,3 C 25,7 km/h (4 Bft) 98,21 %
05.04.2018 12:36 13,7 C 7,8 C 65 % 1011,7 hPa 0,0 l/m 17,5 km/h (3 Bft) S 189 2 min 0,000 mm 3,2 UV-I 832 W/m 7,2 C 8,8 C 25,7 km/h (4 Bft) 100,00 %
05.04.2018 12:38 13,8 C 7,8 C 65 % 1011,7 hPa 0,0 l/m 16,8 km/h (3 Bft) W-SW 244 2 min 0,000 mm 3,3 UV-I 889 W/m 7,3 C 9,1 C 24,1 km/h (4 Bft) 98,00 %
05.04.2018 12:40 13,8 C 7,8 C 63 % 1011,8 hPa 0,0 l/m 16,4 km/h (3 Bft) W-SW 241 2 min 0,000 mm 2,8 UV-I 887 W/m 6,9 C 9,3 C 27,4 km/h (4 Bft) 100,00 %
05.04.2018 12:42 13,6 C 7,8 C 64 % 1011,6 hPa 0,0 l/m 16,6 km/h (3 Bft) W-SW 240 0 min 0,000 mm 1,9 UV-I 341 W/m 6,9 C 9,0 C 24,1 km/h (4 Bft) 100,00 %
05.04.2018 12:44 13,5 C 7,8 C 65 % 1011,6 hPa 0,0 l/m 14,8 km/h (3 Bft) SW 236 0 min 0,000 mm 2,1 UV-I 376 W/m 7,1 C 9,4 C 20,9 km/h (4 Bft) 100,00 %
05.04.2018 12:46 13,3 C 7,8 C 65 % 1011,7 hPa 0,0 l/m 17,1 km/h (3 Bft) W-SW 248 0 min 0,000 mm 1,8 UV-I 377 W/m 6,9 C 8,4 C 27,4 km/h (4 Bft) 100,00 %
05.04.2018 12:48 13,2 C 7,8 C 65 % 1011,7 hPa 0,0 l/m 16,2 km/h (3 Bft) W-SW 243 0 min 0,000 mm 1,6 UV-I 291 W/m 6,8 C 8,6 C 24,1 km/h (4 Bft) 100,00 %
05.04.2018 12:50 13,1 C 7,8 C 66 % 1011,7 hPa 0,0 l/m 15,2 km/h (3 Bft) SW 215 0 min 0,000 mm 1,5 UV-I 288 W/m 6,9 C 8,8 C 25,7 km/h (4 Bft) 100,00 %
05.04.2018 12:52 13,1 C 7,8 C 67 % 1011,7 hPa 0,0 l/m 12,2 km/h (2 Bft) S-SW 196 0 min 0,000 mm 1,8 UV-I 351 W/m 7,1 C 10,0 C 19,3 km/h (3 Bft) 97,87 %
05.04.2018 12:54 13,1 C 7,8 C 66 % 1011,6 hPa 0,0 l/m 14,1 km/h (3 Bft) S-SW 194 0 min 0,000 mm 1,5 UV-I 287 W/m 6,9 C 9,2 C 19,3 km/h (3 Bft) 100,00 %
05.04.2018 12:56 13,1 C 7,8 C 67 % 1011,6 hPa 0,0 l/m 15,1 km/h (3 Bft) W-SW 248 0 min 0,000 mm 1,5 UV-I 251 W/m 7,1 C 8,9 C 20,9 km/h (4 Bft) 100,00 %
05.04.2018 12:58 13,0 C 7,8 C 68 % 1011,5 hPa 0,0 l/m 16,9 km/h (3 Bft) SW 232 0 min 0,000 mm 1,7 UV-I 271 W/m 7,2 C 8,1 C 24,1 km/h (4 Bft) 100,00 %
05.04.2018 13:00 13,0 C 7,8 C 68 % 1011,6 hPa 0,0 l/m 20,3 km/h (4 Bft) SW 229 0 min 0,000 mm 1,8 UV-I 334 W/m 7,2 C 7,1 C 27,4 km/h (4 Bft) 100,00 %
05.04.2018 13:02 13,1 C 7,8 C 68 % 1011,5 hPa 0,0 l/m 12,8 km/h (3 Bft) W 265 0 min 0,381 mm 2,1 UV-I 404 W/m 7,3 C 9,7 C 17,7 km/h (3 Bft) 98,00 %
05.04.2018 13:04 13,3 C 7,8 C 68 % 1011,6 hPa 0,0 l/m 15,9 km/h (3 Bft) W-SW 252 0 min 0,000 mm 1,9 UV-I 356 W/m 7,5 C 8,8 C 20,9 km/h (4 Bft) 100,00 %
05.04.2018 13:06 13,4 C 7,8 C 67 % 1011,6 hPa 0,0 l/m 13,3 km/h (3 Bft) SW 215 0 min 0,000 mm 1,6 UV-I 316 W/m 7,4 C 9,9 C 27,4 km/h (4 Bft) 100,00 %
05.04.2018 13:08 13,3 C 7,8 C 65 % 1011,7 hPa 0,0 l/m 21,7 km/h (4 Bft) S-SW 210 0 min 0,000 mm 1,9 UV-I 387 W/m 6,9 C 7,1 C 29,0 km/h (5 Bft) 100,00 %
05.04.2018 13:10 13,3 C 7,8 C 65 % 1011,7 hPa 0,0 l/m 18,3 km/h (3 Bft) SW 221 2 min 0,000 mm 2,2 UV-I 477 W/m 6,9 C 8,0 C 27,4 km/h (4 Bft) 97,37 %
05.04.2018 13:12 13,2 C 7,8 C 65 % 1011,6 hPa 0,0 l/m 15,3 km/h (3 Bft) SW 224 2 min 0,000 mm 2,2 UV-I 512 W/m 6,8 C 8,9 C 24,1 km/h (4 Bft) 98,21 %
05.04.2018 13:14 13,3 C 7,8 C 66 % 1011,6 hPa 0,0 l/m 18,5 km/h (3 Bft) W-SW 246 2 min 0,000 mm 2,2 UV-I 474 W/m 7,1 C 8,0 C 27,4 km/h (4 Bft) 97,87 %
05.04.2018 13:16 13,3 C 7,8 C 66 % 1011,7 hPa 0,0 l/m 19,8 km/h (3 Bft) S-SW 198 2 min 0,000 mm 2,2 UV-I 440 W/m 7,1 C 7,6 C 29,0 km/h (5 Bft) 96,43 %
05.04.2018 13:19 13,3 C 7,8 C 64 % 1011,6 hPa 0,0 l/m 19,5 km/h (3 Bft) W 261 3 min 0,000 mm 2,2 UV-I 431 W/m 6,6 C 7,7 C 30,6 km/h (5 Bft) 98,63 %
05.04.2018 13:20 13,3 C 7,8 C 64 % 1011,6 hPa 0,0 l/m 20,7 km/h (4 Bft) W 265 1 min 0,000 mm 2,3 UV-I 469 W/m 6,6 C 7,4 C 30,6 km/h (5 Bft) 91,67 %
05.04.2018 13:22 13,3 C 7,8 C 64 % 1011,6 hPa 0,0 l/m 15,4 km/h (3 Bft) W-SW 255 2 min 0,000 mm 2,5 UV-I 504 W/m 6,6 C 9,0 C 19,3 km/h (3 Bft) 92,68 %
05.04.2018 13:24 13,5 C 7,8 C 64 % 1011,6 hPa 0,0 l/m 16,8 km/h (3 Bft) W-SW 254 2 min 0,000 mm 2,4 UV-I 652 W/m 6,8 C 8,8 C 27,4 km/h (4 Bft) 98,21 %
05.04.2018 13:26 13,7 C 7,8 C 65 % 1011,6 hPa 0,0 l/m 12,8 km/h (3 Bft) SW 231 2 min 0,000 mm 2,3 UV-I 455 W/m 7,2 C 10,4 C 22,5 km/h (4 Bft) 95,74 %
05.04.2018 13:28 13,7 C 7,8 C 63 % 1011,6 hPa 0,0 l/m 16,9 km/h (3 Bft) W 267 2 min 0,000 mm 2,3 UV-I 413 W/m 6,8 C 9,0 C 25,7 km/h (4 Bft) 97,56 %
05.04.2018 13:30 13,7 C 7,8 C 63 % 1011,6 hPa 0,0 l/m 15,5 km/h (3 Bft) SW 236 2 min 0,000 mm 2,3 UV-I 431 W/m 6,8 C 9,4 C 24,1 km/h (4 Bft) 98,21 %
05.04.2018 13:32 13,8 C 7,8 C 63 % 1011,6 hPa 0,0 l/m 14,5 km/h (3 Bft) S 188 2 min 0,000 mm 2,6 UV-I 434 W/m 6,9 C 9,9 C 22,5 km/h (4 Bft) 96,30 %
05.04.2018 13:34 14,0 C 7,8 C 63 % 1011,5 hPa 0,0 l/m 14,5 km/h (3 Bft) S-SW 196 2 min 0,000 mm 3,2 UV-I 794 W/m 7,1 C 10,2 C 25,7 km/h (4 Bft) 95,31 %
05.04.2018 13:36 14,3 C 7,8 C 62 % 1011,6 hPa 0,0 l/m 17,8 km/h (3 Bft) SW 216 2 min 0,000 mm 3,1 UV-I 872 W/m 7,1 C 9,5 C 24,1 km/h (4 Bft) 97,56 %
05.04.2018 13:38 14,4 C 7,8 C 62 % 1011,6 hPa 0,0 l/m 15,4 km/h (3 Bft) SW 230 2 min 0,000 mm 2,5 UV-I 884 W/m 7,2 C 10,3 C 32,2 km/h (5 Bft) 98,00 %
05.04.2018 13:40 14,3 C 7,8 C 60 % 1011,6 hPa 0,0 l/m 21,7 km/h (4 Bft) SW 227 2 min 0,000 mm 2,9 UV-I 845 W/m 6,6 C 8,4 C 32,2 km/h (5 Bft) 98,00 %
05.04.2018 13:42 14,1 C 7,8 C 60 % 1011,6 hPa 0,0 l/m 20,2 km/h (4 Bft) W-SW 255 2 min 0,000 mm 2,8 UV-I 725 W/m 6,5 C 8,5 C 27,4 km/h (4 Bft) 100,00 %
05.04.2018 13:44 14,0 C 7,8 C 60 % 1011,6 hPa 0,0 l/m 25,0 km/h (4 Bft) W 262 2 min 0,000 mm 2,9 UV-I 753 W/m 6,4 C 7,3 C 35,4 km/h (5 Bft) 97,62 %
05.04.2018 13:46 14,1 C 7,8 C 61 % 1011,5 hPa 0,0 l/m 21,0 km/h (4 Bft) SW 236 2 min 0,000 mm 3,1 UV-I 874 W/m 6,7 C 8,3 C 33,8 km/h (5 Bft) 100,00 %
05.04.2018 13:48 14,2 C 7,8 C 61 % 1011,6 hPa 0,0 l/m 23,1 km/h (4 Bft) S-SW 201 2 min 0,000 mm 3,2 UV-I 889 W/m 6,8 C 7,9 C 33,8 km/h (5 Bft) 100,00 %
05.04.2018 13:50 14,3 C 7,8 C 61 % 1011,6 hPa 0,0 l/m 19,2 km/h (3 Bft) W-NW 284 2 min 0,000 mm 3,2 UV-I 857 W/m 6,9 C 9,1 C 25,7 km/h (4 Bft) 100,00 %
05.04.2018 13:52 14,5 C 7,8 C 61 % 1011,5 hPa 0,0 l/m 13,4 km/h (3 Bft) W 269 2 min 0,000 mm 3,0 UV-I 794 W/m 7,1 C 11,2 C 24,1 km/h (4 Bft) 100,00 %
05.04.2018 13:54 14,8 C 7,8 C 61 % 1011,6 hPa 0,0 l/m 17,8 km/h (3 Bft) W 267 2 min 0,000 mm 3,0 UV-I 812 W/m 7,4 C 10,1 C 25,7 km/h (4 Bft) 100,00 %
05.04.2018 13:56 14,8 C 7,8 C 58 % 1011,5 hPa 0,0 l/m 19,6 km/h (3 Bft) W 271 2 min 0,000 mm 3,0 UV-I 800 W/m 6,6 C 9,6 C 29,0 km/h (5 Bft) 100,00 %
05.04.2018 13:58 14,7 C 7,8 C 60 % 1011,4 hPa 0,0 l/m 17,7 km/h (3 Bft) W 267 2 min 0,000 mm 3,0 UV-I 793 W/m 7,0 C 10,0 C 25,7 km/h (4 Bft) 100,00 %
05.04.2018 14:00 14,7 C 7,8 C 60 % 1011,5 hPa 0,0 l/m 14,6 km/h (3 Bft) W 260 2 min 0,381 mm 3,0 UV-I 795 W/m 7,0 C 11,0 C 22,5 km/h (4 Bft) 100,00 %
05.04.2018 14:02 14,8 C 7,8 C 61 % 1011,4 hPa 0,0 l/m 15,1 km/h (3 Bft) W-SW 240 2 min 0,000 mm 2,9 UV-I 787 W/m 7,4 C 10,9 C 22,5 km/h (4 Bft) 97,73 %
05.04.2018 14:04 15,1 C 7,8 C 59 % 1011,4 hPa 0,0 l/m 17,8 km/h (3 Bft) SW 220 2 min 0,000 mm 2,8 UV-I 758 W/m 7,1 C 10,5 C 29,0 km/h (5 Bft) 97,73 %
05.04.2018 14:06 15,1 C 7,8 C 59 % 1011,4 hPa 0,0 l/m 13,8 km/h (3 Bft) SW 228 2 min 0,000 mm 2,8 UV-I 765 W/m 7,1 C 11,7 C 22,5 km/h (4 Bft) 100,00 %
05.04.2018 14:08 15,0 C 7,8 C 59 % 1011,4 hPa 0,0 l/m 20,7 km/h (4 Bft) W 259 2 min 0,000 mm 2,9 UV-I 820 W/m 7,1 C 9,6 C 30,6 km/h (5 Bft) 100,00 %
05.04.2018 14:10 14,8 C 7,8 C 58 % 1011,4 hPa 0,0 l/m 17,3 km/h (3 Bft) SW 221 2 min 0,000 mm 2,8 UV-I 789 W/m 6,6 C 10,2 C 27,4 km/h (4 Bft) 100,00 %
05.04.2018 14:12 14,8 C 7,8 C 57 % 1011,4 hPa 0,0 l/m 16,3 km/h (3 Bft) SW 224 2 min 0,000 mm 2,9 UV-I 822 W/m 6,4 C 10,5 C 22,5 km/h (4 Bft) 100,00 %
05.04.2018 14:14 14,8 C 7,8 C 59 % 1011,4 hPa 0,0 l/m 13,4 km/h (3 Bft) SW 225 2 min 0,000 mm 2,9 UV-I 816 W/m 6,9 C 11,5 C 22,5 km/h (4 Bft) 100,00 %
05.04.2018 14:16 14,9 C 7,8 C 59 % 1011,4 hPa 0,0 l/m 17,1 km/h (3 Bft) W-SW 247 2 min 0,000 mm 2,8 UV-I 814 W/m 7,0 C 10,4 C 27,4 km/h (4 Bft) 100,00 %
05.04.2018 14:18 15,0 C 7,8 C 57 % 1011,4 hPa 0,0 l/m 17,2 km/h (3 Bft) W-NW 294 2 min 0,000 mm 2,6 UV-I 787 W/m 6,6 C 10,5 C 25,7 km/h (4 Bft) 97,62 %
05.04.2018 14:20 14,9 C 7,8 C 56 % 1011,3 hPa 0,0 l/m 16,6 km/h (3 Bft) W 271 2 min 0,000 mm 2,5 UV-I 716 W/m 6,2 C 10,6 C 22,5 km/h (4 Bft) 100,00 %
05.04.2018 14:22 15,1 C 7,8 C 57 % 1011,3 hPa 0,0 l/m 13,9 km/h (3 Bft) SW 232 2 min 0,000 mm 2,7 UV-I 758 W/m 6,6 C 11,7 C 20,9 km/h (4 Bft) 100,00 %
05.04.2018 14:24 15,2 C 7,8 C 58 % 1011,3 hPa 0,0 l/m 17,7 km/h (3 Bft) W-NW 295 2 min 0,000 mm 2,5 UV-I 639 W/m 7,0 C 10,6 C 24,1 km/h (4 Bft) 100,00 %
05.04.2018 14:26 15,2 C 7,8 C 55 % 1011,4 hPa 0,0 l/m 15,7 km/h (3 Bft) SW 232 2 min 0,000 mm 2,6 UV-I 676 W/m 6,2 C 11,2 C 24,1 km/h (4 Bft) 100,00 %
05.04.2018 14:28 15,0 C 7,8 C 54 % 1011,3 hPa 0,0 l/m 17,7 km/h (3 Bft) SW 235 2 min 0,000 mm 2,6 UV-I 714 W/m 5,8 C 10,4 C 25,7 km/h (4 Bft) 100,00 %
05.04.2018 14:30 15,0 C 7,8 C 55 % 1011,4 hPa 0,0 l/m 14,3 km/h (3 Bft) W 266 2 min 0,000 mm 2,4 UV-I 728 W/m 6,0 C 11,4 C 24,1 km/h (4 Bft) 100,00 %
05.04.2018 14:32 15,1 C 7,8 C 56 % 1011,4 hPa 0,0 l/m 17,7 km/h (3 Bft) W 275 2 min 0,000 mm 2,5 UV-I 681 W/m 6,4 C 10,5 C 29,0 km/h (5 Bft) 100,00 %
05.04.2018 14:34 14,9 C 7,8 C 56 % 1011,3 hPa 0,0 l/m 15,4 km/h (3 Bft) SW 226 2 min 0,000 mm 2,5 UV-I 669 W/m 6,2 C 10,9 C 27,4 km/h (4 Bft) 94,29 %
05.04.2018 14:36 14,9 C 7,8 C 57 % 1011,4 hPa 0,0 l/m 17,0 km/h (3 Bft) S-SW 207 2 min 0,000 mm 2,4 UV-I 661 W/m 6,5 C 10,4 C 27,4 km/h (4 Bft) 100,00 %
05.04.2018 14:38 14,8 C 7,8 C 57 % 1011,4 hPa 0,0 l/m 14,4 km/h (3 Bft) W 274 2 min 0,000 mm 2,4 UV-I 655 W/m 6,4 C 11,2 C 19,3 km/h (3 Bft) 100,00 %
05.04.2018 14:40 14,8 C 7,8 C 57 % 1011,4 hPa 0,0 l/m 15,8 km/h (3 Bft) S-SW 213 2 min 0,000 mm 2,5 UV-I 686 W/m 6,4 C 10,7 C 22,5 km/h (4 Bft) 96,43 %
05.04.2018 14:42 14,8 C 7,8 C 57 % 1011,4 hPa 0,0 l/m 19,3 km/h (3 Bft) W 281 2 min 0,000 mm 2,4 UV-I 657 W/m 6,4 C 9,7 C 27,4 km/h (4 Bft) 98,00 %
05.04.2018 14:44 14,8 C 7,8 C 57 % 1011,4 hPa 0,0 l/m 13,9 km/h (3 Bft) SW 214 2 min 0,000 mm 2,4 UV-I 630 W/m 6,4 C 11,3 C 25,7 km/h (4 Bft) 100,00 %
05.04.2018 14:46 14,9 C 7,8 C 59 % 1011,4 hPa 0,0 l/m 18,2 km/h (3 Bft) W 270 2 min 0,000 mm 2,4 UV-I 672 W/m 7,0 C 10,1 C 25,7 km/h (4 Bft) 100,00 %
05.04.2018 14:48 15,1 C 7,8 C 58 % 1011,5 hPa 0,0 l/m 16,7 km/h (3 Bft) W-SW 252 2 min 0,000 mm 2,4 UV-I 716 W/m 6,9 C 10,8 C 24,1 km/h (4 Bft) 100,00 %
05.04.2018 14:50 15,0 C 7,8 C 57 % 1011,4 hPa 0,0 l/m 10,1 km/h (2 Bft) W-SW 251 2 min 0,000 mm 2,4 UV-I 719 W/m 6,6 C 13,1 C 14,5 km/h (3 Bft) 100,00 %
05.04.2018 14:52 15,1 C 7,8 C 59 % 1011,4 hPa 0,0 l/m 14,1 km/h (3 Bft) SW 221 2 min 0,000 mm 2,4 UV-I 692 W/m 7,1 C 11,6 C 17,7 km/h (3 Bft) 97,87 %
05.04.2018 14:54 15,2 C 7,8 C 59 % 1011,4 hPa 0,0 l/m 14,6 km/h (3 Bft) W 263 2 min 0,000 mm 2,3 UV-I 672 W/m 7,2 C 11,6 C 25,7 km/h (4 Bft) 97,44 %
05.04.2018 14:56 15,1 C 7,8 C 57 % 1011,5 hPa 0,0 l/m 19,9 km/h (4 Bft) W 268 2 min 0,000 mm 2,1 UV-I 677 W/m 6,6 C 9,9 C 29,0 km/h (5 Bft) 96,00 %
05.04.2018 14:58 14,9 C 7,8 C 57 % 1011,4 hPa 0,0 l/m 12,1 km/h (2 Bft) SW 225 2 min 0,000 mm 1,5 UV-I 588 W/m 6,5 C 12,1 C 19,3 km/h (3 Bft) 96,15 %
05.04.2018 15:00 14,9 C 7,8 C 58 % 1011,5 hPa 0,0 l/m 13,3 km/h (3 Bft) S-SW 211 2 min 0,432 mm 1,6 UV-I 546 W/m 6,7 C 11,7 C 17,7 km/h (3 Bft) 100,00 %
05.04.2018 15:02 14,8 C 7,8 C 59 % 1011,5 hPa 0,0 l/m 19,5 km/h (3 Bft) SW 232 2 min 0,000 mm 1,3 UV-I 531 W/m 6,9 C 9,6 C 27,4 km/h (4 Bft) 95,45 %
05.04.2018 15:04 14,7 C 7,8 C 58 % 1011,5 hPa 0,0 l/m 18,3 km/h (3 Bft) W-SW 254 0 min 0,000 mm 1,0 UV-I 244 W/m 6,5 C 9,8 C 30,6 km/h (5 Bft) 96,43 %
05.04.2018 15:06 14,4 C 7,8 C 59 % 1011,6 hPa 0,0 l/m 18,7 km/h (3 Bft) W 273 0 min 0,000 mm 0,9 UV-I 193 W/m 6,5 C 9,3 C 30,6 km/h (5 Bft) 97,37 %
05.04.2018 15:08 14,2 C 7,8 C 60 % 1011,6 hPa 0,0 l/m 13,5 km/h (3 Bft) W-SW 237 0 min 0,000 mm 0,7 UV-I 151 W/m 6,5 C 10,8 C 19,3 km/h (3 Bft) 98,31 %
05.04.2018 15:10 14,1 C 7,8 C 60 % 1011,6 hPa 0,0 l/m 11,4 km/h (2 Bft) S-SW 207 0 min 0,000 mm 0,6 UV-I 126 W/m 6,5 C 11,5 C 19,3 km/h (3 Bft) 95,12 %
05.04.2018 15:12 14,1 C 7,8 C 61 % 1011,6 hPa 0,0 l/m 14,1 km/h (3 Bft) W 279 0 min 0,000 mm 0,3 UV-I 106 W/m 6,7 C 10,4 C 19,3 km/h (3 Bft) 97,87 %
05.04.2018 15:14 13,9 C 7,8 C 61 % 1011,7 hPa 0,0 l/m 12,9 km/h (3 Bft) W 277 0 min 0,000 mm 0,0 UV-I 98 W/m 6,5 C 10,6 C 17,7 km/h (3 Bft) 95,12 %
05.04.2018 15:16 13,8 C 7,8 C 62 % 1011,6 hPa 0,0 l/m 11,8 km/h (2 Bft) W 263 0 min 0,000 mm 0,3 UV-I 112 W/m 6,6 C 11,0 C 16,1 km/h (3 Bft) 98,11 %
05.04.2018 15:18 13,8 C 7,8 C 62 % 1011,8 hPa 0,0 l/m 13,7 km/h (3 Bft) S-SW 207 0 min 0,000 mm 0,6 UV-I 142 W/m 6,6 C 10,2 C 20,9 km/h (4 Bft) 97,56 %
05.04.2018 15:20 13,8 C 7,8 C 61 % 1011,6 hPa 0,0 l/m 14,1 km/h (3 Bft) W 274 0 min 0,000 mm 0,7 UV-I 189 W/m 6,4 C 10,1 C 22,5 km/h (4 Bft) 86,00 %
05.04.2018 15:22 13,7 C 7,8 C 61 % 1011,6 hPa 0,0 l/m 12,2 km/h (2 Bft) W 261 0 min 0,000 mm 0,9 UV-I 246 W/m 6,3 C 10,7 C 17,7 km/h (3 Bft) 98,00 %
05.04.2018 15:24 13,8 C 7,8 C 61 % 1011,6 hPa 0,0 l/m 9,2 km/h (2 Bft) SW 227 0 min 0,000 mm 1,1 UV-I 281 W/m 6,4 C 12,2 C 14,5 km/h (3 Bft) 98,00 %
05.04.2018 15:26 13,9 C 7,8 C 61 % 1011,6 hPa 0,0 l/m 10,4 km/h (2 Bft) W-SW 242 0 min 0,000 mm 1,1 UV-I 308 W/m 6,5 C 11,7 C 17,7 km/h (3 Bft) 100,00 %
05.04.2018 15:28 14,1 C 7,8 C 61 % 1011,6 hPa 0,0 l/m 8,1 km/h (2 Bft) W 262 2 min 0,000 mm 1,2 UV-I 361 W/m 6,7 C 13,1 C 12,9 km/h (3 Bft) 100,00 %
05.04.2018 15:30 14,2 C 7,8 C 61 % 1011,6 hPa 0,0 l/m 12,3 km/h (3 Bft) W-SW 238 2 min 0,000 mm 1,4 UV-I 398 W/m 6,8 C 11,2 C 14,5 km/h (3 Bft) 100,00 %
05.04.2018 15:32 14,4 C 7,8 C 61 % 1011,6 hPa 0,0 l/m 7,4 km/h (2 Bft) W 275 2 min 0,000 mm 1,5 UV-I 537 W/m 7,0 C 13,8 C 11,3 km/h (2 Bft) 96,36 %
05.04.2018 15:34 14,6 C 7,8 C 58 % 1011,6 hPa 0,0 l/m 12,3 km/h (3 Bft) W 269 2 min 0,000 mm 1,5 UV-I 492 W/m 6,4 C 11,7 C 19,3 km/h (3 Bft) 97,62 %
05.04.2018 15:36 14,5 C 7,8 C 58 % 1011,6 hPa 0,0 l/m 11,5 km/h (2 Bft) N-NW 331 0 min 0,000 mm 1,2 UV-I 326 W/m 6,3 C 11,9 C 19,3 km/h (3 Bft) 96,36 %
05.04.2018 15:38 14,4 C 7,8 C 58 % 1011,5 hPa 0,0 l/m 6,8 km/h (2 Bft) W-NW 282 0 min 0,000 mm 1,1 UV-I 264 W/m 6,2 C 14,2 C 11,3 km/h (2 Bft) 100,00 %
05.04.2018 15:40 14,3 C 7,8 C 59 % 1011,5 hPa 0,0 l/m 9,8 km/h (2 Bft) W-SW 256 0 min 0,000 mm 1,0 UV-I 237 W/m 6,4 C 12,4 C 16,1 km/h (3 Bft) 96,00 %
05.04.2018 15:42 14,2 C 7,8 C 59 % 1011,5 hPa 0,0 l/m 12,9 km/h (3 Bft) W-SW 239 0 min 0,000 mm 1,0 UV-I 229 W/m 6,3 C 11,0 C 24,1 km/h (4 Bft) 97,37 %
05.04.2018 15:44 14,1 C 7,8 C 57 % 1011,5 hPa 0,0 l/m 11,4 km/h (2 Bft) SW 220 0 min 0,000 mm 1,0 UV-I 243 W/m 5,7 C 11,5 C 19,3 km/h (3 Bft) 98,21 %
05.04.2018 15:46 13,9 C 7,8 C 58 % 1011,5 hPa 0,0 l/m 12,9 km/h (3 Bft) W 271 0 min 0,000 mm 1,0 UV-I 272 W/m 5,8 C 10,6 C 17,7 km/h (3 Bft) 98,00 %
05.04.2018 15:48 13,9 C 7,8 C 58 % 1011,5 hPa 0,0 l/m 9,6 km/h (2 Bft) W-SW 254 0 min 0,000 mm 1,0 UV-I 282 W/m 5,8 C 12,1 C 14,5 km/h (3 Bft) 97,37 %
05.04.2018 15:50 13,9 C 7,8 C 59 % 1011,4 hPa 0,0 l/m 11,7 km/h (2 Bft) W-SW 245 0 min 0,000 mm 1,1 UV-I 295 W/m 6,0 C 11,1 C 17,7 km/h (3 Bft) 98,04 %
05.04.2018 15:52 14,1 C 7,8 C 59 % 1011,4 hPa 0,0 l/m 11,3 km/h (2 Bft) SW 236 0 min 0,000 mm 1,1 UV-I 303 W/m 6,2 C 11,5 C 19,3 km/h (3 Bft) 98,21 %
05.04.2018 15:54 14,2 C 7,8 C 59 % 1011,4 hPa 0,0 l/m 10,6 km/h (2 Bft) W-SW 242 2 min 0,000 mm 1,2 UV-I 362 W/m 6,3 C 12,0 C 16,1 km/h (3 Bft) 97,87 %
05.04.2018 15:56 14,3 C 7,8 C 58 % 1011,4 hPa 0,0 l/m 10,9 km/h (2 Bft) SW 234 2 min 0,000 mm 1,2 UV-I 363 W/m 6,2 C 11,9 C 22,5 km/h (4 Bft) 97,56 %
05.04.2018 15:58 14,3 C 7,8 C 58 % 1011,4 hPa 0,0 l/m 9,8 km/h (2 Bft) SW 215 2 min 0,000 mm 1,3 UV-I 387 W/m 6,2 C 12,4 C 17,7 km/h (3 Bft) 97,87 %
05.04.2018 16:00 14,6 C 7,8 C 58 % 1011,4 hPa 0,0 l/m 13,4 km/h (3 Bft) SW 234 2 min 0,000 mm 1,4 UV-I 544 W/m 6,4 C 11,3 C 17,7 km/h (3 Bft) 95,45 %
05.04.2018 16:02 14,7 C 7,8 C 56 % 1011,4 hPa 0,0 l/m 9,4 km/h (2 Bft) S-SW 196 2 min 0,203 mm 1,4 UV-I 530 W/m 6,0 C 13,1 C 16,1 km/h (3 Bft) 97,73 %
05.04.2018 16:04 14,7 C 7,8 C 56 % 1011,4 hPa 0,0 l/m 11,9 km/h (2 Bft) SW 216 2 min 0,000 mm 1,4 UV-I 534 W/m 6,0 C 12,0 C 20,9 km/h (4 Bft) 98,00 %
05.04.2018 16:06 14,6 C 7,8 C 56 % 1011,4 hPa 0,0 l/m 11,4 km/h (2 Bft) W-SW 241 2 min 0,000 mm 1,5 UV-I 569 W/m 5,9 C 12,1 C 16,1 km/h (3 Bft) 95,45 %
05.04.2018 16:08 14,8 C 7,8 C 58 % 1011,4 hPa 0,0 l/m 12,1 km/h (2 Bft) SW 234 2 min 0,000 mm 1,5 UV-I 581 W/m 6,6 C 12,0 C 20,9 km/h (4 Bft) 98,11 %
05.04.2018 16:10 14,9 C 7,8 C 56 % 1011,4 hPa 0,0 l/m 15,8 km/h (3 Bft) SW 221 2 min 0,000 mm 1,3 UV-I 476 W/m 6,2 C 10,8 C 24,1 km/h (4 Bft) 98,00 %
05.04.2018 16:12 14,9 C 7,8 C 55 % 1011,4 hPa 0,0 l/m 10,9 km/h (2 Bft) S-SW 209 2 min 0,000 mm 1,3 UV-I 479 W/m 5,9 C 12,6 C 19,3 km/h (3 Bft) 97,62 %
05.04.2018 16:14 15,0 C 7,8 C 55 % 1011,4 hPa 0,0 l/m 14,2 km/h (3 Bft) W-SW 254 2 min 0,000 mm 1,4 UV-I 553 W/m 6,0 C 11,5 C 22,5 km/h (4 Bft) 98,08 %
05.04.2018 16:16 15,2 C 7,8 C 55 % 1011,4 hPa 0,0 l/m 13,6 km/h (3 Bft) W-SW 237 2 min 0,000 mm 1,4 UV-I 581 W/m 6,2 C 11,9 C 24,1 km/h (4 Bft) 94,87 %
05.04.2018 16:18 15,2 C 7,8 C 55 % 1011,3 hPa 0,0 l/m 18,0 km/h (3 Bft) SW 227 2 min 0,000 mm 1,3 UV-I 484 W/m 6,2 C 10,5 C 30,6 km/h (5 Bft) 96,00 %
05.04.2018 16:20 15,3 C 7,8 C 54 % 1011,3 hPa 0,0 l/m 11,7 km/h (2 Bft) W-SW 252 2 min 0,000 mm 1,2 UV-I 455 W/m 6,0 C 12,7 C 17,7 km/h (3 Bft) 95,74 %
05.04.2018 16:22 15,2 C 7,8 C 54 % 1011,3 hPa 0,0 l/m 13,8 km/h (3 Bft) S-SW 205 2 min 0,000 mm 1,2 UV-I 401 W/m 6,0 C 11,8 C 22,5 km/h (4 Bft) 95,74 %
05.04.2018 16:24 15,3 C 7,8 C 56 % 1011,4 hPa 0,0 l/m 12,2 km/h (2 Bft) W-SW 243 2 min 0,000 mm 1,2 UV-I 443 W/m 6,6 C 12,5 C 20,9 km/h (4 Bft) 98,00 %
05.04.2018 16:26 15,3 C 7,8 C 55 % 1011,4 hPa 0,0 l/m 15,8 km/h (3 Bft) SW 232 2 min 0,000 mm 1,2 UV-I 500 W/m 6,3 C 11,3 C 20,9 km/h (4 Bft) 95,12 %
05.04.2018 16:28 15,2 C 7,8 C 55 % 1011,3 hPa 0,0 l/m 15,3 km/h (3 Bft) S-SO 167 2 min 0,000 mm 1,2 UV-I 494 W/m 6,2 C 11,3 C 24,1 km/h (4 Bft) 98,11 %
05.04.2018 16:30 15,1 C 7,8 C 56 % 1011,4 hPa 0,0 l/m 16,7 km/h (3 Bft) S-SW 193 2 min 0,000 mm 1,2 UV-I 443 W/m 6,4 C 10,8 C 24,1 km/h (4 Bft) 97,87 %
05.04.2018 16:32 15,0 C 7,8 C 57 % 1011,3 hPa 0,0 l/m 14,2 km/h (3 Bft) SW 219 2 min 0,000 mm 1,2 UV-I 451 W/m 6,6 C 11,5 C 20,9 km/h (4 Bft) 95,74 %
05.04.2018 16:34 15,1 C 7,8 C 56 % 1011,4 hPa 0,0 l/m 14,6 km/h (3 Bft) S 190 2 min 0,000 mm 1,1 UV-I 451 W/m 6,4 C 11,4 C 20,9 km/h (4 Bft) 94,74 %
05.04.2018 16:36 15,1 C 7,8 C 57 % 1011,4 hPa 0,0 l/m 15,1 km/h (3 Bft) S-SO 155 2 min 0,000 mm 1,1 UV-I 478 W/m 6,6 C 11,3 C 22,5 km/h (4 Bft) 96,00 %
05.04.2018 16:38 15,3 C 7,8 C 57 % 1011,4 hPa 0,0 l/m 13,1 km/h (3 Bft) SW 215 2 min 0,000 mm 1,1 UV-I 474 W/m 6,8 C 12,2 C 24,1 km/h (4 Bft) 97,73 %
05.04.2018 16:40 15,3 C 7,8 C 55 % 1011,4 hPa 0,0 l/m 19,8 km/h (3 Bft) S-SW 210 2 min 0,000 mm 1,1 UV-I 475 W/m 6,3 C 10,2 C 29,0 km/h (5 Bft) 96,43 %
05.04.2018 16:42 15,2 C 7,8 C 54 % 1011,4 hPa 0,0 l/m 16,3 km/h (3 Bft) SW 233 2 min 0,000 mm 1,1 UV-I 464 W/m 6,0 C 11,0 C 24,1 km/h (4 Bft) 93,18 %
05.04.2018 16:44 15,2 C 7,8 C 55 % 1011,4 hPa 0,0 l/m 18,0 km/h (3 Bft) SW 229 2 min 0,000 mm 1,1 UV-I 450 W/m 6,2 C 10,5 C 25,7 km/h (4 Bft) 96,00 %
05.04.2018 16:46 15,2 C 7,8 C 56 % 1011,4 hPa 0,0 l/m 13,3 km/h (3 Bft) SW 229 2 min 0,000 mm 1,0 UV-I 440 W/m 6,5 C 12,0 C 24,1 km/h (4 Bft) 100,00 %
05.04.2018 16:48 15,3 C 7,8 C 56 % 1011,4 hPa 0,0 l/m 10,6 km/h (2 Bft) S-SW 196 2 min 0,000 mm 1,0 UV-I 431 W/m 6,6 C 13,2 C 17,7 km/h (3 Bft) 95,31 %
05.04.2018 16:50 15,2 C 7,8 C 55 % 1011,4 hPa 0,0 l/m 12,7 km/h (3 Bft) W-SW 250 2 min 0,000 mm 0,8 UV-I 314 W/m 6,2 C 12,2 C 20,9 km/h (4 Bft) 93,33 %
05.04.2018 16:52 14,8 C 7,8 C 56 % 1011,5 hPa 0,0 l/m 13,1 km/h (3 Bft) S-SW 205 0 min 0,000 mm 0,7 UV-I 82 W/m 6,1 C 11,6 C 19,3 km/h (3 Bft) 98,46 %
05.04.2018 16:54 14,5 C 7,8 C 57 % 1011,5 hPa 0,0 l/m 15,5 km/h (3 Bft) S-SW 192 0 min 0,000 mm 0,6 UV-I 95 W/m 6,1 C 10,4 C 25,7 km/h (4 Bft) 97,73 %
05.04.2018 16:56 14,3 C 7,8 C 57 % 1011,5 hPa 0,0 l/m 12,6 km/h (3 Bft) SW 223 0 min 0,000 mm 0,6 UV-I 91 W/m 5,9 C 11,2 C 20,9 km/h (4 Bft) 97,56 %
05.04.2018 16:58 14,2 C 7,8 C 56 % 1011,6 hPa 0,0 l/m 19,3 km/h (3 Bft) S-SW 206 0 min 0,000 mm 0,6 UV-I 90 W/m 5,6 C 8,9 C 30,6 km/h (5 Bft) 98,00 %
05.04.2018 17:00 14,2 C 7,8 C 56 % 1011,6 hPa 0,0 l/m 20,0 km/h (4 Bft) S-SW 211 0 min 0,000 mm 0,5 UV-I 94 W/m 5,6 C 8,7 C 27,4 km/h (4 Bft) 97,87 %
05.04.2018 17:02 14,1 C 7,8 C 58 % 1011,6 hPa 0,0 l/m 12,9 km/h (3 Bft) S 185 0 min 0,280 mm 0,5 UV-I 106 W/m 6,0 C 10,9 C 20,9 km/h (4 Bft) 95,74 %
05.04.2018 17:04 14,1 C 7,8 C 57 % 1011,6 hPa 0,0 l/m 14,4 km/h (3 Bft) SW 228 0 min 0,000 mm 0,5 UV-I 141 W/m 5,7 C 10,3 C 22,5 km/h (4 Bft) 95,12 %
05.04.2018 17:06 14,3 C 7,8 C 58 % 1011,6 hPa 0,0 l/m 13,1 km/h (3 Bft) SW 232 2 min 0,000 mm 0,7 UV-I 476 W/m 6,2 C 11,0 C 20,9 km/h (4 Bft) 98,18 %
05.04.2018 17:08 14,9 C 7,8 C 56 % 1011,6 hPa 0,0 l/m 11,3 km/h (2 Bft) S-SW 205 2 min 0,000 mm 0,7 UV-I 514 W/m 6,2 C 12,4 C 17,7 km/h (3 Bft) 97,37 %
05.04.2018 17:10 15,1 C 7,8 C 56 % 1011,5 hPa 0,0 l/m 18,6 km/h (3 Bft) SW 221 2 min 0,000 mm 0,8 UV-I 493 W/m 6,4 C 10,2 C 27,4 km/h (4 Bft) 98,00 %
05.04.2018 17:12 15,1 C 7,8 C 55 % 1011,5 hPa 0,0 l/m 20,8 km/h (4 Bft) W-SW 239 2 min 0,000 mm 0,7 UV-I 499 W/m 6,1 C 9,7 C 30,6 km/h (5 Bft) 98,21 %
05.04.2018 17:14 15,2 C 7,8 C 55 % 1011,5 hPa 0,0 l/m 16,8 km/h (3 Bft) W-SW 251 2 min 0,000 mm 0,7 UV-I 463 W/m 6,2 C 10,9 C 27,4 km/h (4 Bft) 97,37 %
05.04.2018 17:16 15,2 C 7,8 C 55 % 1011,5 hPa 0,0 l/m 12,8 km/h (3 Bft) SW 217 2 min 0,000 mm 0,7 UV-I 390 W/m 6,2 C 12,2 C 20,9 km/h (4 Bft) 98,11 %
05.04.2018 17:18 15,2 C 7,8 C 55 % 1011,6 hPa 0,0 l/m 16,4 km/h (3 Bft) W-SW 239 2 min 0,000 mm 0,7 UV-I 381 W/m 6,2 C 11,0 C 27,4 km/h (4 Bft) 100,00 %
05.04.2018 17:20 15,3 C 7,8 C 55 % 1011,5 hPa 0,0 l/m 16,2 km/h (3 Bft) W 268 2 min 0,000 mm 0,7 UV-I 375 W/m 6,3 C 11,2 C 30,6 km/h (5 Bft) 96,43 %
05.04.2018 17:22 15,4 C 7,8 C 55 % 1011,6 hPa 0,0 l/m 12,8 km/h (3 Bft) SW 235 2 min 0,000 mm 0,6 UV-I 360 W/m 6,4 C 12,4 C 19,3 km/h (3 Bft) 100,00 %
05.04.2018 17:24 15,3 C 7,8 C 55 % 1011,5 hPa 0,0 l/m 15,4 km/h (3 Bft) SW 232 2 min 0,000 mm 0,6 UV-I 343 W/m 6,3 C 11,4 C 24,1 km/h (4 Bft) 100,00 %
05.04.2018 17:26 15,3 C 7,8 C 54 % 1011,6 hPa 0,0 l/m 15,9 km/h (3 Bft) W-SW 242 2 min 0,000 mm 0,6 UV-I 328 W/m 6,0 C 11,3 C 27,4 km/h (4 Bft) 97,62 %
05.04.2018 17:28 15,2 C 7,8 C 54 % 1011,6 hPa 0,0 l/m 19,9 km/h (4 Bft) W-SW 253 2 min 0,000 mm 0,6 UV-I 317 W/m 6,0 C 10,0 C 27,4 km/h (4 Bft) 100,00 %
05.04.2018 17:30 15,2 C 7,8 C 55 % 1011,6 hPa 0,0 l/m 17,1 km/h (3 Bft) S-SW 207 2 min 0,000 mm 0,6 UV-I 311 W/m 6,2 C 10,8 C 29,0 km/h (5 Bft) 100,00 %
05.04.2018 17:32 15,1 C 7,8 C 54 % 1011,6 hPa 0,0 l/m 18,7 km/h (3 Bft) SW 232 2 min 0,000 mm 0,5 UV-I 212 W/m 5,9 C 10,2 C 27,4 km/h (4 Bft) 100,00 %
05.04.2018 17:34 15,0 C 7,8 C 55 % 1011,6 hPa 0,0 l/m 15,7 km/h (3 Bft) W-SW 250 0 min 0,000 mm 0,5 UV-I 151 W/m 6,0 C 11,0 C 22,5 km/h (4 Bft) 100,00 %
05.04.2018 17:36 14,9 C 7,8 C 56 % 1011,6 hPa 0,0 l/m 14,4 km/h (3 Bft) W-SW 242 2 min 0,000 mm 0,4 UV-I 240 W/m 6,2 C 11,3 C 24,1 km/h (4 Bft) 97,37 %
05.04.2018 17:38 14,9 C 7,8 C 55 % 1011,6 hPa 0,0 l/m 18,9 km/h (3 Bft) W-SW 240 2 min 0,000 mm 0,4 UV-I 290 W/m 5,9 C 9,9 C 27,4 km/h (4 Bft) 98,11 %
05.04.2018 17:40 14,9 C 7,8 C 56 % 1011,7 hPa 0,0 l/m 18,0 km/h (3 Bft) W-SW 257 2 min 0,000 mm 0,2 UV-I 252 W/m 6,2 C 10,2 C 24,1 km/h (4 Bft) 100,00 %
05.04.2018 17:42 14,8 C 7,8 C 57 % 1011,6 hPa 0,0 l/m 21,0 km/h (4 Bft) SW 232 0 min 0,000 mm 0,2 UV-I 97 W/m 6,4 C 9,2 C 30,6 km/h (5 Bft) 100,00 %
05.04.2018 17:44 14,7 C 7,8 C 56 % 1011,7 hPa 0,0 l/m 21,3 km/h (4 Bft) SW 223 0 min 0,000 mm 0,0 UV-I 157 W/m 6,0 C 9,0 C 32,2 km/h (5 Bft) 100,00 %
05.04.2018 17:46 14,6 C 7,8 C 56 % 1011,7 hPa 0,0 l/m 19,0 km/h (3 Bft) W-SW 254 0 min 0,000 mm 0,0 UV-I 130 W/m 5,9 C 9,5 C 29,0 km/h (5 Bft) 100,00 %
05.04.2018 17:48 14,5 C 7,8 C 58 % 1011,8 hPa 0,0 l/m 17,1 km/h (3 Bft) W-SW 247 0 min 0,000 mm 0,0 UV-I 122 W/m 6,3 C 9,9 C 24,1 km/h (4 Bft) 98,00 %
05.04.2018 17:50 14,4 C 7,8 C 58 % 1011,8 hPa 0,0 l/m 15,9 km/h (3 Bft) W-SW 240 0 min 0,000 mm 0,0 UV-I 77 W/m 6,2 C 10,2 C 25,7 km/h (4 Bft) 100,00 %
05.04.2018 17:52 14,3 C 7,8 C 58 % 1011,8 hPa 0,0 l/m 17,6 km/h (3 Bft) W 263 0 min 0,000 mm 0,0 UV-I 66 W/m 6,2 C 9,5 C 27,4 km/h (4 Bft) 98,46 %
05.04.2018 17:54 14,2 C 7,8 C 59 % 1011,8 hPa 0,0 l/m 19,5 km/h (3 Bft) W 277 0 min 0,000 mm 0,0 UV-I 70 W/m 6,3 C 8,8 C 25,7 km/h (4 Bft) 100,00 %
05.04.2018 17:56 14,1 C 7,8 C 59 % 1011,8 hPa 0,0 l/m 13,9 km/h (3 Bft) W-SW 253 0 min 0,000 mm 0,0 UV-I 81 W/m 6,2 C 10,5 C 19,3 km/h (3 Bft) 100,00 %
05.04.2018 17:58 14,0 C 7,8 C 59 % 1011,9 hPa 0,0 l/m 16,4 km/h (3 Bft) W-SW 241 0 min 0,000 mm 0,0 UV-I 146 W/m 6,1 C 9,5 C 29,0 km/h (5 Bft) 100,00 %
05.04.2018 18:00 14,1 C 7,8 C 61 % 1011,9 hPa 0,0 l/m 17,1 km/h (3 Bft) W-SW 257 2 min 0,000 mm 0,0 UV-I 213 W/m 6,7 C 9,4 C 27,4 km/h (4 Bft) 100,00 %
05.04.2018 18:02 14,2 C 7,8 C 60 % 1011,9 hPa 0,0 l/m 18,3 km/h (3 Bft) W-SW 238 2 min 0,228 mm 0,0 UV-I 271 W/m 6,5 C 9,2 C 30,6 km/h (5 Bft) 100,00 %
05.04.2018 18:04 14,3 C 7,8 C 60 % 1011,9 hPa 0,0 l/m 15,7 km/h (3 Bft) SW 226 2 min 0,000 mm 0,0 UV-I 223 W/m 6,6 C 10,1 C 25,7 km/h (4 Bft) 100,00 %
05.04.2018 18:06 14,3 C 7,8 C 60 % 1011,9 hPa 0,0 l/m 17,2 km/h (3 Bft) SW 233 0 min 0,000 mm 0,0 UV-I 138 W/m 6,6 C 9,6 C 33,8 km/h (5 Bft) 100,00 %
05.04.2018 18:08 14,3 C 7,8 C 59 % 1012,0 hPa 0,0 l/m 19,5 km/h (3 Bft) W-SW 247 0 min 0,000 mm 0,0 UV-I 126 W/m 6,4 C 9,0 C 29,0 km/h (5 Bft) 100,00 %
05.04.2018 18:10 14,2 C 7,8 C 59 % 1012,0 hPa 0,0 l/m 19,5 km/h (3 Bft) W-SW 257 0 min 0,000 mm 0,0 UV-I 115 W/m 6,3 C 8,8 C 32,2 km/h (5 Bft) 100,00 %
05.04.2018 18:12 14,2 C 7,8 C 59 % 1012,0 hPa 0,0 l/m 15,3 km/h (3 Bft) SW 235 0 min 0,000 mm 0,0 UV-I 106 W/m 6,3 C 10,1 C 24,1 km/h (4 Bft) 100,00 %
05.04.2018 18:14 14,1 C 7,8 C 60 % 1012,1 hPa 0,0 l/m 22,2 km/h (4 Bft) W-SW 242 0 min 0,000 mm 0,0 UV-I 97 W/m 6,5 C 8,0 C 29,0 km/h (5 Bft) 100,00 %
05.04.2018 18:16 14,1 C 7,8 C 60 % 1012,1 hPa 0,0 l/m 19,4 km/h (3 Bft) W-SW 239 0 min 0,000 mm 0,0 UV-I 89 W/m 6,5 C 8,7 C 25,7 km/h (4 Bft) 98,11 %
05.04.2018 18:18 14,0 C 7,8 C 61 % 1012,1 hPa 0,0 l/m 13,2 km/h (3 Bft) W 270 0 min 0,000 mm 0,0 UV-I 79 W/m 6,6 C 10,6 C 19,3 km/h (3 Bft) 100,00 %
05.04.2018 18:20 13,9 C 7,8 C 61 % 1012,1 hPa 0,0 l/m 12,0 km/h (2 Bft) W-SW 257 0 min 0,000 mm 0,0 UV-I 87 W/m 6,5 C 11,0 C 19,3 km/h (3 Bft) 100,00 %
05.04.2018 18:22 13,9 C 7,8 C 61 % 1012,1 hPa 0,0 l/m 20,4 km/h (4 Bft) W-SW 241 0 min 0,000 mm 0,0 UV-I 98 W/m 6,5 C 8,2 C 29,0 km/h (5 Bft) 100,00 %
05.04.2018 18:24 13,9 C 7,8 C 61 % 1012,2 hPa 0,0 l/m 20,6 km/h (4 Bft) SW 228 0 min 0,000 mm 0,0 UV-I 60 W/m 6,5 C 8,2 C 27,4 km/h (4 Bft) 97,56 %
05.04.2018 18:26 13,8 C 7,8 C 61 % 1012,2 hPa 0,0 l/m 15,3 km/h (3 Bft) SW 231 0 min 0,000 mm 0,0 UV-I 57 W/m 6,4 C 9,6 C 24,1 km/h (4 Bft) 100,00 %
05.04.2018 18:28 13,8 C 7,8 C 61 % 1012,2 hPa 0,0 l/m 20,7 km/h (4 Bft) W-SW 253 0 min 0,000 mm 0,0 UV-I 62 W/m 6,4 C 8,0 C 29,0 km/h (5 Bft) 98,00 %
05.04.2018 18:30 13,7 C 7,8 C 62 % 1012,2 hPa 0,0 l/m 17,9 km/h (3 Bft) SW 223 0 min 0,000 mm 0,0 UV-I 71 W/m 6,6 C 8,7 C 22,5 km/h (4 Bft) 97,56 %
05.04.2018 18:32 13,7 C 7,8 C 62 % 1012,3 hPa 0,0 l/m 17,3 km/h (3 Bft) SW 216 0 min 0,000 mm 0,0 UV-I 77 W/m 6,6 C 8,9 C 24,1 km/h (4 Bft) 98,00 %
05.04.2018 18:34 13,7 C 7,8 C 62 % 1012,3 hPa 0,0 l/m 17,4 km/h (3 Bft) SW 223 0 min 0,000 mm 0,0 UV-I 79 W/m 6,6 C 8,8 C 22,5 km/h (4 Bft) 96,00 %
05.04.2018 18:36 13,7 C 7,8 C 62 % 1012,3 hPa 0,0 l/m 21,8 km/h (4 Bft) SW 236 2 min 0,000 mm 0,0 UV-I 101 W/m 6,6 C 7,6 C 30,6 km/h (5 Bft) 95,45 %
05.04.2018 18:38 13,7 C 7,8 C 62 % 1012,4 hPa 0,0 l/m 17,2 km/h (3 Bft) SW 236 2 min 0,000 mm 0,0 UV-I 101 W/m 6,6 C 8,9 C 27,4 km/h (4 Bft) 97,37 %
05.04.2018 18:40 13,7 C 7,8 C 62 % 1012,4 hPa 0,0 l/m 13,5 km/h (3 Bft) W-SW 248 2 min 0,000 mm 0,0 UV-I 98 W/m 6,6 C 10,2 C 19,3 km/h (3 Bft) 97,67 %
05.04.2018 18:42 13,7 C 7,8 C 63 % 1012,5 hPa 0,0 l/m 17,4 km/h (3 Bft) W-SW 241 2 min 0,000 mm 0,0 UV-I 99 W/m 6,8 C 8,8 C 22,5 km/h (4 Bft) 96,61 %
05.04.2018 18:44 13,7 C 7,8 C 63 % 1012,5 hPa 0,0 l/m 13,1 km/h (3 Bft) W 259 2 min 0,000 mm 0,0 UV-I 95 W/m 6,8 C 10,3 C 17,7 km/h (3 Bft) 97,87 %
05.04.2018 18:46 13,7 C 7,8 C 63 % 1012,6 hPa 0,0 l/m 14,6 km/h (3 Bft) W 262 2 min 0,000 mm 0,0 UV-I 83 W/m 6,8 C 9,8 C 20,9 km/h (4 Bft) 97,62 %
05.04.2018 18:48 13,6 C 7,8 C 63 % 1012,6 hPa 0,0 l/m 16,2 km/h (3 Bft) W-SW 252 0 min 0,000 mm 0,0 UV-I 60 W/m 6,7 C 9,1 C 29,0 km/h (5 Bft) 95,74 %
05.04.2018 18:50 13,6 C 7,8 C 63 % 1012,7 hPa 0,0 l/m 13,2 km/h (3 Bft) W-SW 253 0 min 0,000 mm 0,0 UV-I 48 W/m 6,7 C 10,2 C 19,3 km/h (3 Bft) 97,73 %
05.04.2018 18:52 13,6 C 7,8 C 63 % 1012,7 hPa 0,0 l/m 16,8 km/h (3 Bft) W 274 0 min 0,000 mm 0,0 UV-I 40 W/m 6,7 C 8,9 C 25,7 km/h (4 Bft) 98,00 %
05.04.2018 18:54 13,5 C 7,8 C 63 % 1012,7 hPa 0,0 l/m 13,7 km/h (3 Bft) W 262 0 min 0,000 mm 0,0 UV-I 36 W/m 6,6 C 9,9 C 22,5 km/h (4 Bft) 98,11 %
05.04.2018 18:56 13,5 C 7,8 C 64 % 1012,8 hPa 0,0 l/m 14,9 km/h (3 Bft) SW 230 0 min 0,000 mm 0,0 UV-I 31 W/m 6,8 C 9,4 C 24,1 km/h (4 Bft) 97,87 %
05.04.2018 18:58 13,4 C 7,8 C 64 % 1012,8 hPa 0,0 l/m 15,5 km/h (3 Bft) W-SW 256 0 min 0,000 mm 0,0 UV-I 28 W/m 6,7 C 9,1 C 24,1 km/h (4 Bft) 95,74 %
05.04.2018 19:00 13,4 C 7,8 C 63 % 1012,9 hPa 0,0 l/m 19,4 km/h (3 Bft) W 259 0 min 0,000 mm 0,0 UV-I 26 W/m 6,5 C 7,8 C 25,7 km/h (4 Bft) 97,56 %
05.04.2018 19:02 13,4 C 7,8 C 63 % 1013,0 hPa 0,0 l/m 14,6 km/h (3 Bft) W 261 0 min 0,127 mm 0,0 UV-I 27 W/m 6,5 C 9,4 C 20,9 km/h (4 Bft) 96,00 %
05.04.2018 19:04 13,4 C 7,8 C 64 % 1013,0 hPa 0,0 l/m 16,4 km/h (3 Bft) W 269 0 min 0,000 mm 0,0 UV-I 26 W/m 6,7 C 8,8 C 20,9 km/h (4 Bft) 98,00 %
05.04.2018 19:06 13,4 C 7,8 C 64 % 1013,1 hPa 0,0 l/m 15,3 km/h (3 Bft) W 264 0 min 0,000 mm 0,0 UV-I 24 W/m 6,7 C 9,1 C 20,9 km/h (4 Bft) 97,37 %
05.04.2018 19:08 13,4 C 7,8 C 63 % 1013,1 hPa 0,0 l/m 17,3 km/h (3 Bft) W 263 0 min 0,000 mm 0,0 UV-I 21 W/m 6,5 C 8,5 C 22,5 km/h (4 Bft) 97,87 %
05.04.2018 19:10 13,4 C 7,8 C 63 % 1013,2 hPa 0,0 l/m 19,3 km/h (3 Bft) W-SW 252 0 min 0,000 mm 0,0 UV-I 18 W/m 6,5 C 7,9 C 25,7 km/h (4 Bft) 100,00 %
05.04.2018 19:12 13,4 C 7,8 C 62 % 1013,2 hPa 0,0 l/m 19,7 km/h (3 Bft) W-NW 300 0 min 0,000 mm 0,0 UV-I 18 W/m 6,3 C 7,8 C 29,0 km/h (5 Bft) 100,00 %
05.04.2018 19:14 13,4 C 7,8 C 62 % 1013,1 hPa 0,0 l/m 19,8 km/h (3 Bft) W 272 0 min 0,000 mm 0,0 UV-I 16 W/m 6,3 C 7,7 C 30,6 km/h (5 Bft) 98,11 %
05.04.2018 19:16 13,4 C 7,8 C 61 % 1013,1 hPa 0,0 l/m 16,5 km/h (3 Bft) W-SW 257 0 min 0,000 mm 0,0 UV-I 15 W/m 6,0 C 8,7 C 25,7 km/h (4 Bft) 97,56 %
05.04.2018 19:18 13,4 C 7,8 C 60 % 1013,1 hPa 0,0 l/m 17,4 km/h (3 Bft) W-NW 297 0 min 0,000 mm 0,0 UV-I 12 W/m 5,8 C 8,4 C 25,7 km/h (4 Bft) 100,00 %
05.04.2018 19:20 13,4 C 7,8 C 60 % 1013,2 hPa 0,0 l/m 14,1 km/h (3 Bft) W-SW 257 0 min 0,000 mm 0,0 UV-I 12 W/m 5,8 C 9,6 C 20,9 km/h (4 Bft) 100,00 %
05.04.2018 19:22 13,4 C 7,8 C 61 % 1013,1 hPa 0,0 l/m 11,7 km/h (2 Bft) W 270 0 min 0,000 mm 0,0 UV-I 11 W/m 6,0 C 10,6 C 17,7 km/h (3 Bft) 100,00 %
05.04.2018 19:24 13,3 C 7,8 C 61 % 1013,1 hPa 0,0 l/m 11,5 km/h (2 Bft) W-SW 245 0 min 0,000 mm 0,0 UV-I 9 W/m 5,9 C 10,5 C 17,7 km/h (3 Bft) 100,00 %
05.04.2018 19:26 13,3 C 7,8 C 60 % 1013,1 hPa 0,0 l/m 12,4 km/h (3 Bft) W-SW 257 0 min 0,000 mm 0,0 UV-I 9 W/m 5,7 C 10,1 C 17,7 km/h (3 Bft) 97,37 %
05.04.2018 19:28 13,3 C 7,8 C 58 % 1013,2 hPa 0,0 l/m 14,4 km/h (3 Bft) W-NW 289 0 min 0,000 mm 0,0 UV-I 9 W/m 5,2 C 9,4 C 19,3 km/h (3 Bft) 100,00 %
05.04.2018 19:30 13,2 C 7,8 C 58 % 1013,2 hPa 0,0 l/m 12,9 km/h (3 Bft) W 272 0 min 0,000 mm 0,0 UV-I 9 W/m 5,1 C 9,8 C 19,3 km/h (3 Bft) 100,00 %
05.04.2018 19:32 13,2 C 7,8 C 59 % 1013,3 hPa 0,0 l/m 12,7 km/h (3 Bft) W 277 0 min 0,000 mm 0,0 UV-I 9 W/m 5,4 C 9,9 C 24,1 km/h (4 Bft) 100,00 %
05.04.2018 19:34 13,2 C 7,8 C 58 % 1013,3 hPa 0,0 l/m 10,1 km/h (2 Bft) NW 306 0 min 0,000 mm 0,0 UV-I 9 W/m 5,1 C 11,1 C 12,9 km/h (3 Bft) 98,00 %
05.04.2018 19:36 13,1 C 7,8 C 57 % 1013,4 hPa 0,0 l/m 17,2 km/h (3 Bft) W 267 0 min 0,000 mm 0,0 UV-I 8 W/m 4,8 C 8,1 C 25,7 km/h (4 Bft) 100,00 %
05.04.2018 19:38 13,1 C 7,8 C 57 % 1013,4 hPa 0,0 l/m 13,2 km/h (3 Bft) NW 323 0 min 0,000 mm 0,0 UV-I 7 W/m 4,8 C 9,6 C 20,9 km/h (4 Bft) 100,00 %
05.04.2018 19:40 12,9 C 7,8 C 56 % 1013,3 hPa 0,0 l/m 16,9 km/h (3 Bft) W 276 0 min 0,000 mm 0,0 UV-I 7 W/m 4,3 C 8,0 C 29,0 km/h (5 Bft) 100,00 %
05.04.2018 19:42 12,9 C 7,8 C 56 % 1013,4 hPa 0,0 l/m 16,1 km/h (3 Bft) W-NW 287 0 min 0,000 mm 0,0 UV-I 6 W/m 4,3 C 8,3 C 22,5 km/h (4 Bft) 100,00 %
05.04.2018 19:44 12,9 C 7,8 C 56 % 1013,5 hPa 0,0 l/m 13,7 km/h (3 Bft) W-SW 247 0 min 0,000 mm 0,0 UV-I 5 W/m 4,3 C 9,1 C 17,7 km/h (3 Bft) 100,00 %
05.04.2018 19:46 12,8 C 7,8 C 57 % 1013,6 hPa 0,0 l/m 15,5 km/h (3 Bft) W-SW 252 0 min 0,000 mm 0,0 UV-I 5 W/m 4,5 C 8,3 C 24,1 km/h (4 Bft) 100,00 %
05.04.2018 19:48 12,8 C 7,8 C 57 % 1013,6 hPa 0,0 l/m 10,7 km/h (2 Bft) W 279 0 min 0,000 mm 0,0 UV-I 5 W/m 4,5 C 10,3 C 24,1 km/h (4 Bft) 97,73 %
05.04.2018 19:50 12,7 C 7,8 C 58 % 1013,7 hPa 0,0 l/m 15,6 km/h (3 Bft) W 277 0 min 0,000 mm 0,0 UV-I 4 W/m 4,7 C 8,2 C 33,8 km/h (5 Bft) 98,11 %
05.04.2018 19:52 12,7 C 7,8 C 57 % 1013,7 hPa 0,0 l/m 15,7 km/h (3 Bft) NW 321 0 min 0,000 mm 0,0 UV-I 0 W/m 4,4 C 8,2 C 20,9 km/h (4 Bft) 97,56 %
05.04.2018 19:54 12,7 C 7,8 C 57 % 1013,7 hPa 0,0 l/m 12,6 km/h (3 Bft) W 281 0 min 0,000 mm 0,0 UV-I 0 W/m 4,4 C 9,4 C 20,9 km/h (4 Bft) 97,62 %
05.04.2018 19:56 12,7 C 7,8 C 57 % 1013,9 hPa 0,0 l/m 13,8 km/h (3 Bft) W-NW 286 0 min 0,000 mm 0,0 UV-I 0 W/m 4,4 C 8,9 C 22,5 km/h (4 Bft) 96,15 %
05.04.2018 19:58 12,6 C 7,8 C 58 % 1014,0 hPa 0,0 l/m 11,4 km/h (2 Bft) NW 315 0 min 0,000 mm 0,0 UV-I 0 W/m 4,6 C 9,8 C 20,9 km/h (4 Bft) 100,00 %
05.04.2018 20:00 12,6 C 7,8 C 58 % 1014,1 hPa 0,0 l/m 16,6 km/h (3 Bft) W 281 0 min 0,076 mm 0,0 UV-I 0 W/m 4,6 C 7,7 C 27,4 km/h (4 Bft) 96,61 %
05.04.2018 20:02 12,6 C 7,8 C 59 % 1014,3 hPa 0,0 l/m 13,4 km/h (3 Bft) W 279 0 min 0,000 mm 0,0 UV-I 0 W/m 4,8 C 8,9 C 29,0 km/h (5 Bft) 97,96 %
05.04.2018 20:04 12,5 C 7,8 C 60 % 1014,5 hPa 0,0 l/m 14,9 km/h (3 Bft) W-NW 289 0 min 0,000 mm 0,0 UV-I 0 W/m 5,0 C 8,2 C 24,1 km/h (4 Bft) 97,44 %
05.04.2018 20:06 12,4 C 7,8 C 61 % 1014,6 hPa 0,0 l/m 16,8 km/h (3 Bft) W 277 0 min 0,000 mm 0,0 UV-I 0 W/m 5,1 C 7,4 C 35,4 km/h (5 Bft) 98,00 %
05.04.2018 20:08 12,2 C 7,8 C 63 % 1014,9 hPa 0,0 l/m 27,8 km/h (4 Bft) W 273 0 min 0,000 mm 0,0 UV-I 0 W/m 5,4 C 4,2 C 51,5 km/h (7 Bft) 96,23 %
05.04.2018 20:10 11,7 C 7,8 C 68 % 1015,3 hPa 0,0 l/m 23,3 km/h (4 Bft) W-NW 290 0 min 0,000 mm 0,0 UV-I 0 W/m 6,0 C 4,6 C 38,6 km/h (5 Bft) 97,56 %
05.04.2018 20:12 11,2 C 7,8 C 72 % 1015,4 hPa 0,0 l/m 23,5 km/h (4 Bft) NW 304 0 min 0,000 mm 0,0 UV-I 0 W/m 6,3 C 3,8 C 43,5 km/h (6 Bft) 98,11 %
05.04.2018 20:14 10,6 C 7,8 C 75 % 1015,5 hPa 0,0 l/m 24,3 km/h (4 Bft) W-NW 287 0 min 0,000 mm 0,0 UV-I 0 W/m 6,4 C 2,8 C 41,8 km/h (6 Bft) 95,45 %
05.04.2018 20:16 10,1 C 7,8 C 79 % 1015,5 hPa 0,0 l/m 13,6 km/h (3 Bft) W-SW 257 0 min 0,000 mm 0,0 UV-I 0 W/m 6,6 C 5,9 C 27,4 km/h (4 Bft) 97,56 %
05.04.2018 20:18 9,7 C 7,8 C 81 % 1015,7 hPa 0,0 l/m 19,8 km/h (3 Bft) W-NW 300 0 min 0,000 mm 0,0 UV-I 0 W/m 6,6 C 3,0 C 37,0 km/h (5 Bft) 97,73 %
05.04.2018 20:20 9,4 C 7,8 C 83 % 1015,9 hPa 0,0 l/m 15,0 km/h (3 Bft) N-NW 329 0 min 0,000 mm 0,0 UV-I 0 W/m 6,7 C 4,4 C 27,4 km/h (4 Bft) 96,23 %
05.04.2018 20:22 9,2 C 7,8 C 85 % 1015,9 hPa 0,2 l/m 16,2 km/h (3 Bft) W-NW 301 0 min 0,000 mm 0,0 UV-I 0 W/m 6,8 C 3,7 C 33,8 km/h (5 Bft) 96,00 %
05.04.2018 20:24 9,0 C 7,8 C 86 % 1015,9 hPa 0,0 l/m 18,6 km/h (3 Bft) W 277 0 min 0,000 mm 0,0 UV-I 0 W/m 6,8 C 2,5 C 32,2 km/h (5 Bft) 97,37 %
05.04.2018 20:26 8,9 C 7,8 C 86 % 1016,0 hPa 0,2 l/m 11,5 km/h (2 Bft) NW 314 0 min 0,000 mm 0,0 UV-I 0 W/m 6,7 C 5,5 C 19,3 km/h (3 Bft) 97,44 %
05.04.2018 20:28 8,8 C 7,8 C 88 % 1016,0 hPa 0,0 l/m 13,0 km/h (3 Bft) W-NW 285 0 min 0,000 mm 0,0 UV-I 0 W/m 6,9 C 4,6 C 25,7 km/h (4 Bft) 98,08 %
05.04.2018 20:30 8,8 C 7,8 C 88 % 1016,0 hPa 0,0 l/m 14,4 km/h (3 Bft) W 273 0 min 0,000 mm 0,0 UV-I 0 W/m 6,9 C 4,0 C 24,1 km/h (4 Bft) 98,11 %
05.04.2018 20:32 8,7 C 7,8 C 88 % 1016,0 hPa 0,0 l/m 15,2 km/h (3 Bft) W 281 0 min 0,000 mm 0,0 UV-I 0 W/m 6,8 C 3,5 C 20,9 km/h (4 Bft) 96,00 %
05.04.2018 20:34 8,8 C 7,8 C 88 % 1016,0 hPa 0,0 l/m 11,5 km/h (2 Bft) W 261 0 min 0,000 mm 0,0 UV-I 0 W/m 6,9 C 5,4 C 16,1 km/h (3 Bft) 96,00 %
05.04.2018 20:36 8,8 C 7,8 C 88 % 1016,0 hPa 0,2 l/m 12,2 km/h (2 Bft) W-NW 298 0 min 0,000 mm 0,0 UV-I 0 W/m 6,9 C 5,0 C 17,7 km/h (3 Bft) 91,67 %
05.04.2018 20:38 8,8 C 7,8 C 88 % 1016,2 hPa 0,0 l/m 19,9 km/h (4 Bft) W-NW 296 0 min 0,000 mm 0,0 UV-I 0 W/m 6,9 C 1,8 C 33,8 km/h (5 Bft) 96,23 %
05.04.2018 20:40 8,7 C 7,8 C 88 % 1016,3 hPa 0,0 l/m 12,0 km/h (2 Bft) NW 319 0 min 0,000 mm 0,0 UV-I 0 W/m 6,8 C 5,0 C 17,7 km/h (3 Bft) 94,00 %
05.04.2018 20:42 8,7 C 7,8 C 89 % 1016,3 hPa 0,0 l/m 18,2 km/h (3 Bft) W 274 0 min 0,000 mm 0,0 UV-I 0 W/m 7,0 C 2,3 C 27,4 km/h (4 Bft) 95,12 %
05.04.2018 20:44 8,6 C 7,8 C 89 % 1016,3 hPa 0,0 l/m 17,1 km/h (3 Bft) W 275 0 min 0,000 mm 0,0 UV-I 0 W/m 6,9 C 2,6 C 25,7 km/h (4 Bft) 96,23 %
05.04.2018 20:46 8,6 C 7,8 C 89 % 1016,4 hPa 0,0 l/m 13,8 km/h (3 Bft) W 273 0 min 0,000 mm 0,0 UV-I 0 W/m 6,9 C 4,0 C 25,7 km/h (4 Bft) 95,12 %
05.04.2018 20:48 8,5 C 7,8 C 89 % 1016,4 hPa 0,0 l/m 15,1 km/h (3 Bft) W 272 0 min 0,000 mm 0,0 UV-I 0 W/m 6,8 C 3,3 C 22,5 km/h (4 Bft) 94,34 %
05.04.2018 20:50 8,5 C 7,8 C 90 % 1016,5 hPa 0,0 l/m 13,4 km/h (3 Bft) W-SW 247 0 min 0,000 mm 0,0 UV-I 0 W/m 7,0 C 4,1 C 22,5 km/h (4 Bft) 95,45 %
05.04.2018 20:52 8,4 C 7,8 C 90 % 1016,5 hPa 0,0 l/m 11,8 km/h (2 Bft) W-NW 292 0 min 0,000 mm 0,0 UV-I 0 W/m 6,9 C 4,8 C 20,9 km/h (4 Bft) 97,56 %
05.04.2018 20:54 8,4 C 7,8 C 90 % 1016,6 hPa 0,0 l/m 15,6 km/h (3 Bft) W 269 0 min 0,000 mm 0,0 UV-I 0 W/m 6,9 C 2,9 C 25,7 km/h (4 Bft) 98,21 %
05.04.2018 20:56 8,5 C 7,8 C 90 % 1016,6 hPa 0,0 l/m 13,3 km/h (3 Bft) W 265 0 min 0,000 mm 0,0 UV-I 0 W/m 7,0 C 4,1 C 19,3 km/h (3 Bft) 97,37 %
05.04.2018 20:58 8,5 C 7,8 C 90 % 1016,7 hPa 0,0 l/m 10,8 km/h (2 Bft) W-NW 285 0 min 0,000 mm 0,0 UV-I 0 W/m 7,0 C 5,5 C 14,5 km/h (3 Bft) 98,21 %
05.04.2018 21:00 8,5 C 7,8 C 90 % 1016,8 hPa 0,0 l/m 11,6 km/h (2 Bft) W 273 0 min 0,026 mm 0,0 UV-I 0 W/m 7,0 C 5,0 C 17,7 km/h (3 Bft) 96,15 %
05.04.2018 21:02 8,6 C 7,8 C 90 % 1016,8 hPa 0,0 l/m 11,7 km/h (2 Bft) W-SW 254 0 min 0,000 mm 0,0 UV-I 0 W/m 7,1 C 5,1 C 19,3 km/h (3 Bft) 96,92 %
05.04.2018 21:04 8,6 C 7,8 C 90 % 1016,9 hPa 0,0 l/m 18,7 km/h (3 Bft) W 264 0 min 0,000 mm 0,0 UV-I 0 W/m 7,1 C 1,9 C 27,4 km/h (4 Bft) 97,56 %
05.04.2018 21:06 8,6 C 7,8 C 90 % 1017,0 hPa 0,0 l/m 14,6 km/h (3 Bft) W-NW 284 0 min 0,000 mm 0,0 UV-I 0 W/m 7,1 C 3,6 C 19,3 km/h (3 Bft) 98,11 %
05.04.2018 21:08 8,6 C 7,8 C 90 % 1017,0 hPa 0,0 l/m 14,4 km/h (3 Bft) W-SW 250 0 min 0,000 mm 0,0 UV-I 0 W/m 7,1 C 3,7 C 27,4 km/h (4 Bft) 100,00 %
05.04.2018 21:10 8,6 C 7,8 C 90 % 1017,0 hPa 0,0 l/m 16,8 km/h (3 Bft) W-SW 246 0 min 0,000 mm 0,0 UV-I 0 W/m 7,1 C 2,7 C 25,7 km/h (4 Bft) 100,00 %
05.04.2018 21:12 8,6 C 7,8 C 90 % 1017,1 hPa 0,0 l/m 14,4 km/h (3 Bft) W-SW 238 0 min 0,000 mm 0,0 UV-I 0 W/m 7,1 C 3,7 C 22,5 km/h (4 Bft) 98,00 %
05.04.2018 21:14 8,6 C 7,8 C 90 % 1017,2 hPa 0,0 l/m 11,9 km/h (2 Bft) W 270 0 min 0,000 mm 0,0 UV-I 0 W/m 7,1 C 5,0 C 20,9 km/h (4 Bft) 100,00 %
05.04.2018 21:16 8,6 C 7,8 C 89 % 1017,2 hPa 0,0 l/m 13,3 km/h (3 Bft) W-SW 251 0 min 0,000 mm 0,0 UV-I 0 W/m 6,9 C 4,2 C 25,7 km/h (4 Bft) 97,56 %
05.04.2018 21:18 8,6 C 7,8 C 89 % 1017,1 hPa 0,0 l/m 14,2 km/h (3 Bft) W-NW 286 0 min 0,000 mm 0,0 UV-I 0 W/m 6,9 C 3,8 C 20,9 km/h (4 Bft) 98,11 %
05.04.2018 21:20 8,6 C 7,8 C 89 % 1017,1 hPa 0,0 l/m 16,7 km/h (3 Bft) W 271 0 min 0,000 mm 0,0 UV-I 0 W/m 6,9 C 2,7 C 25,7 km/h (4 Bft) 100,00 %
05.04.2018 21:22 8,6 C 7,8 C 89 % 1017,1 hPa 0,0 l/m 14,9 km/h (3 Bft) W-NW 298 0 min 0,000 mm 0,0 UV-I 0 W/m 6,9 C 3,5 C 22,5 km/h (4 Bft) 98,21 %
05.04.2018 21:24 8,6 C 7,8 C 88 % 1017,1 hPa 0,0 l/m 15,7 km/h (3 Bft) W 279 0 min 0,000 mm 0,0 UV-I 0 W/m 6,7 C 3,1 C 22,5 km/h (4 Bft) 100,00 %
05.04.2018 21:26 8,6 C 7,8 C 88 % 1017,3 hPa 0,0 l/m 17,5 km/h (3 Bft) W-NW 292 0 min 0,000 mm 0,0 UV-I 0 W/m 6,7 C 2,4 C 30,6 km/h (5 Bft) 98,11 %
05.04.2018 21:28 8,6 C 7,8 C 87 % 1017,3 hPa 0,0 l/m 19,5 km/h (3 Bft) W-SW 254 0 min 0,000 mm 0,0 UV-I 0 W/m 6,6 C 1,7 C 30,6 km/h (5 Bft) 94,74 %
05.04.2018 21:30 8,6 C 7,8 C 88 % 1017,3 hPa 0,0 l/m 14,4 km/h (3 Bft) W 266 0 min 0,000 mm 0,0 UV-I 0 W/m 6,7 C 3,7 C 20,9 km/h (4 Bft) 100,00 %
05.04.2018 21:32 8,5 C 7,8 C 87 % 1017,4 hPa 0,2 l/m 20,8 km/h (4 Bft) W 276 0 min 0,000 mm 0,0 UV-I 0 W/m 6,5 C 1,1 C 25,7 km/h (4 Bft) 100,00 %
05.04.2018 21:34 8,5 C 7,8 C 87 % 1017,4 hPa 0,0 l/m 18,8 km/h (3 Bft) W-SW 250 0 min 0,000 mm 0,0 UV-I 0 W/m 6,5 C 1,8 C 30,6 km/h (5 Bft) 97,87 %
05.04.2018 21:36 8,5 C 7,8 C 86 % 1017,4 hPa 0,0 l/m 24,4 km/h (4 Bft) W 270 0 min 0,000 mm 0,0 UV-I 0 W/m 6,3 C -0,0 C 32,2 km/h (5 Bft) 100,00 %
05.04.2018 21:38 8,4 C 7,8 C 85 % 1017,4 hPa 0,0 l/m 23,6 km/h (4 Bft) W 265 0 min 0,000 mm 0,0 UV-I 0 W/m 6,0 C 0,1 C 35,4 km/h (5 Bft) 98,00 %
05.04.2018 21:40 8,4 C 7,8 C 84 % 1017,4 hPa 0,0 l/m 22,7 km/h (4 Bft) W-SW 252 0 min 0,000 mm 0,0 UV-I 0 W/m 5,9 C 0,3 C 29,0 km/h (5 Bft) 100,00 %
05.04.2018 21:42 8,3 C 7,8 C 84 % 1017,5 hPa 0,0 l/m 20,0 km/h (4 Bft) W 259 0 min 0,000 mm 0,0 UV-I 0 W/m 5,8 C 1,1 C 29,0 km/h (5 Bft) 100,00 %
05.04.2018 21:44 8,3 C 7,8 C 85 % 1017,5 hPa 0,0 l/m 17,6 km/h (3 Bft) W-SW 255 0 min 0,000 mm 0,0 UV-I 0 W/m 5,9 C 2,0 C 27,4 km/h (4 Bft) 98,00 %
05.04.2018 21:46 8,3 C 7,8 C 84 % 1017,5 hPa 0,0 l/m 18,3 km/h (3 Bft) W 277 0 min 0,000 mm 0,0 UV-I 0 W/m 5,8 C 1,7 C 27,4 km/h (4 Bft) 100,00 %
05.04.2018 21:48 8,3 C 7,8 C 84 % 1017,6 hPa 0,0 l/m 15,2 km/h (3 Bft) W 272 0 min 0,000 mm 0,0 UV-I 0 W/m 5,8 C 3,0 C 22,5 km/h (4 Bft) 100,00 %
05.04.2018 21:50 8,3 C 7,8 C 84 % 1017,5 hPa 0,0 l/m 16,4 km/h (3 Bft) W 277 0 min 0,000 mm 0,0 UV-I 0 W/m 5,8 C 2,5 C 22,5 km/h (4 Bft) 97,73 %
05.04.2018 21:52 8,3 C 7,8 C 84 % 1017,5 hPa 0,0 l/m 15,8 km/h (3 Bft) W-NW 288 0 min 0,000 mm 0,0 UV-I 0 W/m 5,8 C 2,7 C 24,1 km/h (4 Bft) 100,00 %
05.04.2018 21:54 8,2 C 7,8 C 85 % 1017,5 hPa 0,0 l/m 14,3 km/h (3 Bft) W 278 0 min 0,000 mm 0,0 UV-I 0 W/m 5,8 C 3,3 C 19,3 km/h (3 Bft) 100,00 %
05.04.2018 21:56 8,2 C 7,8 C 85 % 1017,6 hPa 0,0 l/m 14,9 km/h (3 Bft) W 274 0 min 0,000 mm 0,0 UV-I 0 W/m 5,8 C 3,0 C 20,9 km/h (4 Bft) 100,00 %
05.04.2018 21:58 8,2 C 7,8 C 85 % 1017,6 hPa 0,0 l/m 11,9 km/h (2 Bft) W 259 0 min 0,000 mm 0,0 UV-I 0 W/m 5,8 C 4,5 C 16,1 km/h (3 Bft) 100,00 %
05.04.2018 22:00 8,2 C 7,8 C 86 % 1017,7 hPa 0,0 l/m 13,3 km/h (3 Bft) W 275 0 min 0,000 mm 0,0 UV-I 0 W/m 6,0 C 3,8 C 19,3 km/h (3 Bft) 100,00 %
05.04.2018 22:02 8,2 C 7,8 C 86 % 1017,7 hPa 0,0 l/m 12,0 km/h (2 Bft) W-SW 254 0 min 0,025 mm 0,0 UV-I 0 W/m 6,0 C 4,4 C 16,1 km/h (3 Bft) 96,43 %
05.04.2018 22:04 8,2 C 7,8 C 86 % 1017,7 hPa 0,0 l/m 13,0 km/h (3 Bft) W 277 0 min 0,000 mm 0,0 UV-I 0 W/m 6,0 C 3,9 C 24,1 km/h (4 Bft) 97,56 %
05.04.2018 22:06 8,2 C 7,8 C 86 % 1017,8 hPa 0,0 l/m 13,6 km/h (3 Bft) W 259 0 min 0,000 mm 0,0 UV-I 0 W/m 6,0 C 3,6 C 17,7 km/h (3 Bft) 100,00 %
05.04.2018 22:08 8,2 C 7,8 C 86 % 1017,8 hPa 0,0 l/m 14,4 km/h (3 Bft) W 267 0 min 0,000 mm 0,0 UV-I 0 W/m 6,0 C 3,2 C 19,3 km/h (3 Bft) 100,00 %
05.04.2018 22:10 8,2 C 7,8 C 86 % 1017,8 hPa 0,0 l/m 11,8 km/h (2 Bft) SW 229 0 min 0,000 mm 0,0 UV-I 0 W/m 6,0 C 4,6 C 20,9 km/h (4 Bft) 97,87 %
05.04.2018 22:12 8,2 C 7,8 C 86 % 1017,8 hPa 0,0 l/m 15,4 km/h (3 Bft) W 267 0 min 0,000 mm 0,0 UV-I 0 W/m 6,0 C 2,8 C 20,9 km/h (4 Bft) 100,00 %
05.04.2018 22:14 8,2 C 7,8 C 86 % 1017,9 hPa 0,0 l/m 13,9 km/h (3 Bft) W 281 0 min 0,000 mm 0,0 UV-I 0 W/m 6,0 C 3,5 C 20,9 km/h (4 Bft) 100,00 %
05.04.2018 22:16 8,2 C 7,8 C 86 % 1017,8 hPa 0,0 l/m 14,2 km/h (3 Bft) W 269 0 min 0,000 mm 0,0 UV-I 0 W/m 6,0 C 3,3 C 24,1 km/h (4 Bft) 95,12 %
05.04.2018 22:19 8,2 C 7,8 C 86 % 1017,9 hPa 0,0 l/m 12,3 km/h (3 Bft) W 279 0 min 0,000 mm 0,0 UV-I 0 W/m 6,0 C 4,3 C 24,1 km/h (4 Bft) 100,00 %
05.04.2018 22:20 8,2 C 7,8 C 86 % 1017,9 hPa 0,0 l/m 15,1 km/h (3 Bft) W 274 0 min 0,000 mm 0,0 UV-I 0 W/m 6,0 C 2,9 C 19,3 km/h (3 Bft) 100,00 %
05.04.2018 22:22 8,2 C 7,8 C 86 % 1017,9 hPa 0,0 l/m 13,8 km/h (3 Bft) W 271 0 min 0,000 mm 0,0 UV-I 0 W/m 6,0 C 3,5 C 19,3 km/h (3 Bft) 97,87 %
05.04.2018 22:24 8,2 C 7,8 C 86 % 1018,0 hPa 0,0 l/m 12,8 km/h (3 Bft) W-SW 248 0 min 0,000 mm 0,0 UV-I 0 W/m 6,0 C 4,0 C 22,5 km/h (4 Bft) 100,00 %
05.04.2018 22:26 8,2 C 7,8 C 86 % 1018,0 hPa 0,0 l/m 16,6 km/h (3 Bft) W-SW 258 0 min 0,000 mm 0,0 UV-I 0 W/m 6,0 C 2,3 C 24,1 km/h (4 Bft) 100,00 %
05.04.2018 22:28 8,3 C 7,8 C 86 % 1018,0 hPa 0,0 l/m 15,3 km/h (3 Bft) W 269 0 min 0,000 mm 0,0 UV-I 0 W/m 6,1 C 2,9 C 22,5 km/h (4 Bft) 100,00 %
05.04.2018 22:30 8,3 C 7,8 C 85 % 1018,0 hPa 0,0 l/m 17,2 km/h (3 Bft) W 261 0 min 0,000 mm 0,0 UV-I 0 W/m 5,9 C 2,1 C 27,4 km/h (4 Bft) 100,00 %
05.04.2018 22:32 8,3 C 7,8 C 85 % 1018,0 hPa 0,0 l/m 18,3 km/h (3 Bft) W 261 0 min 0,000 mm 0,0 UV-I 0 W/m 5,9 C 1,7 C 25,7 km/h (4 Bft) 97,44 %
05.04.2018 22:34 8,3 C 7,8 C 85 % 1018,1 hPa 0,0 l/m 17,3 km/h (3 Bft) W 262 0 min 0,000 mm 0,0 UV-I 0 W/m 5,9 C 2,1 C 25,7 km/h (4 Bft) 98,21 %
05.04.2018 22:36 8,4 C 7,8 C 85 % 1018,2 hPa 0,0 l/m 19,2 km/h (3 Bft) W-SW 253 0 min 0,000 mm 0,0 UV-I 0 W/m 6,0 C 1,5 C 25,7 km/h (4 Bft) 97,37 %
05.04.2018 22:38 8,4 C 7,8 C 85 % 1018,2 hPa 0,0 l/m 15,5 km/h (3 Bft) W 271 0 min 0,000 mm 0,0 UV-I 0 W/m 6,0 C 3,0 C 24,1 km/h (4 Bft) 97,73 %
05.04.2018 22:40 8,4 C 7,8 C 85 % 1018,2 hPa 0,0 l/m 12,6 km/h (3 Bft) W 277 0 min 0,000 mm 0,0 UV-I 0 W/m 6,0 C 4,4 C 19,3 km/h (3 Bft) 98,31 %
05.04.2018 22:42 8,4 C 7,8 C 85 % 1018,2 hPa 0,0 l/m 15,4 km/h (3 Bft) W 265 0 min 0,000 mm 0,0 UV-I 0 W/m 6,0 C 3,0 C 24,1 km/h (4 Bft) 97,87 %
05.04.2018 22:44 8,4 C 7,8 C 86 % 1018,2 hPa 0,0 l/m 12,5 km/h (3 Bft) W-NW 285 0 min 0,000 mm 0,0 UV-I 0 W/m 6,2 C 4,4 C 20,9 km/h (4 Bft) 97,87 %
05.04.2018 22:46 8,4 C 7,8 C 85 % 1018,2 hPa 0,0 l/m 15,2 km/h (3 Bft) W-NW 288 0 min 0,000 mm 0,0 UV-I 0 W/m 6,0 C 3,1 C 32,2 km/h (5 Bft) 97,37 %
05.04.2018 22:48 8,4 C 7,8 C 84 % 1018,2 hPa 0,2 l/m 18,3 km/h (3 Bft) W 269 0 min 0,000 mm 0,0 UV-I 0 W/m 5,9 C 1,8 C 24,1 km/h (4 Bft) 96,43 %
05.04.2018 22:50 8,4 C 7,8 C 84 % 1018,2 hPa 0,0 l/m 13,5 km/h (3 Bft) W 267 0 min 0,000 mm 0,0 UV-I 0 W/m 5,9 C 3,9 C 22,5 km/h (4 Bft) 92,68 %
05.04.2018 22:52 8,4 C 7,8 C 83 % 1018,2 hPa 0,0 l/m 9,9 km/h (2 Bft) W 279 0 min 0,000 mm 0,0 UV-I 0 W/m 5,7 C 5,9 C 14,5 km/h (3 Bft) 98,00 %
05.04.2018 22:54 8,4 C 7,8 C 83 % 1018,3 hPa 0,0 l/m 13,4 km/h (3 Bft) SW 236 0 min 0,000 mm 0,0 UV-I 0 W/m 5,7 C 3,9 C 17,7 km/h (3 Bft) 97,37 %
05.04.2018 22:56 8,4 C 7,8 C 83 % 1018,3 hPa 0,0 l/m 13,6 km/h (3 Bft) W-NW 294 0 min 0,000 mm 0,0 UV-I 0 W/m 5,7 C 3,9 C 19,3 km/h (3 Bft) 98,11 %
05.04.2018 22:58 8,4 C 7,8 C 82 % 1018,3 hPa 0,0 l/m 13,7 km/h (3 Bft) W-NW 285 0 min 0,000 mm 0,0 UV-I 0 W/m 5,5 C 3,8 C 17,7 km/h (3 Bft) 97,56 %
05.04.2018 23:00 8,4 C 7,8 C 82 % 1018,3 hPa 0,0 l/m 14,7 km/h (3 Bft) W-SW 257 0 min 0,000 mm 0,0 UV-I 0 W/m 5,5 C 3,3 C 20,9 km/h (4 Bft) 95,45 %
05.04.2018 23:02 8,4 C 7,8 C 82 % 1018,3 hPa 0,0 l/m 18,0 km/h (3 Bft) W 272 0 min 0,026 mm 0,0 UV-I 0 W/m 5,5 C 2,0 C 24,1 km/h (4 Bft) 95,56 %
05.04.2018 23:04 8,4 C 7,8 C 81 % 1018,4 hPa 0,0 l/m 13,4 km/h (3 Bft) W 279 0 min 0,000 mm 0,0 UV-I 0 W/m 5,3 C 3,9 C 20,9 km/h (4 Bft) 96,55 %
05.04.2018 23:06 8,4 C 7,8 C 81 % 1018,4 hPa 0,0 l/m 16,4 km/h (3 Bft) W-SW 254 0 min 0,000 mm 0,0 UV-I 0 W/m 5,3 C 2,6 C 24,1 km/h (4 Bft) 96,00 %
05.04.2018 23:08 8,4 C 7,8 C 81 % 1018,5 hPa 0,0 l/m 16,2 km/h (3 Bft) W 260 0 min 0,000 mm 0,0 UV-I 0 W/m 5,3 C 2,7 C 22,5 km/h (4 Bft) 97,73 %
05.04.2018 23:10 8,4 C 7,8 C 81 % 1018,5 hPa 0,0 l/m 17,8 km/h (3 Bft) W 265 0 min 0,000 mm 0,0 UV-I 0 W/m 5,3 C 2,0 C 24,1 km/h (4 Bft) 97,22 %
05.04.2018 23:12 8,4 C 7,8 C 81 % 1018,5 hPa 0,0 l/m 18,3 km/h (3 Bft) W 262 0 min 0,000 mm 0,0 UV-I 0 W/m 5,3 C 1,8 C 29,0 km/h (5 Bft) 98,36 %
05.04.2018 23:14 8,4 C 7,8 C 81 % 1018,5 hPa 0,0 l/m 14,5 km/h (3 Bft) W-SW 248 0 min 0,000 mm 0,0 UV-I 0 W/m 5,3 C 3,4 C 17,7 km/h (3 Bft) 100,00 %
05.04.2018 23:16 8,4 C 7,8 C 81 % 1018,5 hPa 0,0 l/m 15,5 km/h (3 Bft) W 273 0 min 0,000 mm 0,0 UV-I 0 W/m 5,3 C 3,0 C 22,5 km/h (4 Bft) 100,00 %
05.04.2018 23:18 8,3 C 7,8 C 81 % 1018,5 hPa 0,0 l/m 17,0 km/h (3 Bft) W 259 0 min 0,000 mm 0,0 UV-I 0 W/m 5,2 C 2,2 C 29,0 km/h (5 Bft) 98,11 %
05.04.2018 23:20 8,3 C 7,8 C 81 % 1018,6 hPa 0,0 l/m 16,2 km/h (3 Bft) W-SW 250 0 min 0,000 mm 0,0 UV-I 0 W/m 5,2 C 2,6 C 22,5 km/h (4 Bft) 100,00 %
05.04.2018 23:22 8,3 C 7,8 C 81 % 1018,7 hPa 0,0 l/m 12,3 km/h (3 Bft) W 275 0 min 0,000 mm 0,0 UV-I 0 W/m 5,2 C 4,4 C 19,3 km/h (3 Bft) 100,00 %
05.04.2018 23:24 8,3 C 7,8 C 81 % 1018,7 hPa 0,0 l/m 15,5 km/h (3 Bft) W 270 0 min 0,000 mm 0,0 UV-I 0 W/m 5,2 C 2,9 C 20,9 km/h (4 Bft) 97,56 %
05.04.2018 23:26 8,3 C 7,8 C 81 % 1018,8 hPa 0,0 l/m 15,2 km/h (3 Bft) W 279 0 min 0,000 mm 0,0 UV-I 0 W/m 5,2 C 3,0 C 19,3 km/h (3 Bft) 98,00 %
05.04.2018 23:28 8,3 C 7,8 C 81 % 1018,8 hPa 0,0 l/m 19,4 km/h (3 Bft) W 268 0 min 0,000 mm 0,0 UV-I 0 W/m 5,2 C 1,3 C 27,4 km/h (4 Bft) 100,00 %
05.04.2018 23:30 8,3 C 7,8 C 81 % 1019,0 hPa 0,0 l/m 16,4 km/h (3 Bft) W 270 0 min 0,000 mm 0,0 UV-I 0 W/m 5,2 C 2,5 C 20,9 km/h (4 Bft) 98,00 %
05.04.2018 23:32 8,3 C 7,8 C 81 % 1019,1 hPa 0,0 l/m 16,5 km/h (3 Bft) W 273 0 min 0,000 mm 0,0 UV-I 0 W/m 5,2 C 2,4 C 27,4 km/h (4 Bft) 100,00 %
05.04.2018 23:34 8,2 C 7,8 C 81 % 1019,2 hPa 0,0 l/m 16,3 km/h (3 Bft) W 264 0 min 0,000 mm 0,0 UV-I 0 W/m 5,1 C 2,4 C 25,7 km/h (4 Bft) 96,23 %
05.04.2018 23:36 8,2 C 7,8 C 81 % 1019,1 hPa 0,0 l/m 15,0 km/h (3 Bft) W 268 0 min 0,000 mm 0,0 UV-I 0 W/m 5,1 C 3,0 C 25,7 km/h (4 Bft) 97,56 %
05.04.2018 23:38 8,2 C 7,8 C 80 % 1019,2 hPa 0,0 l/m 16,7 km/h (3 Bft) W-NW 284 0 min 0,000 mm 0,0 UV-I 0 W/m 5,0 C 2,2 C 24,1 km/h (4 Bft) 98,21 %
05.04.2018 23:40 8,3 C 7,8 C 80 % 1019,2 hPa 0,0 l/m 14,4 km/h (3 Bft) W 277 0 min 0,000 mm 0,0 UV-I 0 W/m 5,1 C 3,4 C 20,9 km/h (4 Bft) 97,56 %
05.04.2018 23:42 8,3 C 7,8 C 79 % 1019,2 hPa 0,0 l/m 17,4 km/h (3 Bft) W 274 0 min 0,000 mm 0,0 UV-I 0 W/m 4,9 C 2,1 C 30,6 km/h (5 Bft) 93,62 %
05.04.2018 23:43 8,3 C 7,8 C 79 % 1019,2 hPa 0,0 l/m 13,2 km/h (3 Bft) W 261 0 min 0,000 mm 0,0 UV-I 0 W/m 4,9 C 3,9 C 17,7 km/h (3 Bft) 95,83 %
05.04.2018 23:44 8,3 C 7,8 C 79 % 1019,2 hPa 0,0 l/m 13,5 km/h (3 Bft) W 263 0 min 0,000 mm 0,0 UV-I 0 W/m 4,9 C 3,8 C 17,7 km/h (3 Bft) 100,00 %
05.04.2018 23:45 8,3 C 7,8 C 78 % 1019,2 hPa 0,0 l/m 12,6 km/h (3 Bft) W 265 0 min 0,000 mm 0,0 UV-I 0 W/m 4,7 C 4,2 C 17,7 km/h (3 Bft) 95,83 %
05.04.2018 23:46 8,3 C 7,8 C 78 % 1019,2 hPa 0,0 l/m 11,1 km/h (2 Bft) W-NW 282 0 min 0,000 mm 0,0 UV-I 0 W/m 4,7 C 5,1 C 16,1 km/h (3 Bft) 100,00 %
05.04.2018 23:47 8,3 C 7,8 C 78 % 1019,2 hPa 0,0 l/m 15,9 km/h (3 Bft) W 271 0 min 0,000 mm 0,0 UV-I 0 W/m 4,7 C 2,7 C 20,9 km/h (4 Bft) 96,30 %
05.04.2018 23:48 8,3 C 7,8 C 78 % 1019,2 hPa 0,0 l/m 17,1 km/h (3 Bft) W 273 0 min 0,000 mm 0,0 UV-I 0 W/m 4,7 C 2,2 C 25,7 km/h (4 Bft) 100,00 %
05.04.2018 23:49 8,3 C 7,8 C 78 % 1019,2 hPa 0,0 l/m 13,2 km/h (3 Bft) W 266 0 min 0,000 mm 0,0 UV-I 0 W/m 4,7 C 3,9 C 22,5 km/h (4 Bft) 92,59 %
05.04.2018 23:50 8,3 C 7,8 C 78 % 1019,2 hPa 0,0 l/m 11,7 km/h (2 Bft) W 274 0 min 0,000 mm 0,0 UV-I 0 W/m 4,7 C 4,7 C 14,5 km/h (3 Bft) 83,33 %
05.04.2018 23:51 8,3 C 7,8 C 78 % 1019,2 hPa 0,0 l/m 14,6 km/h (3 Bft) W 270 0 min 0,000 mm 0,0 UV-I 0 W/m 4,7 C 3,3 C 20,9 km/h (4 Bft) 95,65 %
05.04.2018 23:52 8,3 C 7,8 C 77 % 1019,2 hPa 0,0 l/m 13,5 km/h (3 Bft) W-SW 258 0 min 0,000 mm 0,0 UV-I 0 W/m 4,5 C 3,8 C 19,3 km/h (3 Bft) 95,83 %
05.04.2018 23:53 8,2 C 7,8 C 77 % 1019,2 hPa 0,0 l/m 18,0 km/h (3 Bft) W 270 0 min 0,000 mm 0,0 UV-I 0 W/m 4,4 C 1,7 C 22,5 km/h (4 Bft) 95,65 %
05.04.2018 23:54 8,2 C 7,8 C 77 % 1019,3 hPa 0,0 l/m 19,2 km/h (3 Bft) W-SW 247 0 min 0,000 mm 0,0 UV-I 0 W/m 4,4 C 1,2 C 22,5 km/h (4 Bft) 96,30 %
05.04.2018 23:55 8,2 C 7,8 C 77 % 1019,3 hPa 0,0 l/m 17,1 km/h (3 Bft) W 274 0 min 0,000 mm 0,0 UV-I 0 W/m 4,4 C 2,1 C 27,4 km/h (4 Bft) 100,00 %
05.04.2018 23:56 8,3 C 7,8 C 77 % 1019,3 hPa 0,0 l/m 16,8 km/h (3 Bft) W-SW 254 0 min 0,000 mm 0,0 UV-I 0 W/m 4,5 C 2,3 C 25,7 km/h (4 Bft) 92,59 %
05.04.2018 23:57 8,2 C 7,8 C 77 % 1019,4 hPa 0,0 l/m 18,9 km/h (3 Bft) W-NW 282 0 min 0,000 mm 0,0 UV-I 0 W/m 4,4 C 1,4 C 29,0 km/h (5 Bft) 100,00 %
05.04.2018 23:58 8,2 C 7,8 C 76 % 1019,3 hPa 0,0 l/m 19,5 km/h (3 Bft) W-NW 282 0 min 0,000 mm 0,0 UV-I 0 W/m 4,2 C 1,1 C 25,7 km/h (4 Bft) 94,44 %
05.04.2018 23:59 8,2 C 7,8 C 76 % 1019,3 hPa 0,0 l/m 14,7 km/h (3 Bft) W 259 0 min 0,000 mm 0,0 UV-I 0 W/m 4,2 C 3,1 C 20,9 km/h (4 Bft) 100,00 %
_ Min-Zeit 21:54 00:00 14:28 01:16 - 00:54 - - - - - - 23:58 21:36 00:54 23:50
Minimum _ 8,2 C 7,2 C 54 % 1007,1 hPa - 0,0 km/h (0 Bft) - - - - - - 4,2 C -0,0 C 0,0 km/h (0 Bft) 83,33 %
_ Max-Zeit 17:22 01:48 20:50 23:57 20:22 11:16 - - 11:39 15:00 12:38 12:38 11:44 15:38 20:08 00:04
Maximum _ 15,4 C 7,8 C 90 % 1019,4 hPa 0,2 l/m 28,8 km/h
SW (4 Bft)
- - 3 min 0,432 mm 3,3 UV-I 889 W/m 8,1 C 14,2 C 51,5 km/h
W-NW (7 Bft)
100,00 %
Durchschnitt _ 11,2 C 7,8 C 72 % 1011,6 hPa #1,0 l/m 11,8 km/h (2 Bft) SW - #6:25 h #3,150 mm 1,7 UV-I 316 W/m 6,2 C 8,3 C 17,8 km/h (3 Bft) 97,99 %